<?xml version="1.0" encoding="UTF-8" standalone="no" ?>
<gpx xmlns="http://www.topografix.com/GPX/1/1" xmlns:xsi="http://www.w3.org/2001/XMLSchema-instance" xsi:schemaLocation="http://www.topografix.com/GPX/1/1 http://www.topografix.com/GPX/1/1/gpx.xsd" version="1.1" creator="VisuGPX - https://www.visugpx.com">
  <metadata>
    <name>La Cadière la vallée du silence Beausset vieux</name>
    <desc><![CDATA[Cet itinéraire se fait aisément grâce à l’assistance électrique de nos vélos. Il vous permettra de découvrir des lieux incontournables dans les environs de la Cadière d’Azur. Vous passerez à proximité de Sainte Anne du Castellet. Vous contournerez ensuite le Brulât puis atteindrez le Beausset en empruntant la vallée du silence. Direction ensuite le sanctuaire de Notre Dame du Beausset Vieux, culminant à 364 mètres d’altitude. Vous pouvez y accéder en pédalant 2 kms supplémentaire, la vue et la tranquillité de l’endroit valent cet effort supplémentaire. Le retour sur la Cadière d’Azur vous fera passer par des petites routes offrant de jolis panoramas, Vous passerez également devant de nombreux domaines viticoles. ]]></desc>
  </metadata>
  <trk>
    <name><![CDATA[Ste Anne du Castellet - Le Beausset - Val d'Aran]]></name>
    <trkseg>
      <trkpt lat="43.19575" lon="5.75738">
        <ele>135.60000610352</ele>
        <time>2018-04-02T14:17:12.000Z</time>
      </trkpt>
      <trkpt lat="43.19573" lon="5.75741">
        <ele>134.80000305176</ele>
        <time>2018-04-02T14:17:21.000Z</time>
      </trkpt>
      <trkpt lat="43.1957" lon="5.75747">
        <ele>133.60000610352</ele>
        <time>2018-04-02T14:17:23.000Z</time>
      </trkpt>
      <trkpt lat="43.19568" lon="5.75751">
        <ele>132.80000305176</ele>
        <time>2018-04-02T14:17:24.000Z</time>
      </trkpt>
      <trkpt lat="43.19565" lon="5.75755">
        <ele>132</ele>
        <time>2018-04-02T14:17:25.000Z</time>
      </trkpt>
      <trkpt lat="43.19563" lon="5.7576">
        <ele>131.19999694824</ele>
        <time>2018-04-02T14:17:26.000Z</time>
      </trkpt>
      <trkpt lat="43.19557" lon="5.75768">
        <ele>129.39999389648</ele>
        <time>2018-04-02T14:17:28.000Z</time>
      </trkpt>
      <trkpt lat="43.19551" lon="5.75775">
        <ele>128.60000610352</ele>
        <time>2018-04-02T14:17:30.000Z</time>
      </trkpt>
      <trkpt lat="43.19545" lon="5.7578">
        <ele>127.80000305176</ele>
        <time>2018-04-02T14:17:32.000Z</time>
      </trkpt>
      <trkpt lat="43.19542" lon="5.75782">
        <ele>127.59999847412</ele>
        <time>2018-04-02T14:17:33.000Z</time>
      </trkpt>
      <trkpt lat="43.19539" lon="5.75785">
        <ele>127.19999694824</ele>
        <time>2018-04-02T14:17:35.000Z</time>
      </trkpt>
      <trkpt lat="43.19539" lon="5.75786">
        <ele>127.19999694824</ele>
        <time>2018-04-02T14:17:36.000Z</time>
      </trkpt>
      <trkpt lat="43.19537" lon="5.75789">
        <ele>127</ele>
        <time>2018-04-02T14:17:37.000Z</time>
      </trkpt>
      <trkpt lat="43.19536" lon="5.75792">
        <ele>126.80000305176</ele>
        <time>2018-04-02T14:17:38.000Z</time>
      </trkpt>
      <trkpt lat="43.19535" lon="5.75802">
        <ele>126.59999847412</ele>
        <time>2018-04-02T14:17:40.000Z</time>
      </trkpt>
      <trkpt lat="43.19536" lon="5.75807">
        <ele>126.40000152588</ele>
        <time>2018-04-02T14:17:41.000Z</time>
      </trkpt>
      <trkpt lat="43.19536" lon="5.75813">
        <ele>126.19999694824</ele>
        <time>2018-04-02T14:17:42.000Z</time>
      </trkpt>
      <trkpt lat="43.19537" lon="5.75818">
        <ele>125.80000305176</ele>
        <time>2018-04-02T14:17:43.000Z</time>
      </trkpt>
      <trkpt lat="43.19538" lon="5.75824">
        <ele>125.59999847412</ele>
        <time>2018-04-02T14:17:44.000Z</time>
      </trkpt>
      <trkpt lat="43.1954" lon="5.75836">
        <ele>125.19999694824</ele>
        <time>2018-04-02T14:17:46.000Z</time>
      </trkpt>
      <trkpt lat="43.1954" lon="5.75843">
        <ele>124.80000305176</ele>
        <time>2018-04-02T14:17:47.000Z</time>
      </trkpt>
      <trkpt lat="43.19541" lon="5.7585">
        <ele>124.40000152588</ele>
        <time>2018-04-02T14:17:48.000Z</time>
      </trkpt>
      <trkpt lat="43.19541" lon="5.75857">
        <ele>124</ele>
        <time>2018-04-02T14:17:49.000Z</time>
      </trkpt>
      <trkpt lat="43.19545" lon="5.75879">
        <ele>123.19999694824</ele>
        <time>2018-04-02T14:17:52.000Z</time>
      </trkpt>
      <trkpt lat="43.19547" lon="5.75886">
        <ele>122.80000305176</ele>
        <time>2018-04-02T14:17:53.000Z</time>
      </trkpt>
      <trkpt lat="43.19551" lon="5.759">
        <ele>122</ele>
        <time>2018-04-02T14:17:55.000Z</time>
      </trkpt>
      <trkpt lat="43.1956" lon="5.75924">
        <ele>120.19999694824</ele>
        <time>2018-04-02T14:17:59.000Z</time>
      </trkpt>
      <trkpt lat="43.19565" lon="5.75938">
        <ele>119.40000152588</ele>
        <time>2018-04-02T14:18:01.000Z</time>
      </trkpt>
      <trkpt lat="43.19567" lon="5.75947">
        <ele>119</ele>
        <time>2018-04-02T14:18:02.000Z</time>
      </trkpt>
      <trkpt lat="43.1957" lon="5.7597">
        <ele>118.80000305176</ele>
        <time>2018-04-02T14:18:04.000Z</time>
      </trkpt>
      <trkpt lat="43.19573" lon="5.75982">
        <ele>117.59999847412</ele>
        <time>2018-04-02T14:18:05.000Z</time>
      </trkpt>
      <trkpt lat="43.19585" lon="5.76004">
        <ele>115.40000152588</ele>
        <time>2018-04-02T14:18:07.000Z</time>
      </trkpt>
      <trkpt lat="43.19601" lon="5.76022">
        <ele>113.19999694824</ele>
        <time>2018-04-02T14:18:09.000Z</time>
      </trkpt>
      <trkpt lat="43.19618" lon="5.7604">
        <ele>110.19999694824</ele>
        <time>2018-04-02T14:18:11.000Z</time>
      </trkpt>
      <trkpt lat="43.19634" lon="5.76055">
        <ele>107.59999847412</ele>
        <time>2018-04-02T14:18:13.000Z</time>
      </trkpt>
      <trkpt lat="43.19651" lon="5.76065">
        <ele>104.80000305176</ele>
        <time>2018-04-02T14:18:15.000Z</time>
      </trkpt>
      <trkpt lat="43.1967" lon="5.76063">
        <ele>104</ele>
        <time>2018-04-02T14:18:17.000Z</time>
      </trkpt>
      <trkpt lat="43.1969" lon="5.7605">
        <ele>103.59999847412</ele>
        <time>2018-04-02T14:18:19.000Z</time>
      </trkpt>
      <trkpt lat="43.19699" lon="5.7604">
        <ele>103.80000305176</ele>
        <time>2018-04-02T14:18:20.000Z</time>
      </trkpt>
      <trkpt lat="43.19708" lon="5.76029">
        <ele>103.80000305176</ele>
        <time>2018-04-02T14:18:21.000Z</time>
      </trkpt>
      <trkpt lat="43.19729" lon="5.76007">
        <ele>103</ele>
        <time>2018-04-02T14:18:23.000Z</time>
      </trkpt>
      <trkpt lat="43.19749" lon="5.75985">
        <ele>100.40000152588</ele>
        <time>2018-04-02T14:18:25.000Z</time>
      </trkpt>
      <trkpt lat="43.19769" lon="5.75962">
        <ele>99.199996948242</ele>
        <time>2018-04-02T14:18:27.000Z</time>
      </trkpt>
      <trkpt lat="43.19789" lon="5.75943">
        <ele>99.400001525879</ele>
        <time>2018-04-02T14:18:29.000Z</time>
      </trkpt>
      <trkpt lat="43.198" lon="5.75936">
        <ele>99</ele>
        <time>2018-04-02T14:18:30.000Z</time>
      </trkpt>
      <trkpt lat="43.19811" lon="5.75932">
        <ele>97.400001525879</ele>
        <time>2018-04-02T14:18:31.000Z</time>
      </trkpt>
      <trkpt lat="43.19833" lon="5.75933">
        <ele>91.400001525879</ele>
        <time>2018-04-02T14:18:33.000Z</time>
      </trkpt>
      <trkpt lat="43.19843" lon="5.75937">
        <ele>88.599998474121</ele>
        <time>2018-04-02T14:18:34.000Z</time>
      </trkpt>
      <trkpt lat="43.19853" lon="5.75942">
        <ele>87.599998474121</ele>
        <time>2018-04-02T14:18:35.000Z</time>
      </trkpt>
      <trkpt lat="43.19863" lon="5.75947">
        <ele>87</ele>
        <time>2018-04-02T14:18:36.000Z</time>
      </trkpt>
      <trkpt lat="43.19873" lon="5.75951">
        <ele>86.400001525879</ele>
        <time>2018-04-02T14:18:37.000Z</time>
      </trkpt>
      <trkpt lat="43.19883" lon="5.75955">
        <ele>85.800003051758</ele>
        <time>2018-04-02T14:18:38.000Z</time>
      </trkpt>
      <trkpt lat="43.19893" lon="5.75959">
        <ele>85.199996948242</ele>
        <time>2018-04-02T14:18:39.000Z</time>
      </trkpt>
      <trkpt lat="43.19903" lon="5.75964">
        <ele>84.400001525879</ele>
        <time>2018-04-02T14:18:40.000Z</time>
      </trkpt>
      <trkpt lat="43.19922" lon="5.75974">
        <ele>83.199996948242</ele>
        <time>2018-04-02T14:18:42.000Z</time>
      </trkpt>
      <trkpt lat="43.19942" lon="5.75983">
        <ele>83.400001525879</ele>
        <time>2018-04-02T14:18:44.000Z</time>
      </trkpt>
      <trkpt lat="43.1996" lon="5.75991">
        <ele>84</ele>
        <time>2018-04-02T14:18:46.000Z</time>
      </trkpt>
      <trkpt lat="43.19977" lon="5.75999">
        <ele>84.599998474121</ele>
        <time>2018-04-02T14:18:48.000Z</time>
      </trkpt>
      <trkpt lat="43.19991" lon="5.76007">
        <ele>85</ele>
        <time>2018-04-02T14:18:50.000Z</time>
      </trkpt>
      <trkpt lat="43.20001" lon="5.76012">
        <ele>85.199996948242</ele>
        <time>2018-04-02T14:18:52.000Z</time>
      </trkpt>
      <trkpt lat="43.20003" lon="5.76015">
        <ele>85.400001525879</ele>
        <time>2018-04-02T14:18:53.000Z</time>
      </trkpt>
      <trkpt lat="43.20005" lon="5.76016">
        <ele>85.400001525879</ele>
        <time>2018-04-02T14:18:54.000Z</time>
      </trkpt>
      <trkpt lat="43.2001" lon="5.76015">
        <ele>85.400001525879</ele>
        <time>2018-04-02T14:18:56.000Z</time>
      </trkpt>
      <trkpt lat="43.20013" lon="5.76012">
        <ele>85.400001525879</ele>
        <time>2018-04-02T14:18:57.000Z</time>
      </trkpt>
      <trkpt lat="43.20018" lon="5.76002">
        <ele>85.400001525879</ele>
        <time>2018-04-02T14:18:59.000Z</time>
      </trkpt>
      <trkpt lat="43.20023" lon="5.75989">
        <ele>85.199996948242</ele>
        <time>2018-04-02T14:19:01.000Z</time>
      </trkpt>
      <trkpt lat="43.20025" lon="5.75983">
        <ele>85.199996948242</ele>
        <time>2018-04-02T14:19:02.000Z</time>
      </trkpt>
      <trkpt lat="43.20031" lon="5.75961">
        <ele>85.199996948242</ele>
        <time>2018-04-02T14:19:05.000Z</time>
      </trkpt>
      <trkpt lat="43.20032" lon="5.75953">
        <ele>85</ele>
        <time>2018-04-02T14:19:06.000Z</time>
      </trkpt>
      <trkpt lat="43.20032" lon="5.75944">
        <ele>85</ele>
        <time>2018-04-02T14:19:07.000Z</time>
      </trkpt>
      <trkpt lat="43.20032" lon="5.75927">
        <ele>84.800003051758</ele>
        <time>2018-04-02T14:19:09.000Z</time>
      </trkpt>
      <trkpt lat="43.2003" lon="5.75885">
        <ele>84.800003051758</ele>
        <time>2018-04-02T14:19:14.000Z</time>
      </trkpt>
      <trkpt lat="43.20031" lon="5.75843">
        <ele>85.199996948242</ele>
        <time>2018-04-02T14:19:19.000Z</time>
      </trkpt>
      <trkpt lat="43.2003" lon="5.75819">
        <ele>85.400001525879</ele>
        <time>2018-04-02T14:19:22.000Z</time>
      </trkpt>
      <trkpt lat="43.2003" lon="5.75793">
        <ele>85.800003051758</ele>
        <time>2018-04-02T14:19:26.000Z</time>
      </trkpt>
      <trkpt lat="43.20035" lon="5.75787">
        <ele>86</ele>
        <time>2018-04-02T14:19:28.000Z</time>
      </trkpt>
      <trkpt lat="43.20039" lon="5.75787">
        <ele>86</ele>
        <time>2018-04-02T14:19:29.000Z</time>
      </trkpt>
      <trkpt lat="43.20058" lon="5.75792">
        <ele>86.400001525879</ele>
        <time>2018-04-02T14:19:33.000Z</time>
      </trkpt>
      <trkpt lat="43.2009" lon="5.75799">
        <ele>87</ele>
        <time>2018-04-02T14:19:39.000Z</time>
      </trkpt>
      <trkpt lat="43.20096" lon="5.75801">
        <ele>87</ele>
        <time>2018-04-02T14:19:42.000Z</time>
      </trkpt>
      <trkpt lat="43.20097" lon="5.75799">
        <ele>87</ele>
        <time>2018-04-02T14:20:00.000Z</time>
      </trkpt>
      <trkpt lat="43.20102" lon="5.75799">
        <ele>87.199996948242</ele>
        <time>2018-04-02T14:20:02.000Z</time>
      </trkpt>
      <trkpt lat="43.20126" lon="5.75803">
        <ele>87.400001525879</ele>
        <time>2018-04-02T14:20:07.000Z</time>
      </trkpt>
      <trkpt lat="43.20178" lon="5.75813">
        <ele>88</ele>
        <time>2018-04-02T14:20:16.000Z</time>
      </trkpt>
      <trkpt lat="43.20228" lon="5.7582">
        <ele>88.599998474121</ele>
        <time>2018-04-02T14:20:24.000Z</time>
      </trkpt>
      <trkpt lat="43.20285" lon="5.75822">
        <ele>89</ele>
        <time>2018-04-02T14:20:33.000Z</time>
      </trkpt>
      <trkpt lat="43.20292" lon="5.75822">
        <ele>89</ele>
        <time>2018-04-02T14:20:34.000Z</time>
      </trkpt>
      <trkpt lat="43.20348" lon="5.7582">
        <ele>89</ele>
        <time>2018-04-02T14:20:43.000Z</time>
      </trkpt>
      <trkpt lat="43.20361" lon="5.75821">
        <ele>89.599998474121</ele>
        <time>2018-04-02T14:20:45.000Z</time>
      </trkpt>
      <trkpt lat="43.2038" lon="5.75821">
        <ele>90</ele>
        <time>2018-04-02T14:20:48.000Z</time>
      </trkpt>
      <trkpt lat="43.204" lon="5.75825">
        <ele>90.599998474121</ele>
        <time>2018-04-02T14:20:51.000Z</time>
      </trkpt>
      <trkpt lat="43.20426" lon="5.75833">
        <ele>91.199996948242</ele>
        <time>2018-04-02T14:20:55.000Z</time>
      </trkpt>
      <trkpt lat="43.20452" lon="5.7584">
        <ele>91.800003051758</ele>
        <time>2018-04-02T14:20:59.000Z</time>
      </trkpt>
      <trkpt lat="43.20497" lon="5.75843">
        <ele>92.199996948242</ele>
        <time>2018-04-02T14:21:06.000Z</time>
      </trkpt>
      <trkpt lat="43.20529" lon="5.75846">
        <ele>93</ele>
        <time>2018-04-02T14:21:11.000Z</time>
      </trkpt>
      <trkpt lat="43.20541" lon="5.75843">
        <ele>93.199996948242</ele>
        <time>2018-04-02T14:21:13.000Z</time>
      </trkpt>
      <trkpt lat="43.20572" lon="5.75838">
        <ele>94.400001525879</ele>
        <time>2018-04-02T14:21:18.000Z</time>
      </trkpt>
      <trkpt lat="43.20585" lon="5.75837">
        <ele>95.199996948242</ele>
        <time>2018-04-02T14:21:20.000Z</time>
      </trkpt>
      <trkpt lat="43.20609" lon="5.75837">
        <ele>95.800003051758</ele>
        <time>2018-04-02T14:21:24.000Z</time>
      </trkpt>
      <trkpt lat="43.2062" lon="5.75844">
        <ele>95.800003051758</ele>
        <time>2018-04-02T14:21:26.000Z</time>
      </trkpt>
      <trkpt lat="43.20629" lon="5.75856">
        <ele>95.800003051758</ele>
        <time>2018-04-02T14:21:28.000Z</time>
      </trkpt>
      <trkpt lat="43.20635" lon="5.75862">
        <ele>95.800003051758</ele>
        <time>2018-04-02T14:21:29.000Z</time>
      </trkpt>
      <trkpt lat="43.20645" lon="5.75872">
        <ele>95.800003051758</ele>
        <time>2018-04-02T14:21:31.000Z</time>
      </trkpt>
      <trkpt lat="43.20651" lon="5.75876">
        <ele>95.800003051758</ele>
        <time>2018-04-02T14:21:32.000Z</time>
      </trkpt>
      <trkpt lat="43.20669" lon="5.75882">
        <ele>96</ele>
        <time>2018-04-02T14:21:35.000Z</time>
      </trkpt>
      <trkpt lat="43.20675" lon="5.75883">
        <ele>96</ele>
        <time>2018-04-02T14:21:36.000Z</time>
      </trkpt>
      <trkpt lat="43.20694" lon="5.75885">
        <ele>96.400001525879</ele>
        <time>2018-04-02T14:21:39.000Z</time>
      </trkpt>
      <trkpt lat="43.20707" lon="5.75884">
        <ele>96.800003051758</ele>
        <time>2018-04-02T14:21:41.000Z</time>
      </trkpt>
      <trkpt lat="43.20713" lon="5.75883">
        <ele>97</ele>
        <time>2018-04-02T14:21:42.000Z</time>
      </trkpt>
      <trkpt lat="43.20743" lon="5.75874">
        <ele>97.800003051758</ele>
        <time>2018-04-02T14:21:47.000Z</time>
      </trkpt>
      <trkpt lat="43.20786" lon="5.75873">
        <ele>98.800003051758</ele>
        <time>2018-04-02T14:21:54.000Z</time>
      </trkpt>
      <trkpt lat="43.20792" lon="5.75875">
        <ele>99</ele>
        <time>2018-04-02T14:21:55.000Z</time>
      </trkpt>
      <trkpt lat="43.20811" lon="5.75881">
        <ele>99.800003051758</ele>
        <time>2018-04-02T14:21:58.000Z</time>
      </trkpt>
      <trkpt lat="43.20823" lon="5.75885">
        <ele>100.19999694824</ele>
        <time>2018-04-02T14:22:00.000Z</time>
      </trkpt>
      <trkpt lat="43.20858" lon="5.75902">
        <ele>101.40000152588</ele>
        <time>2018-04-02T14:22:06.000Z</time>
      </trkpt>
      <trkpt lat="43.20863" lon="5.75907">
        <ele>101.59999847412</ele>
        <time>2018-04-02T14:22:07.000Z</time>
      </trkpt>
      <trkpt lat="43.20867" lon="5.75913">
        <ele>101.80000305176</ele>
        <time>2018-04-02T14:22:08.000Z</time>
      </trkpt>
      <trkpt lat="43.20878" lon="5.75934">
        <ele>102.19999694824</ele>
        <time>2018-04-02T14:22:11.000Z</time>
      </trkpt>
      <trkpt lat="43.20882" lon="5.7594">
        <ele>102.40000152588</ele>
        <time>2018-04-02T14:22:12.000Z</time>
      </trkpt>
      <trkpt lat="43.20891" lon="5.75952">
        <ele>102.59999847412</ele>
        <time>2018-04-02T14:22:14.000Z</time>
      </trkpt>
      <trkpt lat="43.20896" lon="5.75956">
        <ele>102.80000305176</ele>
        <time>2018-04-02T14:22:15.000Z</time>
      </trkpt>
      <trkpt lat="43.20907" lon="5.75964">
        <ele>103.19999694824</ele>
        <time>2018-04-02T14:22:17.000Z</time>
      </trkpt>
      <trkpt lat="43.20925" lon="5.75972">
        <ele>104</ele>
        <time>2018-04-02T14:22:20.000Z</time>
      </trkpt>
      <trkpt lat="43.20949" lon="5.75979">
        <ele>105.59999847412</ele>
        <time>2018-04-02T14:22:24.000Z</time>
      </trkpt>
      <trkpt lat="43.20961" lon="5.75979">
        <ele>106.40000152588</ele>
        <time>2018-04-02T14:22:26.000Z</time>
      </trkpt>
      <trkpt lat="43.20984" lon="5.75982">
        <ele>108.19999694824</ele>
        <time>2018-04-02T14:22:30.000Z</time>
      </trkpt>
      <trkpt lat="43.2099" lon="5.75982">
        <ele>108.80000305176</ele>
        <time>2018-04-02T14:22:31.000Z</time>
      </trkpt>
      <trkpt lat="43.2102" lon="5.75984">
        <ele>111.40000152588</ele>
        <time>2018-04-02T14:22:36.000Z</time>
      </trkpt>
      <trkpt lat="43.21026" lon="5.75985">
        <ele>112.19999694824</ele>
        <time>2018-04-02T14:22:37.000Z</time>
      </trkpt>
      <trkpt lat="43.2103" lon="5.75988">
        <ele>113</ele>
        <time>2018-04-02T14:22:38.000Z</time>
      </trkpt>
      <trkpt lat="43.21036" lon="5.76001">
        <ele>114</ele>
        <time>2018-04-02T14:22:40.000Z</time>
      </trkpt>
      <trkpt lat="43.21042" lon="5.76019">
        <ele>115.19999694824</ele>
        <time>2018-04-02T14:22:43.000Z</time>
      </trkpt>
      <trkpt lat="43.21048" lon="5.76036">
        <ele>116.19999694824</ele>
        <time>2018-04-02T14:22:46.000Z</time>
      </trkpt>
      <trkpt lat="43.2105" lon="5.76042">
        <ele>116.80000305176</ele>
        <time>2018-04-02T14:22:47.000Z</time>
      </trkpt>
      <trkpt lat="43.21059" lon="5.76064">
        <ele>117.59999847412</ele>
        <time>2018-04-02T14:22:51.000Z</time>
      </trkpt>
      <trkpt lat="43.21061" lon="5.7607">
        <ele>117.59999847412</ele>
        <time>2018-04-02T14:22:52.000Z</time>
      </trkpt>
      <trkpt lat="43.21064" lon="5.76082">
        <ele>117.19999694824</ele>
        <time>2018-04-02T14:22:54.000Z</time>
      </trkpt>
      <trkpt lat="43.21067" lon="5.7611">
        <ele>116</ele>
        <time>2018-04-02T14:22:58.000Z</time>
      </trkpt>
      <trkpt lat="43.21067" lon="5.76131">
        <ele>116.80000305176</ele>
        <time>2018-04-02T14:23:01.000Z</time>
      </trkpt>
      <trkpt lat="43.21068" lon="5.7615">
        <ele>116.59999847412</ele>
        <time>2018-04-02T14:23:04.000Z</time>
      </trkpt>
      <trkpt lat="43.21069" lon="5.76155">
        <ele>116.40000152588</ele>
        <time>2018-04-02T14:23:05.000Z</time>
      </trkpt>
      <trkpt lat="43.21074" lon="5.76162">
        <ele>116.40000152588</ele>
        <time>2018-04-02T14:23:08.000Z</time>
      </trkpt>
      <trkpt lat="43.21075" lon="5.76163">
        <ele>116.40000152588</ele>
        <time>2018-04-02T14:23:09.000Z</time>
      </trkpt>
      <trkpt lat="43.21089" lon="5.7616">
        <ele>117</ele>
        <time>2018-04-02T14:23:13.000Z</time>
      </trkpt>
      <trkpt lat="43.21107" lon="5.7615">
        <ele>117.59999847412</ele>
        <time>2018-04-02T14:23:17.000Z</time>
      </trkpt>
      <trkpt lat="43.21112" lon="5.76148">
        <ele>117.80000305176</ele>
        <time>2018-04-02T14:23:18.000Z</time>
      </trkpt>
      <trkpt lat="43.21151" lon="5.76129">
        <ele>119.19999694824</ele>
        <time>2018-04-02T14:23:25.000Z</time>
      </trkpt>
      <trkpt lat="43.2118" lon="5.76119">
        <ele>121</ele>
        <time>2018-04-02T14:23:30.000Z</time>
      </trkpt>
      <trkpt lat="43.21201" lon="5.76108">
        <ele>122.40000152588</ele>
        <time>2018-04-02T14:23:34.000Z</time>
      </trkpt>
      <trkpt lat="43.21232" lon="5.76098">
        <ele>123.40000152588</ele>
        <time>2018-04-02T14:23:39.000Z</time>
      </trkpt>
      <trkpt lat="43.21239" lon="5.76098">
        <ele>123.19999694824</ele>
        <time>2018-04-02T14:23:40.000Z</time>
      </trkpt>
      <trkpt lat="43.21264" lon="5.7611">
        <ele>121.80000305176</ele>
        <time>2018-04-02T14:23:44.000Z</time>
      </trkpt>
      <trkpt lat="43.2127" lon="5.76113">
        <ele>121.80000305176</ele>
        <time>2018-04-02T14:23:45.000Z</time>
      </trkpt>
      <trkpt lat="43.21282" lon="5.76118">
        <ele>121.80000305176</ele>
        <time>2018-04-02T14:23:47.000Z</time>
      </trkpt>
      <trkpt lat="43.213" lon="5.76123">
        <ele>122.19999694824</ele>
        <time>2018-04-02T14:23:50.000Z</time>
      </trkpt>
      <trkpt lat="43.21336" lon="5.76129">
        <ele>123.19999694824</ele>
        <time>2018-04-02T14:23:56.000Z</time>
      </trkpt>
      <trkpt lat="43.21353" lon="5.76133">
        <ele>124</ele>
        <time>2018-04-02T14:23:59.000Z</time>
      </trkpt>
      <trkpt lat="43.21359" lon="5.76134">
        <ele>124.59999847412</ele>
        <time>2018-04-02T14:24:00.000Z</time>
      </trkpt>
      <trkpt lat="43.21381" lon="5.76139">
        <ele>126.80000305176</ele>
        <time>2018-04-02T14:24:04.000Z</time>
      </trkpt>
      <trkpt lat="43.21398" lon="5.76144">
        <ele>128.39999389648</ele>
        <time>2018-04-02T14:24:07.000Z</time>
      </trkpt>
      <trkpt lat="43.21404" lon="5.76145">
        <ele>129</ele>
        <time>2018-04-02T14:24:08.000Z</time>
      </trkpt>
      <trkpt lat="43.21427" lon="5.76151">
        <ele>131.39999389648</ele>
        <time>2018-04-02T14:24:12.000Z</time>
      </trkpt>
      <trkpt lat="43.21444" lon="5.76154">
        <ele>132.60000610352</ele>
        <time>2018-04-02T14:24:15.000Z</time>
      </trkpt>
      <trkpt lat="43.2145" lon="5.76155">
        <ele>133</ele>
        <time>2018-04-02T14:24:16.000Z</time>
      </trkpt>
      <trkpt lat="43.21467" lon="5.76158">
        <ele>134</ele>
        <time>2018-04-02T14:24:19.000Z</time>
      </trkpt>
      <trkpt lat="43.21486" lon="5.76162">
        <ele>135.19999694824</ele>
        <time>2018-04-02T14:24:22.000Z</time>
      </trkpt>
      <trkpt lat="43.21504" lon="5.76166">
        <ele>136.39999389648</ele>
        <time>2018-04-02T14:24:25.000Z</time>
      </trkpt>
      <trkpt lat="43.21529" lon="5.76171">
        <ele>137.39999389648</ele>
        <time>2018-04-02T14:24:29.000Z</time>
      </trkpt>
      <trkpt lat="43.21541" lon="5.76173">
        <ele>137.80000305176</ele>
        <time>2018-04-02T14:24:31.000Z</time>
      </trkpt>
      <trkpt lat="43.21552" lon="5.76177">
        <ele>138</ele>
        <time>2018-04-02T14:24:33.000Z</time>
      </trkpt>
      <trkpt lat="43.21564" lon="5.7618">
        <ele>138.60000610352</ele>
        <time>2018-04-02T14:24:35.000Z</time>
      </trkpt>
      <trkpt lat="43.21575" lon="5.76182">
        <ele>139.19999694824</ele>
        <time>2018-04-02T14:24:37.000Z</time>
      </trkpt>
      <trkpt lat="43.21581" lon="5.76183">
        <ele>139.39999389648</ele>
        <time>2018-04-02T14:24:38.000Z</time>
      </trkpt>
      <trkpt lat="43.21598" lon="5.76187">
        <ele>140</ele>
        <time>2018-04-02T14:24:41.000Z</time>
      </trkpt>
      <trkpt lat="43.21614" lon="5.7619">
        <ele>139.39999389648</ele>
        <time>2018-04-02T14:24:44.000Z</time>
      </trkpt>
      <trkpt lat="43.2162" lon="5.7619">
        <ele>139.19999694824</ele>
        <time>2018-04-02T14:24:45.000Z</time>
      </trkpt>
      <trkpt lat="43.21626" lon="5.76188">
        <ele>139.19999694824</ele>
        <time>2018-04-02T14:24:46.000Z</time>
      </trkpt>
      <trkpt lat="43.21638" lon="5.76181">
        <ele>139.39999389648</ele>
        <time>2018-04-02T14:24:48.000Z</time>
      </trkpt>
      <trkpt lat="43.21661" lon="5.76164">
        <ele>141.80000305176</ele>
        <time>2018-04-02T14:24:52.000Z</time>
      </trkpt>
      <trkpt lat="43.21674" lon="5.76154">
        <ele>143.19999694824</ele>
        <time>2018-04-02T14:24:54.000Z</time>
      </trkpt>
      <trkpt lat="43.21686" lon="5.76143">
        <ele>143.80000305176</ele>
        <time>2018-04-02T14:24:56.000Z</time>
      </trkpt>
      <trkpt lat="43.21698" lon="5.76131">
        <ele>142.80000305176</ele>
        <time>2018-04-02T14:24:58.000Z</time>
      </trkpt>
      <trkpt lat="43.21705" lon="5.76125">
        <ele>142.19999694824</ele>
        <time>2018-04-02T14:24:59.000Z</time>
      </trkpt>
      <trkpt lat="43.21733" lon="5.761">
        <ele>140.60000610352</ele>
        <time>2018-04-02T14:25:03.000Z</time>
      </trkpt>
      <trkpt lat="43.21742" lon="5.76096">
        <ele>140.39999389648</ele>
        <time>2018-04-02T14:25:04.000Z</time>
      </trkpt>
      <trkpt lat="43.21765" lon="5.76087">
        <ele>140</ele>
        <time>2018-04-02T14:25:07.000Z</time>
      </trkpt>
      <trkpt lat="43.21773" lon="5.76087">
        <ele>140.19999694824</ele>
        <time>2018-04-02T14:25:08.000Z</time>
      </trkpt>
      <trkpt lat="43.21787" lon="5.76088">
        <ele>140</ele>
        <time>2018-04-02T14:25:10.000Z</time>
      </trkpt>
      <trkpt lat="43.21807" lon="5.76094">
        <ele>139</ele>
        <time>2018-04-02T14:25:13.000Z</time>
      </trkpt>
      <trkpt lat="43.21839" lon="5.76109">
        <ele>136.39999389648</ele>
        <time>2018-04-02T14:25:18.000Z</time>
      </trkpt>
      <trkpt lat="43.21854" lon="5.76115">
        <ele>135.80000305176</ele>
        <time>2018-04-02T14:25:20.000Z</time>
      </trkpt>
      <trkpt lat="43.21875" lon="5.76123">
        <ele>135.80000305176</ele>
        <time>2018-04-02T14:25:23.000Z</time>
      </trkpt>
      <trkpt lat="43.21902" lon="5.7613">
        <ele>135.80000305176</ele>
        <time>2018-04-02T14:25:27.000Z</time>
      </trkpt>
      <trkpt lat="43.21927" lon="5.76132">
        <ele>136.19999694824</ele>
        <time>2018-04-02T14:25:31.000Z</time>
      </trkpt>
      <trkpt lat="43.21933" lon="5.76134">
        <ele>136.39999389648</ele>
        <time>2018-04-02T14:25:32.000Z</time>
      </trkpt>
      <trkpt lat="43.2194" lon="5.76137">
        <ele>136.60000610352</ele>
        <time>2018-04-02T14:25:33.000Z</time>
      </trkpt>
      <trkpt lat="43.21959" lon="5.76142">
        <ele>137.80000305176</ele>
        <time>2018-04-02T14:25:37.000Z</time>
      </trkpt>
      <trkpt lat="43.21968" lon="5.76142">
        <ele>138.39999389648</ele>
        <time>2018-04-02T14:25:40.000Z</time>
      </trkpt>
      <trkpt lat="43.21975" lon="5.7614">
        <ele>138.80000305176</ele>
        <time>2018-04-02T14:25:42.000Z</time>
      </trkpt>
      <trkpt lat="43.21997" lon="5.76122">
        <ele>140.19999694824</ele>
        <time>2018-04-02T14:25:47.000Z</time>
      </trkpt>
      <trkpt lat="43.22013" lon="5.76108">
        <ele>140.80000305176</ele>
        <time>2018-04-02T14:25:50.000Z</time>
      </trkpt>
      <trkpt lat="43.22034" lon="5.76087">
        <ele>141.39999389648</ele>
        <time>2018-04-02T14:25:54.000Z</time>
      </trkpt>
      <trkpt lat="43.22045" lon="5.76078">
        <ele>142</ele>
        <time>2018-04-02T14:25:56.000Z</time>
      </trkpt>
      <trkpt lat="43.22065" lon="5.76058">
        <ele>143.80000305176</ele>
        <time>2018-04-02T14:26:00.000Z</time>
      </trkpt>
      <trkpt lat="43.2208" lon="5.76045">
        <ele>145.19999694824</ele>
        <time>2018-04-02T14:26:03.000Z</time>
      </trkpt>
      <trkpt lat="43.22085" lon="5.76041">
        <ele>145.39999389648</ele>
        <time>2018-04-02T14:26:04.000Z</time>
      </trkpt>
      <trkpt lat="43.22095" lon="5.76035">
        <ele>145.80000305176</ele>
        <time>2018-04-02T14:26:06.000Z</time>
      </trkpt>
      <trkpt lat="43.22106" lon="5.76029">
        <ele>146</ele>
        <time>2018-04-02T14:26:08.000Z</time>
      </trkpt>
      <trkpt lat="43.22112" lon="5.76027">
        <ele>146</ele>
        <time>2018-04-02T14:26:09.000Z</time>
      </trkpt>
      <trkpt lat="43.22123" lon="5.76022">
        <ele>146.19999694824</ele>
        <time>2018-04-02T14:26:11.000Z</time>
      </trkpt>
      <trkpt lat="43.2214" lon="5.76015">
        <ele>146.60000610352</ele>
        <time>2018-04-02T14:26:14.000Z</time>
      </trkpt>
      <trkpt lat="43.22157" lon="5.76011">
        <ele>147.80000305176</ele>
        <time>2018-04-02T14:26:17.000Z</time>
      </trkpt>
      <trkpt lat="43.22163" lon="5.76009">
        <ele>148.19999694824</ele>
        <time>2018-04-02T14:26:18.000Z</time>
      </trkpt>
      <trkpt lat="43.2218" lon="5.76004">
        <ele>149.19999694824</ele>
        <time>2018-04-02T14:26:21.000Z</time>
      </trkpt>
      <trkpt lat="43.222" lon="5.75995">
        <ele>149.60000610352</ele>
        <time>2018-04-02T14:26:25.000Z</time>
      </trkpt>
      <trkpt lat="43.22219" lon="5.75983">
        <ele>150.60000610352</ele>
        <time>2018-04-02T14:26:29.000Z</time>
      </trkpt>
      <trkpt lat="43.22228" lon="5.75976">
        <ele>151</ele>
        <time>2018-04-02T14:26:31.000Z</time>
      </trkpt>
      <trkpt lat="43.22241" lon="5.75962">
        <ele>151.39999389648</ele>
        <time>2018-04-02T14:26:34.000Z</time>
      </trkpt>
      <trkpt lat="43.22253" lon="5.75945">
        <ele>152.60000610352</ele>
        <time>2018-04-02T14:26:37.000Z</time>
      </trkpt>
      <trkpt lat="43.22256" lon="5.75938">
        <ele>153.19999694824</ele>
        <time>2018-04-02T14:26:38.000Z</time>
      </trkpt>
      <trkpt lat="43.22258" lon="5.75931">
        <ele>153.60000610352</ele>
        <time>2018-04-02T14:26:39.000Z</time>
      </trkpt>
      <trkpt lat="43.22265" lon="5.75911">
        <ele>154.80000305176</ele>
        <time>2018-04-02T14:26:42.000Z</time>
      </trkpt>
      <trkpt lat="43.22277" lon="5.75892">
        <ele>155.60000610352</ele>
        <time>2018-04-02T14:26:47.000Z</time>
      </trkpt>
      <trkpt lat="43.22281" lon="5.75884">
        <ele>155.80000305176</ele>
        <time>2018-04-02T14:26:58.000Z</time>
      </trkpt>
      <trkpt lat="43.22285" lon="5.7587">
        <ele>156.39999389648</ele>
        <time>2018-04-02T14:27:01.000Z</time>
      </trkpt>
      <trkpt lat="43.22288" lon="5.75865">
        <ele>156.60000610352</ele>
        <time>2018-04-02T14:27:02.000Z</time>
      </trkpt>
      <trkpt lat="43.22294" lon="5.75853">
        <ele>156.80000305176</ele>
        <time>2018-04-02T14:27:04.000Z</time>
      </trkpt>
      <trkpt lat="43.22305" lon="5.75834">
        <ele>157.19999694824</ele>
        <time>2018-04-02T14:27:07.000Z</time>
      </trkpt>
      <trkpt lat="43.2231" lon="5.75828">
        <ele>157.19999694824</ele>
        <time>2018-04-02T14:27:08.000Z</time>
      </trkpt>
      <trkpt lat="43.22329" lon="5.75804">
        <ele>157.39999389648</ele>
        <time>2018-04-02T14:27:12.000Z</time>
      </trkpt>
      <trkpt lat="43.22343" lon="5.75787">
        <ele>156.80000305176</ele>
        <time>2018-04-02T14:27:15.000Z</time>
      </trkpt>
      <trkpt lat="43.22381" lon="5.75744">
        <ele>158.60000610352</ele>
        <time>2018-04-02T14:27:23.000Z</time>
      </trkpt>
      <trkpt lat="43.22398" lon="5.75723">
        <ele>159.60000610352</ele>
        <time>2018-04-02T14:27:27.000Z</time>
      </trkpt>
      <trkpt lat="43.22417" lon="5.75701">
        <ele>160.19999694824</ele>
        <time>2018-04-02T14:27:31.000Z</time>
      </trkpt>
      <trkpt lat="43.22422" lon="5.75696">
        <ele>160.60000610352</ele>
        <time>2018-04-02T14:27:32.000Z</time>
      </trkpt>
      <trkpt lat="43.22441" lon="5.75677">
        <ele>161.60000610352</ele>
        <time>2018-04-02T14:27:36.000Z</time>
      </trkpt>
      <trkpt lat="43.22466" lon="5.75656">
        <ele>163</ele>
        <time>2018-04-02T14:27:41.000Z</time>
      </trkpt>
      <trkpt lat="43.22486" lon="5.7564">
        <ele>164.39999389648</ele>
        <time>2018-04-02T14:27:45.000Z</time>
      </trkpt>
      <trkpt lat="43.22507" lon="5.75624">
        <ele>165.60000610352</ele>
        <time>2018-04-02T14:27:49.000Z</time>
      </trkpt>
      <trkpt lat="43.22518" lon="5.75617">
        <ele>166.39999389648</ele>
        <time>2018-04-02T14:27:51.000Z</time>
      </trkpt>
      <trkpt lat="43.22554" lon="5.756">
        <ele>169</ele>
        <time>2018-04-02T14:27:57.000Z</time>
      </trkpt>
      <trkpt lat="43.22566" lon="5.75594">
        <ele>169.80000305176</ele>
        <time>2018-04-02T14:27:59.000Z</time>
      </trkpt>
      <trkpt lat="43.22577" lon="5.75591">
        <ele>170.60000610352</ele>
        <time>2018-04-02T14:28:01.000Z</time>
      </trkpt>
      <trkpt lat="43.22589" lon="5.75591">
        <ele>171.60000610352</ele>
        <time>2018-04-02T14:28:03.000Z</time>
      </trkpt>
      <trkpt lat="43.22599" lon="5.75592">
        <ele>172</ele>
        <time>2018-04-02T14:28:05.000Z</time>
      </trkpt>
      <trkpt lat="43.2262" lon="5.75596">
        <ele>172</ele>
        <time>2018-04-02T14:28:09.000Z</time>
      </trkpt>
      <trkpt lat="43.22624" lon="5.75597">
        <ele>172</ele>
        <time>2018-04-02T14:28:10.000Z</time>
      </trkpt>
      <trkpt lat="43.22635" lon="5.75597">
        <ele>172</ele>
        <time>2018-04-02T14:28:12.000Z</time>
      </trkpt>
      <trkpt lat="43.2264" lon="5.75595">
        <ele>172</ele>
        <time>2018-04-02T14:28:13.000Z</time>
      </trkpt>
      <trkpt lat="43.22672" lon="5.7558">
        <ele>171.39999389648</ele>
        <time>2018-04-02T14:28:19.000Z</time>
      </trkpt>
      <trkpt lat="43.22684" lon="5.75575">
        <ele>171.39999389648</ele>
        <time>2018-04-02T14:28:21.000Z</time>
      </trkpt>
      <trkpt lat="43.22702" lon="5.7557">
        <ele>172</ele>
        <time>2018-04-02T14:28:24.000Z</time>
      </trkpt>
      <trkpt lat="43.22713" lon="5.75566">
        <ele>172.80000305176</ele>
        <time>2018-04-02T14:28:26.000Z</time>
      </trkpt>
      <trkpt lat="43.22729" lon="5.75562">
        <ele>173.80000305176</ele>
        <time>2018-04-02T14:28:29.000Z</time>
      </trkpt>
      <trkpt lat="43.22744" lon="5.75556">
        <ele>174.80000305176</ele>
        <time>2018-04-02T14:28:32.000Z</time>
      </trkpt>
      <trkpt lat="43.22749" lon="5.75554">
        <ele>175.19999694824</ele>
        <time>2018-04-02T14:28:33.000Z</time>
      </trkpt>
      <trkpt lat="43.22768" lon="5.75543">
        <ele>175.80000305176</ele>
        <time>2018-04-02T14:28:37.000Z</time>
      </trkpt>
      <trkpt lat="43.22786" lon="5.75534">
        <ele>175.80000305176</ele>
        <time>2018-04-02T14:28:40.000Z</time>
      </trkpt>
      <trkpt lat="43.22792" lon="5.7553">
        <ele>175.80000305176</ele>
        <time>2018-04-02T14:28:41.000Z</time>
      </trkpt>
      <trkpt lat="43.22823" lon="5.75515">
        <ele>176.39999389648</ele>
        <time>2018-04-02T14:28:46.000Z</time>
      </trkpt>
      <trkpt lat="43.22835" lon="5.7551">
        <ele>177</ele>
        <time>2018-04-02T14:28:48.000Z</time>
      </trkpt>
      <trkpt lat="43.22847" lon="5.75504">
        <ele>177.60000610352</ele>
        <time>2018-04-02T14:28:50.000Z</time>
      </trkpt>
      <trkpt lat="43.22863" lon="5.75493">
        <ele>178.80000305176</ele>
        <time>2018-04-02T14:28:53.000Z</time>
      </trkpt>
      <trkpt lat="43.22874" lon="5.75485">
        <ele>179.19999694824</ele>
        <time>2018-04-02T14:28:55.000Z</time>
      </trkpt>
      <trkpt lat="43.2289" lon="5.75475">
        <ele>179.60000610352</ele>
        <time>2018-04-02T14:28:58.000Z</time>
      </trkpt>
      <trkpt lat="43.22909" lon="5.75461">
        <ele>179.80000305176</ele>
        <time>2018-04-02T14:29:02.000Z</time>
      </trkpt>
      <trkpt lat="43.22917" lon="5.75455">
        <ele>179.80000305176</ele>
        <time>2018-04-02T14:29:04.000Z</time>
      </trkpt>
      <trkpt lat="43.22921" lon="5.75459">
        <ele>180.19999694824</ele>
        <time>2018-04-02T14:29:06.000Z</time>
      </trkpt>
      <trkpt lat="43.22918" lon="5.75467">
        <ele>180.39999389648</ele>
        <time>2018-04-02T14:29:08.000Z</time>
      </trkpt>
      <trkpt lat="43.22917" lon="5.75471">
        <ele>180.60000610352</ele>
        <time>2018-04-02T14:29:09.000Z</time>
      </trkpt>
      <trkpt lat="43.22912" lon="5.75481">
        <ele>180.60000610352</ele>
        <time>2018-04-02T14:29:12.000Z</time>
      </trkpt>
      <trkpt lat="43.2291" lon="5.75485">
        <ele>180.39999389648</ele>
        <time>2018-04-02T14:29:14.000Z</time>
      </trkpt>
      <trkpt lat="43.22908" lon="5.75488">
        <ele>180.39999389648</ele>
        <time>2018-04-02T14:29:16.000Z</time>
      </trkpt>
      <trkpt lat="43.22904" lon="5.75502">
        <ele>180.39999389648</ele>
        <time>2018-04-02T14:29:20.000Z</time>
      </trkpt>
      <trkpt lat="43.22901" lon="5.75507">
        <ele>180.39999389648</ele>
        <time>2018-04-02T14:29:21.000Z</time>
      </trkpt>
      <trkpt lat="43.2289" lon="5.75519">
        <ele>180.19999694824</ele>
        <time>2018-04-02T14:29:24.000Z</time>
      </trkpt>
      <trkpt lat="43.22867" lon="5.75544">
        <ele>178.39999389648</ele>
        <time>2018-04-02T14:29:29.000Z</time>
      </trkpt>
      <trkpt lat="43.22863" lon="5.75552">
        <ele>178</ele>
        <time>2018-04-02T14:29:30.000Z</time>
      </trkpt>
      <trkpt lat="43.22846" lon="5.75583">
        <ele>176.60000610352</ele>
        <time>2018-04-02T14:29:34.000Z</time>
      </trkpt>
      <trkpt lat="43.22832" lon="5.75608">
        <ele>176.19999694824</ele>
        <time>2018-04-02T14:29:37.000Z</time>
      </trkpt>
      <trkpt lat="43.22819" lon="5.75634">
        <ele>175.39999389648</ele>
        <time>2018-04-02T14:29:40.000Z</time>
      </trkpt>
      <trkpt lat="43.22806" lon="5.7566">
        <ele>174.80000305176</ele>
        <time>2018-04-02T14:29:43.000Z</time>
      </trkpt>
      <trkpt lat="43.22794" lon="5.75683">
        <ele>173.80000305176</ele>
        <time>2018-04-02T14:29:46.000Z</time>
      </trkpt>
      <trkpt lat="43.22785" lon="5.75698">
        <ele>173</ele>
        <time>2018-04-02T14:29:48.000Z</time>
      </trkpt>
      <trkpt lat="43.22777" lon="5.75713">
        <ele>172</ele>
        <time>2018-04-02T14:29:50.000Z</time>
      </trkpt>
      <trkpt lat="43.22772" lon="5.7572">
        <ele>171.60000610352</ele>
        <time>2018-04-02T14:29:51.000Z</time>
      </trkpt>
      <trkpt lat="43.22767" lon="5.75727">
        <ele>171.39999389648</ele>
        <time>2018-04-02T14:29:52.000Z</time>
      </trkpt>
      <trkpt lat="43.22754" lon="5.75748">
        <ele>170</ele>
        <time>2018-04-02T14:29:55.000Z</time>
      </trkpt>
      <trkpt lat="43.22738" lon="5.75778">
        <ele>168.60000610352</ele>
        <time>2018-04-02T14:29:59.000Z</time>
      </trkpt>
      <trkpt lat="43.22724" lon="5.75807">
        <ele>168.39999389648</ele>
        <time>2018-04-02T14:30:03.000Z</time>
      </trkpt>
      <trkpt lat="43.22711" lon="5.75839">
        <ele>167.39999389648</ele>
        <time>2018-04-02T14:30:07.000Z</time>
      </trkpt>
      <trkpt lat="43.22699" lon="5.75872">
        <ele>166.80000305176</ele>
        <time>2018-04-02T14:30:11.000Z</time>
      </trkpt>
      <trkpt lat="43.22692" lon="5.759">
        <ele>166.19999694824</ele>
        <time>2018-04-02T14:30:14.000Z</time>
      </trkpt>
      <trkpt lat="43.22687" lon="5.75929">
        <ele>165.39999389648</ele>
        <time>2018-04-02T14:30:17.000Z</time>
      </trkpt>
      <trkpt lat="43.22685" lon="5.75938">
        <ele>165</ele>
        <time>2018-04-02T14:30:18.000Z</time>
      </trkpt>
      <trkpt lat="43.22683" lon="5.75957">
        <ele>164.39999389648</ele>
        <time>2018-04-02T14:30:20.000Z</time>
      </trkpt>
      <trkpt lat="43.22679" lon="5.75986">
        <ele>163.19999694824</ele>
        <time>2018-04-02T14:30:23.000Z</time>
      </trkpt>
      <trkpt lat="43.22673" lon="5.76023">
        <ele>160.80000305176</ele>
        <time>2018-04-02T14:30:27.000Z</time>
      </trkpt>
      <trkpt lat="43.22667" lon="5.76048">
        <ele>159.39999389648</ele>
        <time>2018-04-02T14:30:30.000Z</time>
      </trkpt>
      <trkpt lat="43.2266" lon="5.76071">
        <ele>159</ele>
        <time>2018-04-02T14:30:33.000Z</time>
      </trkpt>
      <trkpt lat="43.22654" lon="5.76092">
        <ele>158.60000610352</ele>
        <time>2018-04-02T14:30:36.000Z</time>
      </trkpt>
      <trkpt lat="43.2265" lon="5.76104">
        <ele>158.39999389648</ele>
        <time>2018-04-02T14:30:39.000Z</time>
      </trkpt>
      <trkpt lat="43.22652" lon="5.76109">
        <ele>158.39999389648</ele>
        <time>2018-04-02T14:30:46.000Z</time>
      </trkpt>
      <trkpt lat="43.22663" lon="5.76112">
        <ele>158</ele>
        <time>2018-04-02T14:30:49.000Z</time>
      </trkpt>
      <trkpt lat="43.22669" lon="5.76113">
        <ele>157.80000305176</ele>
        <time>2018-04-02T14:30:50.000Z</time>
      </trkpt>
      <trkpt lat="43.2268" lon="5.76116">
        <ele>157.60000610352</ele>
        <time>2018-04-02T14:30:52.000Z</time>
      </trkpt>
      <trkpt lat="43.22685" lon="5.76119">
        <ele>157.60000610352</ele>
        <time>2018-04-02T14:30:53.000Z</time>
      </trkpt>
      <trkpt lat="43.22692" lon="5.76142">
        <ele>157</ele>
        <time>2018-04-02T14:30:56.000Z</time>
      </trkpt>
      <trkpt lat="43.22692" lon="5.76159">
        <ele>156.39999389648</ele>
        <time>2018-04-02T14:30:58.000Z</time>
      </trkpt>
      <trkpt lat="43.22695" lon="5.76176">
        <ele>156</ele>
        <time>2018-04-02T14:31:00.000Z</time>
      </trkpt>
      <trkpt lat="43.22698" lon="5.76184">
        <ele>155.80000305176</ele>
        <time>2018-04-02T14:31:01.000Z</time>
      </trkpt>
      <trkpt lat="43.22715" lon="5.76209">
        <ele>155.19999694824</ele>
        <time>2018-04-02T14:31:05.000Z</time>
      </trkpt>
      <trkpt lat="43.22739" lon="5.7622">
        <ele>155</ele>
        <time>2018-04-02T14:31:09.000Z</time>
      </trkpt>
      <trkpt lat="43.22745" lon="5.76222">
        <ele>155</ele>
        <time>2018-04-02T14:31:10.000Z</time>
      </trkpt>
      <trkpt lat="43.2279" lon="5.76231">
        <ele>156.60000610352</ele>
        <time>2018-04-02T14:31:17.000Z</time>
      </trkpt>
      <trkpt lat="43.22819" lon="5.7624">
        <ele>158.19999694824</ele>
        <time>2018-04-02T14:31:22.000Z</time>
      </trkpt>
      <trkpt lat="43.22835" lon="5.76245">
        <ele>159</ele>
        <time>2018-04-02T14:31:25.000Z</time>
      </trkpt>
      <trkpt lat="43.22863" lon="5.76254">
        <ele>160.39999389648</ele>
        <time>2018-04-02T14:31:30.000Z</time>
      </trkpt>
      <trkpt lat="43.22874" lon="5.76257">
        <ele>161</ele>
        <time>2018-04-02T14:31:32.000Z</time>
      </trkpt>
      <trkpt lat="43.2288" lon="5.76259">
        <ele>161.19999694824</ele>
        <time>2018-04-02T14:31:33.000Z</time>
      </trkpt>
      <trkpt lat="43.22889" lon="5.7627">
        <ele>161.60000610352</ele>
        <time>2018-04-02T14:31:35.000Z</time>
      </trkpt>
      <trkpt lat="43.22904" lon="5.76285">
        <ele>162</ele>
        <time>2018-04-02T14:31:38.000Z</time>
      </trkpt>
      <trkpt lat="43.22925" lon="5.76306">
        <ele>162.80000305176</ele>
        <time>2018-04-02T14:31:42.000Z</time>
      </trkpt>
      <trkpt lat="43.22935" lon="5.76316">
        <ele>163</ele>
        <time>2018-04-02T14:31:44.000Z</time>
      </trkpt>
      <trkpt lat="43.2294" lon="5.76321">
        <ele>163.39999389648</ele>
        <time>2018-04-02T14:31:45.000Z</time>
      </trkpt>
      <trkpt lat="43.22962" lon="5.76352">
        <ele>164.19999694824</ele>
        <time>2018-04-02T14:31:50.000Z</time>
      </trkpt>
      <trkpt lat="43.22969" lon="5.76386">
        <ele>163.39999389648</ele>
        <time>2018-04-02T14:31:54.000Z</time>
      </trkpt>
      <trkpt lat="43.2297" lon="5.76395">
        <ele>163.39999389648</ele>
        <time>2018-04-02T14:31:55.000Z</time>
      </trkpt>
      <trkpt lat="43.22981" lon="5.76459">
        <ele>164</ele>
        <time>2018-04-02T14:32:02.000Z</time>
      </trkpt>
      <trkpt lat="43.22988" lon="5.765">
        <ele>164.80000305176</ele>
        <time>2018-04-02T14:32:07.000Z</time>
      </trkpt>
      <trkpt lat="43.22989" lon="5.76507">
        <ele>164.80000305176</ele>
        <time>2018-04-02T14:32:08.000Z</time>
      </trkpt>
      <trkpt lat="43.22988" lon="5.76528">
        <ele>164.80000305176</ele>
        <time>2018-04-02T14:32:12.000Z</time>
      </trkpt>
      <trkpt lat="43.2299" lon="5.76551">
        <ele>166.19999694824</ele>
        <time>2018-04-02T14:32:17.000Z</time>
      </trkpt>
      <trkpt lat="43.22989" lon="5.76577">
        <ele>167.80000305176</ele>
        <time>2018-04-02T14:32:21.000Z</time>
      </trkpt>
      <trkpt lat="43.22991" lon="5.76583">
        <ele>167.80000305176</ele>
        <time>2018-04-02T14:32:22.000Z</time>
      </trkpt>
      <trkpt lat="43.23006" lon="5.76608">
        <ele>168</ele>
        <time>2018-04-02T14:32:26.000Z</time>
      </trkpt>
      <trkpt lat="43.23019" lon="5.76628">
        <ele>168.60000610352</ele>
        <time>2018-04-02T14:32:29.000Z</time>
      </trkpt>
      <trkpt lat="43.23025" lon="5.76643">
        <ele>169.39999389648</ele>
        <time>2018-04-02T14:32:31.000Z</time>
      </trkpt>
      <trkpt lat="43.2303" lon="5.76668">
        <ele>170.60000610352</ele>
        <time>2018-04-02T14:32:34.000Z</time>
      </trkpt>
      <trkpt lat="43.23033" lon="5.76685">
        <ele>171.60000610352</ele>
        <time>2018-04-02T14:32:36.000Z</time>
      </trkpt>
      <trkpt lat="43.23039" lon="5.76709">
        <ele>173</ele>
        <time>2018-04-02T14:32:39.000Z</time>
      </trkpt>
      <trkpt lat="43.23047" lon="5.76722">
        <ele>173.60000610352</ele>
        <time>2018-04-02T14:32:41.000Z</time>
      </trkpt>
      <trkpt lat="43.23056" lon="5.76734">
        <ele>173.60000610352</ele>
        <time>2018-04-02T14:32:43.000Z</time>
      </trkpt>
      <trkpt lat="43.2306" lon="5.7674">
        <ele>173.60000610352</ele>
        <time>2018-04-02T14:32:44.000Z</time>
      </trkpt>
      <trkpt lat="43.23072" lon="5.76756">
        <ele>173.60000610352</ele>
        <time>2018-04-02T14:32:47.000Z</time>
      </trkpt>
      <trkpt lat="43.23075" lon="5.76761">
        <ele>173.80000305176</ele>
        <time>2018-04-02T14:32:48.000Z</time>
      </trkpt>
      <trkpt lat="43.23085" lon="5.76775">
        <ele>173.80000305176</ele>
        <time>2018-04-02T14:32:51.000Z</time>
      </trkpt>
      <trkpt lat="43.23096" lon="5.76786">
        <ele>173.80000305176</ele>
        <time>2018-04-02T14:32:54.000Z</time>
      </trkpt>
      <trkpt lat="43.23108" lon="5.76791">
        <ele>175</ele>
        <time>2018-04-02T14:32:57.000Z</time>
      </trkpt>
      <trkpt lat="43.23111" lon="5.76795">
        <ele>175.39999389648</ele>
        <time>2018-04-02T14:32:58.000Z</time>
      </trkpt>
      <trkpt lat="43.23111" lon="5.76801">
        <ele>175.39999389648</ele>
        <time>2018-04-02T14:32:59.000Z</time>
      </trkpt>
      <trkpt lat="43.23112" lon="5.76812">
        <ele>175.39999389648</ele>
        <time>2018-04-02T14:33:01.000Z</time>
      </trkpt>
      <trkpt lat="43.23112" lon="5.76819">
        <ele>175.39999389648</ele>
        <time>2018-04-02T14:33:02.000Z</time>
      </trkpt>
      <trkpt lat="43.23113" lon="5.76826">
        <ele>175.39999389648</ele>
        <time>2018-04-02T14:33:03.000Z</time>
      </trkpt>
      <trkpt lat="43.23114" lon="5.7684">
        <ele>175.80000305176</ele>
        <time>2018-04-02T14:33:05.000Z</time>
      </trkpt>
      <trkpt lat="43.23115" lon="5.76854">
        <ele>176</ele>
        <time>2018-04-02T14:33:07.000Z</time>
      </trkpt>
      <trkpt lat="43.23116" lon="5.76861">
        <ele>176.19999694824</ele>
        <time>2018-04-02T14:33:08.000Z</time>
      </trkpt>
      <trkpt lat="43.23116" lon="5.76877">
        <ele>176.39999389648</ele>
        <time>2018-04-02T14:33:10.000Z</time>
      </trkpt>
      <trkpt lat="43.23119" lon="5.76912">
        <ele>176.39999389648</ele>
        <time>2018-04-02T14:33:15.000Z</time>
      </trkpt>
      <trkpt lat="43.23122" lon="5.76945">
        <ele>177</ele>
        <time>2018-04-02T14:33:20.000Z</time>
      </trkpt>
      <trkpt lat="43.23122" lon="5.76952">
        <ele>177</ele>
        <time>2018-04-02T14:33:21.000Z</time>
      </trkpt>
      <trkpt lat="43.23123" lon="5.76971">
        <ele>177.39999389648</ele>
        <time>2018-04-02T14:33:24.000Z</time>
      </trkpt>
      <trkpt lat="43.23124" lon="5.76977">
        <ele>177.19999694824</ele>
        <time>2018-04-02T14:33:25.000Z</time>
      </trkpt>
      <trkpt lat="43.23127" lon="5.76987">
        <ele>177</ele>
        <time>2018-04-02T14:33:27.000Z</time>
      </trkpt>
      <trkpt lat="43.23129" lon="5.76992">
        <ele>176.80000305176</ele>
        <time>2018-04-02T14:33:28.000Z</time>
      </trkpt>
      <trkpt lat="43.23135" lon="5.77">
        <ele>176.80000305176</ele>
        <time>2018-04-02T14:33:30.000Z</time>
      </trkpt>
      <trkpt lat="43.23142" lon="5.77007">
        <ele>177</ele>
        <time>2018-04-02T14:33:32.000Z</time>
      </trkpt>
      <trkpt lat="43.23145" lon="5.77011">
        <ele>177</ele>
        <time>2018-04-02T14:33:33.000Z</time>
      </trkpt>
      <trkpt lat="43.23162" lon="5.7703">
        <ele>177</ele>
        <time>2018-04-02T14:33:38.000Z</time>
      </trkpt>
      <trkpt lat="43.23168" lon="5.77037">
        <ele>177.19999694824</ele>
        <time>2018-04-02T14:33:40.000Z</time>
      </trkpt>
      <trkpt lat="43.23175" lon="5.77044">
        <ele>177.19999694824</ele>
        <time>2018-04-02T14:33:42.000Z</time>
      </trkpt>
      <trkpt lat="43.23186" lon="5.77049">
        <ele>177.60000610352</ele>
        <time>2018-04-02T14:33:45.000Z</time>
      </trkpt>
      <trkpt lat="43.23199" lon="5.77054">
        <ele>178.19999694824</ele>
        <time>2018-04-02T14:33:48.000Z</time>
      </trkpt>
      <trkpt lat="43.2321" lon="5.77059">
        <ele>179.19999694824</ele>
        <time>2018-04-02T14:33:51.000Z</time>
      </trkpt>
      <trkpt lat="43.2322" lon="5.77072">
        <ele>180.80000305176</ele>
        <time>2018-04-02T14:33:55.000Z</time>
      </trkpt>
      <trkpt lat="43.23221" lon="5.77096">
        <ele>182.60000610352</ele>
        <time>2018-04-02T14:33:59.000Z</time>
      </trkpt>
      <trkpt lat="43.2322" lon="5.77102">
        <ele>182.80000305176</ele>
        <time>2018-04-02T14:34:00.000Z</time>
      </trkpt>
      <trkpt lat="43.23215" lon="5.77141">
        <ele>183.80000305176</ele>
        <time>2018-04-02T14:34:06.000Z</time>
      </trkpt>
      <trkpt lat="43.23213" lon="5.77159">
        <ele>184.80000305176</ele>
        <time>2018-04-02T14:34:09.000Z</time>
      </trkpt>
      <trkpt lat="43.23217" lon="5.77174">
        <ele>186.19999694824</ele>
        <time>2018-04-02T14:34:12.000Z</time>
      </trkpt>
      <trkpt lat="43.23225" lon="5.77195">
        <ele>188</ele>
        <time>2018-04-02T14:34:16.000Z</time>
      </trkpt>
      <trkpt lat="43.23226" lon="5.77202">
        <ele>188.39999389648</ele>
        <time>2018-04-02T14:34:17.000Z</time>
      </trkpt>
      <trkpt lat="43.23228" lon="5.7722">
        <ele>189</ele>
        <time>2018-04-02T14:34:19.000Z</time>
      </trkpt>
      <trkpt lat="43.23227" lon="5.77247">
        <ele>188.60000610352</ele>
        <time>2018-04-02T14:34:22.000Z</time>
      </trkpt>
      <trkpt lat="43.23227" lon="5.77256">
        <ele>188.60000610352</ele>
        <time>2018-04-02T14:34:23.000Z</time>
      </trkpt>
      <trkpt lat="43.23228" lon="5.77265">
        <ele>188.60000610352</ele>
        <time>2018-04-02T14:34:24.000Z</time>
      </trkpt>
      <trkpt lat="43.23229" lon="5.77299">
        <ele>188.60000610352</ele>
        <time>2018-04-02T14:34:28.000Z</time>
      </trkpt>
      <trkpt lat="43.23229" lon="5.77315">
        <ele>188.19999694824</ele>
        <time>2018-04-02T14:34:30.000Z</time>
      </trkpt>
      <trkpt lat="43.2323" lon="5.7735">
        <ele>187.19999694824</ele>
        <time>2018-04-02T14:34:35.000Z</time>
      </trkpt>
      <trkpt lat="43.23229" lon="5.77364">
        <ele>187</ele>
        <time>2018-04-02T14:34:37.000Z</time>
      </trkpt>
      <trkpt lat="43.23227" lon="5.77387">
        <ele>187.39999389648</ele>
        <time>2018-04-02T14:34:40.000Z</time>
      </trkpt>
      <trkpt lat="43.23226" lon="5.77395">
        <ele>187.60000610352</ele>
        <time>2018-04-02T14:34:41.000Z</time>
      </trkpt>
      <trkpt lat="43.23217" lon="5.77413">
        <ele>187.60000610352</ele>
        <time>2018-04-02T14:34:44.000Z</time>
      </trkpt>
      <trkpt lat="43.23202" lon="5.77415">
        <ele>186.60000610352</ele>
        <time>2018-04-02T14:34:47.000Z</time>
      </trkpt>
      <trkpt lat="43.23187" lon="5.77417">
        <ele>185.60000610352</ele>
        <time>2018-04-02T14:34:50.000Z</time>
      </trkpt>
      <trkpt lat="43.23179" lon="5.77424">
        <ele>185.39999389648</ele>
        <time>2018-04-02T14:34:52.000Z</time>
      </trkpt>
      <trkpt lat="43.23175" lon="5.77435">
        <ele>185.80000305176</ele>
        <time>2018-04-02T14:34:54.000Z</time>
      </trkpt>
      <trkpt lat="43.23171" lon="5.7745">
        <ele>186.39999389648</ele>
        <time>2018-04-02T14:34:56.000Z</time>
      </trkpt>
      <trkpt lat="43.23157" lon="5.775">
        <ele>187.39999389648</ele>
        <time>2018-04-02T14:35:02.000Z</time>
      </trkpt>
      <trkpt lat="43.23136" lon="5.77568">
        <ele>191.19999694824</ele>
        <time>2018-04-02T14:35:11.000Z</time>
      </trkpt>
      <trkpt lat="43.23131" lon="5.77585">
        <ele>191.39999389648</ele>
        <time>2018-04-02T14:35:14.000Z</time>
      </trkpt>
      <trkpt lat="43.23131" lon="5.7759">
        <ele>191.39999389648</ele>
        <time>2018-04-02T14:35:15.000Z</time>
      </trkpt>
      <trkpt lat="43.23134" lon="5.77603">
        <ele>191.39999389648</ele>
        <time>2018-04-02T14:35:18.000Z</time>
      </trkpt>
      <trkpt lat="43.23137" lon="5.77606">
        <ele>191.19999694824</ele>
        <time>2018-04-02T14:35:19.000Z</time>
      </trkpt>
      <trkpt lat="43.2314" lon="5.77609">
        <ele>191</ele>
        <time>2018-04-02T14:35:20.000Z</time>
      </trkpt>
      <trkpt lat="43.23144" lon="5.7762">
        <ele>191</ele>
        <time>2018-04-02T14:35:23.000Z</time>
      </trkpt>
      <trkpt lat="43.23134" lon="5.77629">
        <ele>192.19999694824</ele>
        <time>2018-04-02T14:35:26.000Z</time>
      </trkpt>
      <trkpt lat="43.2313" lon="5.77631">
        <ele>192.60000610352</ele>
        <time>2018-04-02T14:35:27.000Z</time>
      </trkpt>
      <trkpt lat="43.23123" lon="5.77638">
        <ele>193.39999389648</ele>
        <time>2018-04-02T14:35:30.000Z</time>
      </trkpt>
      <trkpt lat="43.23121" lon="5.7765">
        <ele>193.80000305176</ele>
        <time>2018-04-02T14:35:34.000Z</time>
      </trkpt>
      <trkpt lat="43.23123" lon="5.7766">
        <ele>193.80000305176</ele>
        <time>2018-04-02T14:35:36.000Z</time>
      </trkpt>
      <trkpt lat="43.23129" lon="5.77671">
        <ele>193.60000610352</ele>
        <time>2018-04-02T14:35:38.000Z</time>
      </trkpt>
      <trkpt lat="43.23136" lon="5.77682">
        <ele>193.39999389648</ele>
        <time>2018-04-02T14:35:40.000Z</time>
      </trkpt>
      <trkpt lat="43.23149" lon="5.77707">
        <ele>193.19999694824</ele>
        <time>2018-04-02T14:35:44.000Z</time>
      </trkpt>
      <trkpt lat="43.23159" lon="5.77725">
        <ele>193</ele>
        <time>2018-04-02T14:35:47.000Z</time>
      </trkpt>
      <trkpt lat="43.23164" lon="5.77728">
        <ele>192.60000610352</ele>
        <time>2018-04-02T14:35:48.000Z</time>
      </trkpt>
      <trkpt lat="43.23169" lon="5.77729">
        <ele>192</ele>
        <time>2018-04-02T14:35:49.000Z</time>
      </trkpt>
      <trkpt lat="43.23179" lon="5.77731">
        <ele>191</ele>
        <time>2018-04-02T14:35:51.000Z</time>
      </trkpt>
      <trkpt lat="43.23183" lon="5.77732">
        <ele>190.80000305176</ele>
        <time>2018-04-02T14:35:52.000Z</time>
      </trkpt>
      <trkpt lat="43.23188" lon="5.77734">
        <ele>190.60000610352</ele>
        <time>2018-04-02T14:35:53.000Z</time>
      </trkpt>
      <trkpt lat="43.23195" lon="5.77739">
        <ele>190.60000610352</ele>
        <time>2018-04-02T14:35:55.000Z</time>
      </trkpt>
      <trkpt lat="43.23202" lon="5.77744">
        <ele>190.60000610352</ele>
        <time>2018-04-02T14:35:57.000Z</time>
      </trkpt>
      <trkpt lat="43.23207" lon="5.77752">
        <ele>191</ele>
        <time>2018-04-02T14:35:59.000Z</time>
      </trkpt>
      <trkpt lat="43.2321" lon="5.7776">
        <ele>191.60000610352</ele>
        <time>2018-04-02T14:36:01.000Z</time>
      </trkpt>
      <trkpt lat="43.23214" lon="5.77778">
        <ele>192.80000305176</ele>
        <time>2018-04-02T14:36:04.000Z</time>
      </trkpt>
      <trkpt lat="43.23223" lon="5.77812">
        <ele>194.80000305176</ele>
        <time>2018-04-02T14:36:09.000Z</time>
      </trkpt>
      <trkpt lat="43.23226" lon="5.77819">
        <ele>194.60000610352</ele>
        <time>2018-04-02T14:36:10.000Z</time>
      </trkpt>
      <trkpt lat="43.23232" lon="5.77833">
        <ele>194.19999694824</ele>
        <time>2018-04-02T14:36:12.000Z</time>
      </trkpt>
      <trkpt lat="43.23245" lon="5.77862">
        <ele>193.19999694824</ele>
        <time>2018-04-02T14:36:16.000Z</time>
      </trkpt>
      <trkpt lat="43.23249" lon="5.77875">
        <ele>193</ele>
        <time>2018-04-02T14:36:18.000Z</time>
      </trkpt>
      <trkpt lat="43.2325" lon="5.77887">
        <ele>193.80000305176</ele>
        <time>2018-04-02T14:36:20.000Z</time>
      </trkpt>
      <trkpt lat="43.23248" lon="5.77899">
        <ele>195</ele>
        <time>2018-04-02T14:36:22.000Z</time>
      </trkpt>
      <trkpt lat="43.23244" lon="5.77916">
        <ele>196.60000610352</ele>
        <time>2018-04-02T14:36:25.000Z</time>
      </trkpt>
      <trkpt lat="43.23243" lon="5.77922">
        <ele>197</ele>
        <time>2018-04-02T14:36:26.000Z</time>
      </trkpt>
      <trkpt lat="43.23236" lon="5.77962">
        <ele>201</ele>
        <time>2018-04-02T14:36:32.000Z</time>
      </trkpt>
      <trkpt lat="43.23233" lon="5.77976">
        <ele>202.39999389648</ele>
        <time>2018-04-02T14:36:34.000Z</time>
      </trkpt>
      <trkpt lat="43.23231" lon="5.7799">
        <ele>203.60000610352</ele>
        <time>2018-04-02T14:36:36.000Z</time>
      </trkpt>
      <trkpt lat="43.23226" lon="5.78026">
        <ele>206.19999694824</ele>
        <time>2018-04-02T14:36:41.000Z</time>
      </trkpt>
      <trkpt lat="43.23224" lon="5.78034">
        <ele>206.60000610352</ele>
        <time>2018-04-02T14:36:42.000Z</time>
      </trkpt>
      <trkpt lat="43.23219" lon="5.78055">
        <ele>208.39999389648</ele>
        <time>2018-04-02T14:36:45.000Z</time>
      </trkpt>
      <trkpt lat="43.23214" lon="5.78067">
        <ele>209.19999694824</ele>
        <time>2018-04-02T14:36:47.000Z</time>
      </trkpt>
      <trkpt lat="43.23198" lon="5.78105">
        <ele>212.80000305176</ele>
        <time>2018-04-02T14:36:53.000Z</time>
      </trkpt>
      <trkpt lat="43.23198" lon="5.78135">
        <ele>214</ele>
        <time>2018-04-02T14:36:57.000Z</time>
      </trkpt>
      <trkpt lat="43.23214" lon="5.78195">
        <ele>210.80000305176</ele>
        <time>2018-04-02T14:37:05.000Z</time>
      </trkpt>
      <trkpt lat="43.23218" lon="5.7821">
        <ele>209.60000610352</ele>
        <time>2018-04-02T14:37:07.000Z</time>
      </trkpt>
      <trkpt lat="43.23222" lon="5.78224">
        <ele>208.80000305176</ele>
        <time>2018-04-02T14:37:09.000Z</time>
      </trkpt>
      <trkpt lat="43.23224" lon="5.78237">
        <ele>208.39999389648</ele>
        <time>2018-04-02T14:37:11.000Z</time>
      </trkpt>
      <trkpt lat="43.23225" lon="5.78243">
        <ele>208.19999694824</ele>
        <time>2018-04-02T14:37:12.000Z</time>
      </trkpt>
      <trkpt lat="43.23227" lon="5.78262">
        <ele>207.80000305176</ele>
        <time>2018-04-02T14:37:15.000Z</time>
      </trkpt>
      <trkpt lat="43.23228" lon="5.78274">
        <ele>207.80000305176</ele>
        <time>2018-04-02T14:37:17.000Z</time>
      </trkpt>
      <trkpt lat="43.23227" lon="5.7828">
        <ele>208</ele>
        <time>2018-04-02T14:37:18.000Z</time>
      </trkpt>
      <trkpt lat="43.23225" lon="5.783">
        <ele>208.60000610352</ele>
        <time>2018-04-02T14:37:21.000Z</time>
      </trkpt>
      <trkpt lat="43.23223" lon="5.78318">
        <ele>210</ele>
        <time>2018-04-02T14:37:24.000Z</time>
      </trkpt>
      <trkpt lat="43.23222" lon="5.7833">
        <ele>210.80000305176</ele>
        <time>2018-04-02T14:37:26.000Z</time>
      </trkpt>
      <trkpt lat="43.23222" lon="5.78336">
        <ele>211</ele>
        <time>2018-04-02T14:37:27.000Z</time>
      </trkpt>
      <trkpt lat="43.23223" lon="5.78353">
        <ele>211.80000305176</ele>
        <time>2018-04-02T14:37:30.000Z</time>
      </trkpt>
      <trkpt lat="43.23224" lon="5.7837">
        <ele>212.19999694824</ele>
        <time>2018-04-02T14:37:33.000Z</time>
      </trkpt>
      <trkpt lat="43.23224" lon="5.78395">
        <ele>213</ele>
        <time>2018-04-02T14:37:37.000Z</time>
      </trkpt>
      <trkpt lat="43.23225" lon="5.78421">
        <ele>215</ele>
        <time>2018-04-02T14:37:41.000Z</time>
      </trkpt>
      <trkpt lat="43.23226" lon="5.78428">
        <ele>215.60000610352</ele>
        <time>2018-04-02T14:37:42.000Z</time>
      </trkpt>
      <trkpt lat="43.23225" lon="5.78468">
        <ele>216.60000610352</ele>
        <time>2018-04-02T14:37:48.000Z</time>
      </trkpt>
      <trkpt lat="43.23224" lon="5.7848">
        <ele>217.19999694824</ele>
        <time>2018-04-02T14:37:50.000Z</time>
      </trkpt>
      <trkpt lat="43.23222" lon="5.78485">
        <ele>217.60000610352</ele>
        <time>2018-04-02T14:37:51.000Z</time>
      </trkpt>
      <trkpt lat="43.23217" lon="5.78501">
        <ele>218.60000610352</ele>
        <time>2018-04-02T14:37:54.000Z</time>
      </trkpt>
      <trkpt lat="43.23214" lon="5.78512">
        <ele>219.19999694824</ele>
        <time>2018-04-02T14:37:56.000Z</time>
      </trkpt>
      <trkpt lat="43.23213" lon="5.78539">
        <ele>219.19999694824</ele>
        <time>2018-04-02T14:38:00.000Z</time>
      </trkpt>
      <trkpt lat="43.23212" lon="5.78545">
        <ele>219.19999694824</ele>
        <time>2018-04-02T14:38:01.000Z</time>
      </trkpt>
      <trkpt lat="43.23212" lon="5.78552">
        <ele>219.19999694824</ele>
        <time>2018-04-02T14:38:02.000Z</time>
      </trkpt>
      <trkpt lat="43.23211" lon="5.78558">
        <ele>219.39999389648</ele>
        <time>2018-04-02T14:38:03.000Z</time>
      </trkpt>
      <trkpt lat="43.23208" lon="5.78571">
        <ele>219.80000305176</ele>
        <time>2018-04-02T14:38:05.000Z</time>
      </trkpt>
      <trkpt lat="43.23206" lon="5.78585">
        <ele>220.39999389648</ele>
        <time>2018-04-02T14:38:07.000Z</time>
      </trkpt>
      <trkpt lat="43.23205" lon="5.78591">
        <ele>220.39999389648</ele>
        <time>2018-04-02T14:38:08.000Z</time>
      </trkpt>
      <trkpt lat="43.23201" lon="5.78619">
        <ele>220.19999694824</ele>
        <time>2018-04-02T14:38:12.000Z</time>
      </trkpt>
      <trkpt lat="43.23198" lon="5.78645">
        <ele>220.60000610352</ele>
        <time>2018-04-02T14:38:16.000Z</time>
      </trkpt>
      <trkpt lat="43.23194" lon="5.78666">
        <ele>221.19999694824</ele>
        <time>2018-04-02T14:38:19.000Z</time>
      </trkpt>
      <trkpt lat="43.23189" lon="5.78694">
        <ele>221.80000305176</ele>
        <time>2018-04-02T14:38:23.000Z</time>
      </trkpt>
      <trkpt lat="43.23188" lon="5.78701">
        <ele>221.80000305176</ele>
        <time>2018-04-02T14:38:24.000Z</time>
      </trkpt>
      <trkpt lat="43.23184" lon="5.78723">
        <ele>222.19999694824</ele>
        <time>2018-04-02T14:38:27.000Z</time>
      </trkpt>
      <trkpt lat="43.23175" lon="5.78758">
        <ele>224.80000305176</ele>
        <time>2018-04-02T14:38:32.000Z</time>
      </trkpt>
      <trkpt lat="43.23169" lon="5.78778">
        <ele>226.19999694824</ele>
        <time>2018-04-02T14:38:35.000Z</time>
      </trkpt>
      <trkpt lat="43.23164" lon="5.78797">
        <ele>227.39999389648</ele>
        <time>2018-04-02T14:38:38.000Z</time>
      </trkpt>
      <trkpt lat="43.23161" lon="5.78806">
        <ele>227.39999389648</ele>
        <time>2018-04-02T14:38:40.000Z</time>
      </trkpt>
      <trkpt lat="43.23158" lon="5.78809">
        <ele>227.39999389648</ele>
        <time>2018-04-02T14:38:41.000Z</time>
      </trkpt>
      <trkpt lat="43.23152" lon="5.78811">
        <ele>227.39999389648</ele>
        <time>2018-04-02T14:38:43.000Z</time>
      </trkpt>
      <trkpt lat="43.23143" lon="5.7881">
        <ele>227</ele>
        <time>2018-04-02T14:38:45.000Z</time>
      </trkpt>
      <trkpt lat="43.23131" lon="5.78808">
        <ele>226.39999389648</ele>
        <time>2018-04-02T14:38:47.000Z</time>
      </trkpt>
      <trkpt lat="43.23124" lon="5.78807">
        <ele>226.19999694824</ele>
        <time>2018-04-02T14:38:48.000Z</time>
      </trkpt>
      <trkpt lat="43.23111" lon="5.78805">
        <ele>225.60000610352</ele>
        <time>2018-04-02T14:38:50.000Z</time>
      </trkpt>
      <trkpt lat="43.23097" lon="5.78803">
        <ele>225</ele>
        <time>2018-04-02T14:38:52.000Z</time>
      </trkpt>
      <trkpt lat="43.23085" lon="5.78801">
        <ele>224.39999389648</ele>
        <time>2018-04-02T14:38:54.000Z</time>
      </trkpt>
      <trkpt lat="43.23067" lon="5.78799">
        <ele>223.19999694824</ele>
        <time>2018-04-02T14:38:57.000Z</time>
      </trkpt>
      <trkpt lat="43.23045" lon="5.78795">
        <ele>221.80000305176</ele>
        <time>2018-04-02T14:39:01.000Z</time>
      </trkpt>
      <trkpt lat="43.23022" lon="5.78788">
        <ele>220.19999694824</ele>
        <time>2018-04-02T14:39:06.000Z</time>
      </trkpt>
      <trkpt lat="43.23019" lon="5.78784">
        <ele>220.19999694824</ele>
        <time>2018-04-02T14:39:07.000Z</time>
      </trkpt>
      <trkpt lat="43.23018" lon="5.78766">
        <ele>220.80000305176</ele>
        <time>2018-04-02T14:39:10.000Z</time>
      </trkpt>
      <trkpt lat="43.23017" lon="5.78759">
        <ele>221</ele>
        <time>2018-04-02T14:39:11.000Z</time>
      </trkpt>
      <trkpt lat="43.23012" lon="5.78735">
        <ele>221.39999389648</ele>
        <time>2018-04-02T14:39:15.000Z</time>
      </trkpt>
      <trkpt lat="43.23005" lon="5.7873">
        <ele>220.80000305176</ele>
        <time>2018-04-02T14:39:18.000Z</time>
      </trkpt>
      <trkpt lat="43.22993" lon="5.78736">
        <ele>219</ele>
        <time>2018-04-02T14:39:21.000Z</time>
      </trkpt>
      <trkpt lat="43.22988" lon="5.78739">
        <ele>218.19999694824</ele>
        <time>2018-04-02T14:39:22.000Z</time>
      </trkpt>
      <trkpt lat="43.22964" lon="5.78749">
        <ele>214.60000610352</ele>
        <time>2018-04-02T14:39:26.000Z</time>
      </trkpt>
      <trkpt lat="43.22958" lon="5.78752">
        <ele>213.80000305176</ele>
        <time>2018-04-02T14:39:27.000Z</time>
      </trkpt>
      <trkpt lat="43.22953" lon="5.78754">
        <ele>213.19999694824</ele>
        <time>2018-04-02T14:39:28.000Z</time>
      </trkpt>
      <trkpt lat="43.22945" lon="5.78759">
        <ele>212.39999389648</ele>
        <time>2018-04-02T14:39:30.000Z</time>
      </trkpt>
      <trkpt lat="43.22942" lon="5.78761">
        <ele>212</ele>
        <time>2018-04-02T14:39:31.000Z</time>
      </trkpt>
      <trkpt lat="43.2293" lon="5.78764">
        <ele>210.60000610352</ele>
        <time>2018-04-02T14:39:34.000Z</time>
      </trkpt>
      <trkpt lat="43.22926" lon="5.78765">
        <ele>210.39999389648</ele>
        <time>2018-04-02T14:39:35.000Z</time>
      </trkpt>
      <trkpt lat="43.22921" lon="5.78766">
        <ele>210</ele>
        <time>2018-04-02T14:39:36.000Z</time>
      </trkpt>
      <trkpt lat="43.22916" lon="5.78769">
        <ele>209.60000610352</ele>
        <time>2018-04-02T14:39:37.000Z</time>
      </trkpt>
      <trkpt lat="43.22906" lon="5.78775">
        <ele>209</ele>
        <time>2018-04-02T14:39:39.000Z</time>
      </trkpt>
      <trkpt lat="43.229" lon="5.78779">
        <ele>208.60000610352</ele>
        <time>2018-04-02T14:39:40.000Z</time>
      </trkpt>
      <trkpt lat="43.22871" lon="5.788">
        <ele>207.19999694824</ele>
        <time>2018-04-02T14:39:45.000Z</time>
      </trkpt>
      <trkpt lat="43.22866" lon="5.78804">
        <ele>207</ele>
        <time>2018-04-02T14:39:46.000Z</time>
      </trkpt>
      <trkpt lat="43.22854" lon="5.78812">
        <ele>206.39999389648</ele>
        <time>2018-04-02T14:39:48.000Z</time>
      </trkpt>
      <trkpt lat="43.22835" lon="5.78823">
        <ele>204</ele>
        <time>2018-04-02T14:39:51.000Z</time>
      </trkpt>
      <trkpt lat="43.22828" lon="5.78828">
        <ele>203.19999694824</ele>
        <time>2018-04-02T14:39:52.000Z</time>
      </trkpt>
      <trkpt lat="43.22815" lon="5.78836">
        <ele>201.60000610352</ele>
        <time>2018-04-02T14:39:54.000Z</time>
      </trkpt>
      <trkpt lat="43.22795" lon="5.78849">
        <ele>199.80000305176</ele>
        <time>2018-04-02T14:39:57.000Z</time>
      </trkpt>
      <trkpt lat="43.22788" lon="5.78853">
        <ele>199.80000305176</ele>
        <time>2018-04-02T14:39:58.000Z</time>
      </trkpt>
      <trkpt lat="43.22774" lon="5.7886">
        <ele>199.60000610352</ele>
        <time>2018-04-02T14:40:00.000Z</time>
      </trkpt>
      <trkpt lat="43.22753" lon="5.7887">
        <ele>198.60000610352</ele>
        <time>2018-04-02T14:40:03.000Z</time>
      </trkpt>
      <trkpt lat="43.22738" lon="5.78877">
        <ele>197.80000305176</ele>
        <time>2018-04-02T14:40:05.000Z</time>
      </trkpt>
      <trkpt lat="43.22731" lon="5.78881">
        <ele>197.60000610352</ele>
        <time>2018-04-02T14:40:06.000Z</time>
      </trkpt>
      <trkpt lat="43.22716" lon="5.78889">
        <ele>197.19999694824</ele>
        <time>2018-04-02T14:40:08.000Z</time>
      </trkpt>
      <trkpt lat="43.22702" lon="5.78897">
        <ele>196.39999389648</ele>
        <time>2018-04-02T14:40:10.000Z</time>
      </trkpt>
      <trkpt lat="43.22689" lon="5.78906">
        <ele>195.60000610352</ele>
        <time>2018-04-02T14:40:12.000Z</time>
      </trkpt>
      <trkpt lat="43.22677" lon="5.78915">
        <ele>194.80000305176</ele>
        <time>2018-04-02T14:40:14.000Z</time>
      </trkpt>
      <trkpt lat="43.22665" lon="5.78924">
        <ele>194</ele>
        <time>2018-04-02T14:40:16.000Z</time>
      </trkpt>
      <trkpt lat="43.22651" lon="5.78929">
        <ele>193</ele>
        <time>2018-04-02T14:40:18.000Z</time>
      </trkpt>
      <trkpt lat="43.22636" lon="5.78932">
        <ele>192</ele>
        <time>2018-04-02T14:40:20.000Z</time>
      </trkpt>
      <trkpt lat="43.22621" lon="5.78936">
        <ele>191</ele>
        <time>2018-04-02T14:40:22.000Z</time>
      </trkpt>
      <trkpt lat="43.22606" lon="5.78939">
        <ele>190.19999694824</ele>
        <time>2018-04-02T14:40:24.000Z</time>
      </trkpt>
      <trkpt lat="43.22591" lon="5.78942">
        <ele>189.60000610352</ele>
        <time>2018-04-02T14:40:26.000Z</time>
      </trkpt>
      <trkpt lat="43.22575" lon="5.78946">
        <ele>189.39999389648</ele>
        <time>2018-04-02T14:40:28.000Z</time>
      </trkpt>
      <trkpt lat="43.22561" lon="5.7895">
        <ele>188.80000305176</ele>
        <time>2018-04-02T14:40:30.000Z</time>
      </trkpt>
      <trkpt lat="43.22548" lon="5.78953">
        <ele>188.19999694824</ele>
        <time>2018-04-02T14:40:32.000Z</time>
      </trkpt>
      <trkpt lat="43.22543" lon="5.78953">
        <ele>188</ele>
        <time>2018-04-02T14:40:33.000Z</time>
      </trkpt>
      <trkpt lat="43.22537" lon="5.78952">
        <ele>187.60000610352</ele>
        <time>2018-04-02T14:40:34.000Z</time>
      </trkpt>
      <trkpt lat="43.22532" lon="5.78949">
        <ele>187.60000610352</ele>
        <time>2018-04-02T14:40:35.000Z</time>
      </trkpt>
      <trkpt lat="43.22517" lon="5.78936">
        <ele>187</ele>
        <time>2018-04-02T14:40:38.000Z</time>
      </trkpt>
      <trkpt lat="43.22511" lon="5.78933">
        <ele>186.80000305176</ele>
        <time>2018-04-02T14:40:39.000Z</time>
      </trkpt>
      <trkpt lat="43.22499" lon="5.78927">
        <ele>185.60000610352</ele>
        <time>2018-04-02T14:40:41.000Z</time>
      </trkpt>
      <trkpt lat="43.22487" lon="5.78924">
        <ele>184.39999389648</ele>
        <time>2018-04-02T14:40:43.000Z</time>
      </trkpt>
      <trkpt lat="43.22473" lon="5.78927">
        <ele>182.80000305176</ele>
        <time>2018-04-02T14:40:45.000Z</time>
      </trkpt>
      <trkpt lat="43.22459" lon="5.78933">
        <ele>182.19999694824</ele>
        <time>2018-04-02T14:40:47.000Z</time>
      </trkpt>
      <trkpt lat="43.22451" lon="5.78937">
        <ele>182.19999694824</ele>
        <time>2018-04-02T14:40:48.000Z</time>
      </trkpt>
      <trkpt lat="43.22433" lon="5.78955">
        <ele>182.39999389648</ele>
        <time>2018-04-02T14:40:51.000Z</time>
      </trkpt>
      <trkpt lat="43.22417" lon="5.78975">
        <ele>181.60000610352</ele>
        <time>2018-04-02T14:40:54.000Z</time>
      </trkpt>
      <trkpt lat="43.22412" lon="5.7898">
        <ele>181.19999694824</ele>
        <time>2018-04-02T14:40:55.000Z</time>
      </trkpt>
      <trkpt lat="43.22407" lon="5.78984">
        <ele>180.80000305176</ele>
        <time>2018-04-02T14:40:56.000Z</time>
      </trkpt>
      <trkpt lat="43.22395" lon="5.78993">
        <ele>179.80000305176</ele>
        <time>2018-04-02T14:40:58.000Z</time>
      </trkpt>
      <trkpt lat="43.22389" lon="5.78996">
        <ele>179</ele>
        <time>2018-04-02T14:40:59.000Z</time>
      </trkpt>
      <trkpt lat="43.22375" lon="5.79">
        <ele>177.60000610352</ele>
        <time>2018-04-02T14:41:01.000Z</time>
      </trkpt>
      <trkpt lat="43.22353" lon="5.79004">
        <ele>176</ele>
        <time>2018-04-02T14:41:04.000Z</time>
      </trkpt>
      <trkpt lat="43.22346" lon="5.79004">
        <ele>175.39999389648</ele>
        <time>2018-04-02T14:41:05.000Z</time>
      </trkpt>
      <trkpt lat="43.22339" lon="5.79004">
        <ele>175</ele>
        <time>2018-04-02T14:41:06.000Z</time>
      </trkpt>
      <trkpt lat="43.22333" lon="5.79001">
        <ele>174.39999389648</ele>
        <time>2018-04-02T14:41:07.000Z</time>
      </trkpt>
      <trkpt lat="43.22323" lon="5.78993">
        <ele>173.19999694824</ele>
        <time>2018-04-02T14:41:09.000Z</time>
      </trkpt>
      <trkpt lat="43.22314" lon="5.7898">
        <ele>171.80000305176</ele>
        <time>2018-04-02T14:41:11.000Z</time>
      </trkpt>
      <trkpt lat="43.22306" lon="5.78962">
        <ele>170</ele>
        <time>2018-04-02T14:41:13.000Z</time>
      </trkpt>
      <trkpt lat="43.22301" lon="5.78953">
        <ele>169.19999694824</ele>
        <time>2018-04-02T14:41:14.000Z</time>
      </trkpt>
      <trkpt lat="43.2229" lon="5.78933">
        <ele>167.39999389648</ele>
        <time>2018-04-02T14:41:16.000Z</time>
      </trkpt>
      <trkpt lat="43.22284" lon="5.78923">
        <ele>166.39999389648</ele>
        <time>2018-04-02T14:41:17.000Z</time>
      </trkpt>
      <trkpt lat="43.22279" lon="5.78913">
        <ele>165.60000610352</ele>
        <time>2018-04-02T14:41:18.000Z</time>
      </trkpt>
      <trkpt lat="43.22269" lon="5.78892">
        <ele>163.80000305176</ele>
        <time>2018-04-02T14:41:20.000Z</time>
      </trkpt>
      <trkpt lat="43.22264" lon="5.78883">
        <ele>163.39999389648</ele>
        <time>2018-04-02T14:41:21.000Z</time>
      </trkpt>
      <trkpt lat="43.22258" lon="5.78875">
        <ele>163.39999389648</ele>
        <time>2018-04-02T14:41:22.000Z</time>
      </trkpt>
      <trkpt lat="43.22244" lon="5.78867">
        <ele>162.80000305176</ele>
        <time>2018-04-02T14:41:24.000Z</time>
      </trkpt>
      <trkpt lat="43.22237" lon="5.78867">
        <ele>162.19999694824</ele>
        <time>2018-04-02T14:41:25.000Z</time>
      </trkpt>
      <trkpt lat="43.22224" lon="5.78872">
        <ele>161</ele>
        <time>2018-04-02T14:41:27.000Z</time>
      </trkpt>
      <trkpt lat="43.22217" lon="5.78874">
        <ele>160.39999389648</ele>
        <time>2018-04-02T14:41:28.000Z</time>
      </trkpt>
      <trkpt lat="43.22194" lon="5.7888">
        <ele>158.60000610352</ele>
        <time>2018-04-02T14:41:31.000Z</time>
      </trkpt>
      <trkpt lat="43.22187" lon="5.78879">
        <ele>158</ele>
        <time>2018-04-02T14:41:32.000Z</time>
      </trkpt>
      <trkpt lat="43.22181" lon="5.78875">
        <ele>157.80000305176</ele>
        <time>2018-04-02T14:41:33.000Z</time>
      </trkpt>
      <trkpt lat="43.22171" lon="5.78863">
        <ele>158</ele>
        <time>2018-04-02T14:41:35.000Z</time>
      </trkpt>
      <trkpt lat="43.22167" lon="5.78856">
        <ele>158.19999694824</ele>
        <time>2018-04-02T14:41:36.000Z</time>
      </trkpt>
      <trkpt lat="43.22159" lon="5.78841">
        <ele>158.60000610352</ele>
        <time>2018-04-02T14:41:38.000Z</time>
      </trkpt>
      <trkpt lat="43.22151" lon="5.78828">
        <ele>158.80000305176</ele>
        <time>2018-04-02T14:41:40.000Z</time>
      </trkpt>
      <trkpt lat="43.22141" lon="5.78817">
        <ele>159</ele>
        <time>2018-04-02T14:41:42.000Z</time>
      </trkpt>
      <trkpt lat="43.2213" lon="5.78808">
        <ele>159.19999694824</ele>
        <time>2018-04-02T14:41:44.000Z</time>
      </trkpt>
      <trkpt lat="43.22125" lon="5.78804">
        <ele>159</ele>
        <time>2018-04-02T14:41:45.000Z</time>
      </trkpt>
      <trkpt lat="43.22113" lon="5.788">
        <ele>158.39999389648</ele>
        <time>2018-04-02T14:41:47.000Z</time>
      </trkpt>
      <trkpt lat="43.22081" lon="5.78792">
        <ele>156.80000305176</ele>
        <time>2018-04-02T14:41:52.000Z</time>
      </trkpt>
      <trkpt lat="43.2205" lon="5.78789">
        <ele>154.80000305176</ele>
        <time>2018-04-02T14:41:56.000Z</time>
      </trkpt>
      <trkpt lat="43.22033" lon="5.78786">
        <ele>153.80000305176</ele>
        <time>2018-04-02T14:41:58.000Z</time>
      </trkpt>
      <trkpt lat="43.22016" lon="5.7878">
        <ele>152.60000610352</ele>
        <time>2018-04-02T14:42:00.000Z</time>
      </trkpt>
      <trkpt lat="43.21999" lon="5.7877">
        <ele>151.80000305176</ele>
        <time>2018-04-02T14:42:02.000Z</time>
      </trkpt>
      <trkpt lat="43.21982" lon="5.78761">
        <ele>151.19999694824</ele>
        <time>2018-04-02T14:42:04.000Z</time>
      </trkpt>
      <trkpt lat="43.21964" lon="5.78755">
        <ele>150.60000610352</ele>
        <time>2018-04-02T14:42:06.000Z</time>
      </trkpt>
      <trkpt lat="43.21947" lon="5.78747">
        <ele>150</ele>
        <time>2018-04-02T14:42:08.000Z</time>
      </trkpt>
      <trkpt lat="43.21933" lon="5.78737">
        <ele>149.39999389648</ele>
        <time>2018-04-02T14:42:10.000Z</time>
      </trkpt>
      <trkpt lat="43.21926" lon="5.78732">
        <ele>149</ele>
        <time>2018-04-02T14:42:11.000Z</time>
      </trkpt>
      <trkpt lat="43.21909" lon="5.7872">
        <ele>148.39999389648</ele>
        <time>2018-04-02T14:42:14.000Z</time>
      </trkpt>
      <trkpt lat="43.21903" lon="5.78717">
        <ele>148.19999694824</ele>
        <time>2018-04-02T14:42:15.000Z</time>
      </trkpt>
      <trkpt lat="43.21885" lon="5.78709">
        <ele>147.60000610352</ele>
        <time>2018-04-02T14:42:18.000Z</time>
      </trkpt>
      <trkpt lat="43.21866" lon="5.78702">
        <ele>147</ele>
        <time>2018-04-02T14:42:21.000Z</time>
      </trkpt>
      <trkpt lat="43.21844" lon="5.78693">
        <ele>146.19999694824</ele>
        <time>2018-04-02T14:42:24.000Z</time>
      </trkpt>
      <trkpt lat="43.21818" lon="5.78684">
        <ele>145.39999389648</ele>
        <time>2018-04-02T14:42:27.000Z</time>
      </trkpt>
      <trkpt lat="43.218" lon="5.78675">
        <ele>144.80000305176</ele>
        <time>2018-04-02T14:42:29.000Z</time>
      </trkpt>
      <trkpt lat="43.21782" lon="5.78666">
        <ele>144.19999694824</ele>
        <time>2018-04-02T14:42:31.000Z</time>
      </trkpt>
      <trkpt lat="43.21763" lon="5.7866">
        <ele>143.60000610352</ele>
        <time>2018-04-02T14:42:33.000Z</time>
      </trkpt>
      <trkpt lat="43.21747" lon="5.78653">
        <ele>144.19999694824</ele>
        <time>2018-04-02T14:42:35.000Z</time>
      </trkpt>
      <trkpt lat="43.21733" lon="5.78646">
        <ele>145</ele>
        <time>2018-04-02T14:42:37.000Z</time>
      </trkpt>
      <trkpt lat="43.21713" lon="5.78653">
        <ele>146.19999694824</ele>
        <time>2018-04-02T14:42:40.000Z</time>
      </trkpt>
      <trkpt lat="43.21707" lon="5.78657">
        <ele>146.80000305176</ele>
        <time>2018-04-02T14:42:41.000Z</time>
      </trkpt>
      <trkpt lat="43.2169" lon="5.78667">
        <ele>146.60000610352</ele>
        <time>2018-04-02T14:42:44.000Z</time>
      </trkpt>
      <trkpt lat="43.21684" lon="5.78668">
        <ele>146.39999389648</ele>
        <time>2018-04-02T14:42:45.000Z</time>
      </trkpt>
      <trkpt lat="43.21651" lon="5.78672">
        <ele>146.39999389648</ele>
        <time>2018-04-02T14:42:51.000Z</time>
      </trkpt>
      <trkpt lat="43.21636" lon="5.78675">
        <ele>146.39999389648</ele>
        <time>2018-04-02T14:42:54.000Z</time>
      </trkpt>
      <trkpt lat="43.21627" lon="5.78676">
        <ele>146.39999389648</ele>
        <time>2018-04-02T14:42:56.000Z</time>
      </trkpt>
      <trkpt lat="43.21622" lon="5.78678">
        <ele>146.60000610352</ele>
        <time>2018-04-02T14:42:57.000Z</time>
      </trkpt>
      <trkpt lat="43.21613" lon="5.7868">
        <ele>146.80000305176</ele>
        <time>2018-04-02T14:42:59.000Z</time>
      </trkpt>
      <trkpt lat="43.21605" lon="5.78681">
        <ele>147</ele>
        <time>2018-04-02T14:43:01.000Z</time>
      </trkpt>
      <trkpt lat="43.21601" lon="5.78683">
        <ele>147.19999694824</ele>
        <time>2018-04-02T14:43:02.000Z</time>
      </trkpt>
      <trkpt lat="43.21578" lon="5.78685">
        <ele>146.39999389648</ele>
        <time>2018-04-02T14:43:06.000Z</time>
      </trkpt>
      <trkpt lat="43.21542" lon="5.78676">
        <ele>145.19999694824</ele>
        <time>2018-04-02T14:43:11.000Z</time>
      </trkpt>
      <trkpt lat="43.21494" lon="5.78661">
        <ele>142.80000305176</ele>
        <time>2018-04-02T14:43:17.000Z</time>
      </trkpt>
      <trkpt lat="43.21478" lon="5.78657">
        <ele>141.19999694824</ele>
        <time>2018-04-02T14:43:19.000Z</time>
      </trkpt>
      <trkpt lat="43.2146" lon="5.78656">
        <ele>139.60000610352</ele>
        <time>2018-04-02T14:43:21.000Z</time>
      </trkpt>
      <trkpt lat="43.21451" lon="5.78657">
        <ele>138.80000305176</ele>
        <time>2018-04-02T14:43:22.000Z</time>
      </trkpt>
      <trkpt lat="43.21412" lon="5.78659">
        <ele>135.60000610352</ele>
        <time>2018-04-02T14:43:26.000Z</time>
      </trkpt>
      <trkpt lat="43.21403" lon="5.78657">
        <ele>134.80000305176</ele>
        <time>2018-04-02T14:43:27.000Z</time>
      </trkpt>
      <trkpt lat="43.2138" lon="5.78636">
        <ele>132.80000305176</ele>
        <time>2018-04-02T14:43:30.000Z</time>
      </trkpt>
      <trkpt lat="43.21356" lon="5.78625">
        <ele>130.80000305176</ele>
        <time>2018-04-02T14:43:33.000Z</time>
      </trkpt>
      <trkpt lat="43.2134" lon="5.78624">
        <ele>129.60000610352</ele>
        <time>2018-04-02T14:43:35.000Z</time>
      </trkpt>
      <trkpt lat="43.21325" lon="5.78623">
        <ele>128.60000610352</ele>
        <time>2018-04-02T14:43:37.000Z</time>
      </trkpt>
      <trkpt lat="43.21318" lon="5.78622">
        <ele>128</ele>
        <time>2018-04-02T14:43:38.000Z</time>
      </trkpt>
      <trkpt lat="43.21294" lon="5.78622">
        <ele>126.40000152588</ele>
        <time>2018-04-02T14:43:41.000Z</time>
      </trkpt>
      <trkpt lat="43.21281" lon="5.78623">
        <ele>125.40000152588</ele>
        <time>2018-04-02T14:43:43.000Z</time>
      </trkpt>
      <trkpt lat="43.21275" lon="5.78624">
        <ele>125</ele>
        <time>2018-04-02T14:43:44.000Z</time>
      </trkpt>
      <trkpt lat="43.21269" lon="5.78625">
        <ele>124.40000152588</ele>
        <time>2018-04-02T14:43:45.000Z</time>
      </trkpt>
      <trkpt lat="43.21256" lon="5.78627">
        <ele>123.80000305176</ele>
        <time>2018-04-02T14:43:47.000Z</time>
      </trkpt>
      <trkpt lat="43.2125" lon="5.78627">
        <ele>123.80000305176</ele>
        <time>2018-04-02T14:43:48.000Z</time>
      </trkpt>
      <trkpt lat="43.21243" lon="5.78627">
        <ele>123.59999847412</ele>
        <time>2018-04-02T14:43:49.000Z</time>
      </trkpt>
      <trkpt lat="43.21229" lon="5.78629">
        <ele>123.40000152588</ele>
        <time>2018-04-02T14:43:51.000Z</time>
      </trkpt>
      <trkpt lat="43.21222" lon="5.78631">
        <ele>123.40000152588</ele>
        <time>2018-04-02T14:43:52.000Z</time>
      </trkpt>
      <trkpt lat="43.21215" lon="5.78633">
        <ele>123.40000152588</ele>
        <time>2018-04-02T14:43:53.000Z</time>
      </trkpt>
      <trkpt lat="43.21199" lon="5.78638">
        <ele>123.19999694824</ele>
        <time>2018-04-02T14:43:55.000Z</time>
      </trkpt>
      <trkpt lat="43.21187" lon="5.78642">
        <ele>123</ele>
        <time>2018-04-02T14:43:57.000Z</time>
      </trkpt>
      <trkpt lat="43.21181" lon="5.78643">
        <ele>123.19999694824</ele>
        <time>2018-04-02T14:43:58.000Z</time>
      </trkpt>
      <trkpt lat="43.21176" lon="5.78645">
        <ele>124.40000152588</ele>
        <time>2018-04-02T14:43:59.000Z</time>
      </trkpt>
      <trkpt lat="43.21169" lon="5.78647">
        <ele>125.80000305176</ele>
        <time>2018-04-02T14:44:01.000Z</time>
      </trkpt>
      <trkpt lat="43.21166" lon="5.78649">
        <ele>126.40000152588</ele>
        <time>2018-04-02T14:44:02.000Z</time>
      </trkpt>
      <trkpt lat="43.21165" lon="5.78651">
        <ele>127</ele>
        <time>2018-04-02T14:44:03.000Z</time>
      </trkpt>
      <trkpt lat="43.21165" lon="5.78657">
        <ele>128</ele>
        <time>2018-04-02T14:44:05.000Z</time>
      </trkpt>
      <trkpt lat="43.21167" lon="5.78661">
        <ele>128.39999389648</ele>
        <time>2018-04-02T14:44:06.000Z</time>
      </trkpt>
      <trkpt lat="43.2117" lon="5.7867">
        <ele>129.19999694824</ele>
        <time>2018-04-02T14:44:08.000Z</time>
      </trkpt>
      <trkpt lat="43.21172" lon="5.78676">
        <ele>129.80000305176</ele>
        <time>2018-04-02T14:44:09.000Z</time>
      </trkpt>
      <trkpt lat="43.21173" lon="5.78681">
        <ele>130.60000610352</ele>
        <time>2018-04-02T14:44:10.000Z</time>
      </trkpt>
      <trkpt lat="43.21174" lon="5.78687">
        <ele>131.19999694824</ele>
        <time>2018-04-02T14:44:11.000Z</time>
      </trkpt>
      <trkpt lat="43.21176" lon="5.78698">
        <ele>132.80000305176</ele>
        <time>2018-04-02T14:44:13.000Z</time>
      </trkpt>
      <trkpt lat="43.21179" lon="5.78716">
        <ele>135</ele>
        <time>2018-04-02T14:44:16.000Z</time>
      </trkpt>
      <trkpt lat="43.21184" lon="5.78743">
        <ele>136.80000305176</ele>
        <time>2018-04-02T14:44:20.000Z</time>
      </trkpt>
      <trkpt lat="43.21187" lon="5.78757">
        <ele>137.60000610352</ele>
        <time>2018-04-02T14:44:22.000Z</time>
      </trkpt>
      <trkpt lat="43.2119" lon="5.7877">
        <ele>138.60000610352</ele>
        <time>2018-04-02T14:44:24.000Z</time>
      </trkpt>
      <trkpt lat="43.21196" lon="5.78793">
        <ele>139.80000305176</ele>
        <time>2018-04-02T14:44:28.000Z</time>
      </trkpt>
      <trkpt lat="43.21198" lon="5.78796">
        <ele>139.19999694824</ele>
        <time>2018-04-02T14:45:18.000Z</time>
      </trkpt>
      <trkpt lat="43.21198" lon="5.78798">
        <ele>139.39999389648</ele>
        <time>2018-04-02T14:45:19.000Z</time>
      </trkpt>
      <trkpt lat="43.21204" lon="5.78816">
        <ele>139.39999389648</ele>
        <time>2018-04-02T14:45:24.000Z</time>
      </trkpt>
      <trkpt lat="43.21208" lon="5.7883">
        <ele>139.19999694824</ele>
        <time>2018-04-02T14:45:27.000Z</time>
      </trkpt>
      <trkpt lat="43.21211" lon="5.78849">
        <ele>141.19999694824</ele>
        <time>2018-04-02T14:45:32.000Z</time>
      </trkpt>
      <trkpt lat="43.21215" lon="5.7888">
        <ele>145.80000305176</ele>
        <time>2018-04-02T14:45:39.000Z</time>
      </trkpt>
      <trkpt lat="43.21219" lon="5.78896">
        <ele>146.80000305176</ele>
        <time>2018-04-02T14:45:42.000Z</time>
      </trkpt>
      <trkpt lat="43.21225" lon="5.78906">
        <ele>145.80000305176</ele>
        <time>2018-04-02T14:45:44.000Z</time>
      </trkpt>
      <trkpt lat="43.21243" lon="5.78919">
        <ele>139</ele>
        <time>2018-04-02T14:45:48.000Z</time>
      </trkpt>
      <trkpt lat="43.21249" lon="5.78921">
        <ele>136.19999694824</ele>
        <time>2018-04-02T14:45:49.000Z</time>
      </trkpt>
      <trkpt lat="43.2128" lon="5.78924">
        <ele>126.40000152588</ele>
        <time>2018-04-02T14:45:54.000Z</time>
      </trkpt>
      <trkpt lat="43.21317" lon="5.78932">
        <ele>122.19999694824</ele>
        <time>2018-04-02T14:46:00.000Z</time>
      </trkpt>
      <trkpt lat="43.21331" lon="5.78947">
        <ele>121.59999847412</ele>
        <time>2018-04-02T14:46:03.000Z</time>
      </trkpt>
      <trkpt lat="43.21339" lon="5.7898">
        <ele>122.40000152588</ele>
        <time>2018-04-02T14:46:07.000Z</time>
      </trkpt>
      <trkpt lat="43.21339" lon="5.78989">
        <ele>122.40000152588</ele>
        <time>2018-04-02T14:46:08.000Z</time>
      </trkpt>
      <trkpt lat="43.2134" lon="5.78997">
        <ele>122.40000152588</ele>
        <time>2018-04-02T14:46:09.000Z</time>
      </trkpt>
      <trkpt lat="43.2134" lon="5.79021">
        <ele>122.59999847412</ele>
        <time>2018-04-02T14:46:12.000Z</time>
      </trkpt>
      <trkpt lat="43.2134" lon="5.7903">
        <ele>122.80000305176</ele>
        <time>2018-04-02T14:46:13.000Z</time>
      </trkpt>
      <trkpt lat="43.21332" lon="5.79051">
        <ele>124.80000305176</ele>
        <time>2018-04-02T14:46:16.000Z</time>
      </trkpt>
      <trkpt lat="43.21323" lon="5.79062">
        <ele>127.19999694824</ele>
        <time>2018-04-02T14:46:18.000Z</time>
      </trkpt>
      <trkpt lat="43.21308" lon="5.7908">
        <ele>131.19999694824</ele>
        <time>2018-04-02T14:46:21.000Z</time>
      </trkpt>
      <trkpt lat="43.213" lon="5.79093">
        <ele>133.60000610352</ele>
        <time>2018-04-02T14:46:23.000Z</time>
      </trkpt>
      <trkpt lat="43.2129" lon="5.79114">
        <ele>134.19999694824</ele>
        <time>2018-04-02T14:46:26.000Z</time>
      </trkpt>
      <trkpt lat="43.21286" lon="5.79122">
        <ele>134.39999389648</ele>
        <time>2018-04-02T14:46:27.000Z</time>
      </trkpt>
      <trkpt lat="43.21281" lon="5.79137">
        <ele>134.60000610352</ele>
        <time>2018-04-02T14:46:29.000Z</time>
      </trkpt>
      <trkpt lat="43.21278" lon="5.79153">
        <ele>135.19999694824</ele>
        <time>2018-04-02T14:46:31.000Z</time>
      </trkpt>
      <trkpt lat="43.21279" lon="5.79186">
        <ele>137.60000610352</ele>
        <time>2018-04-02T14:46:35.000Z</time>
      </trkpt>
      <trkpt lat="43.21284" lon="5.79202">
        <ele>137.80000305176</ele>
        <time>2018-04-02T14:46:37.000Z</time>
      </trkpt>
      <trkpt lat="43.21287" lon="5.79209">
        <ele>137.80000305176</ele>
        <time>2018-04-02T14:46:38.000Z</time>
      </trkpt>
      <trkpt lat="43.21294" lon="5.79223">
        <ele>137.39999389648</ele>
        <time>2018-04-02T14:46:40.000Z</time>
      </trkpt>
      <trkpt lat="43.21301" lon="5.79236">
        <ele>136</ele>
        <time>2018-04-02T14:46:42.000Z</time>
      </trkpt>
      <trkpt lat="43.2131" lon="5.79248">
        <ele>134.19999694824</ele>
        <time>2018-04-02T14:46:44.000Z</time>
      </trkpt>
      <trkpt lat="43.21313" lon="5.79254">
        <ele>133.60000610352</ele>
        <time>2018-04-02T14:46:45.000Z</time>
      </trkpt>
      <trkpt lat="43.21337" lon="5.79294">
        <ele>128.60000610352</ele>
        <time>2018-04-02T14:46:51.000Z</time>
      </trkpt>
      <trkpt lat="43.21343" lon="5.79299">
        <ele>127.59999847412</ele>
        <time>2018-04-02T14:46:52.000Z</time>
      </trkpt>
      <trkpt lat="43.21348" lon="5.79303">
        <ele>127.19999694824</ele>
        <time>2018-04-02T14:46:53.000Z</time>
      </trkpt>
      <trkpt lat="43.21358" lon="5.7931">
        <ele>127.80000305176</ele>
        <time>2018-04-02T14:46:55.000Z</time>
      </trkpt>
      <trkpt lat="43.21379" lon="5.79324">
        <ele>129</ele>
        <time>2018-04-02T14:47:00.000Z</time>
      </trkpt>
      <trkpt lat="43.2138" lon="5.79329">
        <ele>129</ele>
        <time>2018-04-02T14:47:01.000Z</time>
      </trkpt>
      <trkpt lat="43.2138" lon="5.79335">
        <ele>128.80000305176</ele>
        <time>2018-04-02T14:47:02.000Z</time>
      </trkpt>
      <trkpt lat="43.21378" lon="5.79341">
        <ele>129</ele>
        <time>2018-04-02T14:47:03.000Z</time>
      </trkpt>
      <trkpt lat="43.21373" lon="5.79351">
        <ele>130.39999389648</ele>
        <time>2018-04-02T14:47:05.000Z</time>
      </trkpt>
      <trkpt lat="43.21366" lon="5.7936">
        <ele>131.80000305176</ele>
        <time>2018-04-02T14:47:07.000Z</time>
      </trkpt>
      <trkpt lat="43.21358" lon="5.79371">
        <ele>133.39999389648</ele>
        <time>2018-04-02T14:47:09.000Z</time>
      </trkpt>
      <trkpt lat="43.21334" lon="5.79398">
        <ele>138.19999694824</ele>
        <time>2018-04-02T14:47:14.000Z</time>
      </trkpt>
      <trkpt lat="43.21318" lon="5.79413">
        <ele>141.80000305176</ele>
        <time>2018-04-02T14:47:17.000Z</time>
      </trkpt>
      <trkpt lat="43.21285" lon="5.79441">
        <ele>143.39999389648</ele>
        <time>2018-04-02T14:47:23.000Z</time>
      </trkpt>
      <trkpt lat="43.2128" lon="5.79447">
        <ele>143</ele>
        <time>2018-04-02T14:47:24.000Z</time>
      </trkpt>
      <trkpt lat="43.21257" lon="5.79477">
        <ele>142.19999694824</ele>
        <time>2018-04-02T14:47:29.000Z</time>
      </trkpt>
      <trkpt lat="43.21234" lon="5.79511">
        <ele>149.19999694824</ele>
        <time>2018-04-02T14:47:34.000Z</time>
      </trkpt>
      <trkpt lat="43.21201" lon="5.79544">
        <ele>149</ele>
        <time>2018-04-02T14:47:40.000Z</time>
      </trkpt>
      <trkpt lat="43.21167" lon="5.79572">
        <ele>150</ele>
        <time>2018-04-02T14:47:46.000Z</time>
      </trkpt>
      <trkpt lat="43.21161" lon="5.79576">
        <ele>150.39999389648</ele>
        <time>2018-04-02T14:47:47.000Z</time>
      </trkpt>
      <trkpt lat="43.2115" lon="5.7958">
        <ele>150.80000305176</ele>
        <time>2018-04-02T14:47:49.000Z</time>
      </trkpt>
      <trkpt lat="43.21139" lon="5.79583">
        <ele>150.60000610352</ele>
        <time>2018-04-02T14:47:51.000Z</time>
      </trkpt>
      <trkpt lat="43.21121" lon="5.79588">
        <ele>150</ele>
        <time>2018-04-02T14:47:54.000Z</time>
      </trkpt>
      <trkpt lat="43.21099" lon="5.79594">
        <ele>147.19999694824</ele>
        <time>2018-04-02T14:47:58.000Z</time>
      </trkpt>
      <trkpt lat="43.21082" lon="5.796">
        <ele>148.39999389648</ele>
        <time>2018-04-02T14:48:01.000Z</time>
      </trkpt>
      <trkpt lat="43.2107" lon="5.79604">
        <ele>149.60000610352</ele>
        <time>2018-04-02T14:48:03.000Z</time>
      </trkpt>
      <trkpt lat="43.21053" lon="5.79612">
        <ele>149.60000610352</ele>
        <time>2018-04-02T14:48:06.000Z</time>
      </trkpt>
      <trkpt lat="43.21043" lon="5.79617">
        <ele>148.80000305176</ele>
        <time>2018-04-02T14:48:08.000Z</time>
      </trkpt>
      <trkpt lat="43.21034" lon="5.79624">
        <ele>148</ele>
        <time>2018-04-02T14:48:10.000Z</time>
      </trkpt>
      <trkpt lat="43.21025" lon="5.79632">
        <ele>147.19999694824</ele>
        <time>2018-04-02T14:48:12.000Z</time>
      </trkpt>
      <trkpt lat="43.21017" lon="5.79641">
        <ele>147</ele>
        <time>2018-04-02T14:48:14.000Z</time>
      </trkpt>
      <trkpt lat="43.20998" lon="5.79659">
        <ele>151.39999389648</ele>
        <time>2018-04-02T14:48:18.000Z</time>
      </trkpt>
      <trkpt lat="43.20989" lon="5.79669">
        <ele>154</ele>
        <time>2018-04-02T14:48:20.000Z</time>
      </trkpt>
      <trkpt lat="43.20981" lon="5.7968">
        <ele>157.19999694824</ele>
        <time>2018-04-02T14:48:22.000Z</time>
      </trkpt>
      <trkpt lat="43.20972" lon="5.79691">
        <ele>159.39999389648</ele>
        <time>2018-04-02T14:48:24.000Z</time>
      </trkpt>
      <trkpt lat="43.20967" lon="5.79695">
        <ele>160</ele>
        <time>2018-04-02T14:48:25.000Z</time>
      </trkpt>
      <trkpt lat="43.20955" lon="5.79697">
        <ele>159.80000305176</ele>
        <time>2018-04-02T14:48:27.000Z</time>
      </trkpt>
      <trkpt lat="43.20948" lon="5.79696">
        <ele>159.39999389648</ele>
        <time>2018-04-02T14:48:28.000Z</time>
      </trkpt>
      <trkpt lat="43.20942" lon="5.79694">
        <ele>158.80000305176</ele>
        <time>2018-04-02T14:48:29.000Z</time>
      </trkpt>
      <trkpt lat="43.20911" lon="5.7968">
        <ele>154.80000305176</ele>
        <time>2018-04-02T14:48:34.000Z</time>
      </trkpt>
      <trkpt lat="43.20897" lon="5.79663">
        <ele>150.80000305176</ele>
        <time>2018-04-02T14:48:37.000Z</time>
      </trkpt>
      <trkpt lat="43.20893" lon="5.79657">
        <ele>149.60000610352</ele>
        <time>2018-04-02T14:48:38.000Z</time>
      </trkpt>
      <trkpt lat="43.20881" lon="5.79633">
        <ele>145</ele>
        <time>2018-04-02T14:48:42.000Z</time>
      </trkpt>
      <trkpt lat="43.20873" lon="5.79629">
        <ele>144</ele>
        <time>2018-04-02T14:48:44.000Z</time>
      </trkpt>
      <trkpt lat="43.20868" lon="5.7963">
        <ele>143.80000305176</ele>
        <time>2018-04-02T14:48:45.000Z</time>
      </trkpt>
      <trkpt lat="43.20857" lon="5.79638">
        <ele>143.80000305176</ele>
        <time>2018-04-02T14:48:47.000Z</time>
      </trkpt>
      <trkpt lat="43.20852" lon="5.79642">
        <ele>144.19999694824</ele>
        <time>2018-04-02T14:48:48.000Z</time>
      </trkpt>
      <trkpt lat="43.20847" lon="5.79647">
        <ele>144.39999389648</ele>
        <time>2018-04-02T14:48:49.000Z</time>
      </trkpt>
      <trkpt lat="43.20824" lon="5.79664">
        <ele>145.80000305176</ele>
        <time>2018-04-02T14:48:53.000Z</time>
      </trkpt>
      <trkpt lat="43.20806" lon="5.79676">
        <ele>146.60000610352</ele>
        <time>2018-04-02T14:48:56.000Z</time>
      </trkpt>
      <trkpt lat="43.20767" lon="5.79709">
        <ele>141.39999389648</ele>
        <time>2018-04-02T14:49:03.000Z</time>
      </trkpt>
      <trkpt lat="43.20737" lon="5.79744">
        <ele>143.80000305176</ele>
        <time>2018-04-02T14:49:09.000Z</time>
      </trkpt>
      <trkpt lat="43.20699" lon="5.79802">
        <ele>143.39999389648</ele>
        <time>2018-04-02T14:49:18.000Z</time>
      </trkpt>
      <trkpt lat="43.2069" lon="5.79815">
        <ele>143</ele>
        <time>2018-04-02T14:49:20.000Z</time>
      </trkpt>
      <trkpt lat="43.20678" lon="5.79835">
        <ele>143</ele>
        <time>2018-04-02T14:49:23.000Z</time>
      </trkpt>
      <trkpt lat="43.20653" lon="5.79873">
        <ele>146</ele>
        <time>2018-04-02T14:49:29.000Z</time>
      </trkpt>
      <trkpt lat="43.2065" lon="5.79881">
        <ele>145.60000610352</ele>
        <time>2018-04-02T14:49:30.000Z</time>
      </trkpt>
      <trkpt lat="43.20642" lon="5.79903">
        <ele>146</ele>
        <time>2018-04-02T14:49:33.000Z</time>
      </trkpt>
      <trkpt lat="43.2064" lon="5.79911">
        <ele>146.39999389648</ele>
        <time>2018-04-02T14:49:34.000Z</time>
      </trkpt>
      <trkpt lat="43.20638" lon="5.79919">
        <ele>146.80000305176</ele>
        <time>2018-04-02T14:49:35.000Z</time>
      </trkpt>
      <trkpt lat="43.20632" lon="5.79952">
        <ele>147</ele>
        <time>2018-04-02T14:49:39.000Z</time>
      </trkpt>
      <trkpt lat="43.20629" lon="5.79969">
        <ele>146.80000305176</ele>
        <time>2018-04-02T14:49:41.000Z</time>
      </trkpt>
      <trkpt lat="43.20623" lon="5.79992">
        <ele>147.39999389648</ele>
        <time>2018-04-02T14:49:44.000Z</time>
      </trkpt>
      <trkpt lat="43.2062" lon="5.79999">
        <ele>147.39999389648</ele>
        <time>2018-04-02T14:49:45.000Z</time>
      </trkpt>
      <trkpt lat="43.20617" lon="5.80006">
        <ele>147</ele>
        <time>2018-04-02T14:49:46.000Z</time>
      </trkpt>
      <trkpt lat="43.20606" lon="5.80016">
        <ele>145.19999694824</ele>
        <time>2018-04-02T14:49:48.000Z</time>
      </trkpt>
      <trkpt lat="43.20601" lon="5.80019">
        <ele>144.19999694824</ele>
        <time>2018-04-02T14:49:49.000Z</time>
      </trkpt>
      <trkpt lat="43.2059" lon="5.80022">
        <ele>143.60000610352</ele>
        <time>2018-04-02T14:49:51.000Z</time>
      </trkpt>
      <trkpt lat="43.20578" lon="5.80028">
        <ele>144.80000305176</ele>
        <time>2018-04-02T14:49:53.000Z</time>
      </trkpt>
      <trkpt lat="43.20567" lon="5.80047">
        <ele>145</ele>
        <time>2018-04-02T14:49:56.000Z</time>
      </trkpt>
      <trkpt lat="43.20565" lon="5.80073">
        <ele>145.80000305176</ele>
        <time>2018-04-02T14:49:59.000Z</time>
      </trkpt>
      <trkpt lat="43.20564" lon="5.80082">
        <ele>146.39999389648</ele>
        <time>2018-04-02T14:50:00.000Z</time>
      </trkpt>
      <trkpt lat="43.20561" lon="5.801">
        <ele>147.60000610352</ele>
        <time>2018-04-02T14:50:02.000Z</time>
      </trkpt>
      <trkpt lat="43.20558" lon="5.80108">
        <ele>147.80000305176</ele>
        <time>2018-04-02T14:50:03.000Z</time>
      </trkpt>
      <trkpt lat="43.20553" lon="5.80114">
        <ele>147.80000305176</ele>
        <time>2018-04-02T14:50:04.000Z</time>
      </trkpt>
      <trkpt lat="43.20537" lon="5.8013">
        <ele>147.39999389648</ele>
        <time>2018-04-02T14:50:07.000Z</time>
      </trkpt>
      <trkpt lat="43.20532" lon="5.80135">
        <ele>147.39999389648</ele>
        <time>2018-04-02T14:50:08.000Z</time>
      </trkpt>
      <trkpt lat="43.20518" lon="5.8015">
        <ele>147.60000610352</ele>
        <time>2018-04-02T14:50:11.000Z</time>
      </trkpt>
      <trkpt lat="43.20503" lon="5.80165">
        <ele>147.60000610352</ele>
        <time>2018-04-02T14:50:14.000Z</time>
      </trkpt>
      <trkpt lat="43.20483" lon="5.80184">
        <ele>148.19999694824</ele>
        <time>2018-04-02T14:50:18.000Z</time>
      </trkpt>
      <trkpt lat="43.20475" lon="5.80196">
        <ele>148.80000305176</ele>
        <time>2018-04-02T14:50:20.000Z</time>
      </trkpt>
      <trkpt lat="43.20468" lon="5.80209">
        <ele>149.60000610352</ele>
        <time>2018-04-02T14:50:22.000Z</time>
      </trkpt>
      <trkpt lat="43.20464" lon="5.80224">
        <ele>150.39999389648</ele>
        <time>2018-04-02T14:50:24.000Z</time>
      </trkpt>
      <trkpt lat="43.20461" lon="5.80241">
        <ele>151.80000305176</ele>
        <time>2018-04-02T14:50:26.000Z</time>
      </trkpt>
      <trkpt lat="43.20455" lon="5.80254">
        <ele>153.80000305176</ele>
        <time>2018-04-02T14:50:28.000Z</time>
      </trkpt>
      <trkpt lat="43.20439" lon="5.80257">
        <ele>157.39999389648</ele>
        <time>2018-04-02T14:50:31.000Z</time>
      </trkpt>
      <trkpt lat="43.20429" lon="5.80256">
        <ele>159</ele>
        <time>2018-04-02T14:50:33.000Z</time>
      </trkpt>
      <trkpt lat="43.20418" lon="5.80255">
        <ele>158.80000305176</ele>
        <time>2018-04-02T14:50:35.000Z</time>
      </trkpt>
      <trkpt lat="43.20406" lon="5.80254">
        <ele>158.60000610352</ele>
        <time>2018-04-02T14:50:37.000Z</time>
      </trkpt>
      <trkpt lat="43.204" lon="5.80254">
        <ele>158.60000610352</ele>
        <time>2018-04-02T14:50:38.000Z</time>
      </trkpt>
      <trkpt lat="43.20394" lon="5.80254">
        <ele>158.60000610352</ele>
        <time>2018-04-02T14:50:39.000Z</time>
      </trkpt>
      <trkpt lat="43.20377" lon="5.80254">
        <ele>158.60000610352</ele>
        <time>2018-04-02T14:50:42.000Z</time>
      </trkpt>
      <trkpt lat="43.20356" lon="5.80253">
        <ele>156.80000305176</ele>
        <time>2018-04-02T14:50:46.000Z</time>
      </trkpt>
      <trkpt lat="43.20351" lon="5.80254">
        <ele>156.39999389648</ele>
        <time>2018-04-02T14:50:47.000Z</time>
      </trkpt>
      <trkpt lat="43.20336" lon="5.80262">
        <ele>156.80000305176</ele>
        <time>2018-04-02T14:50:50.000Z</time>
      </trkpt>
      <trkpt lat="43.20331" lon="5.80265">
        <ele>157.19999694824</ele>
        <time>2018-04-02T14:50:51.000Z</time>
      </trkpt>
      <trkpt lat="43.20321" lon="5.80275">
        <ele>158.39999389648</ele>
        <time>2018-04-02T14:50:53.000Z</time>
      </trkpt>
      <trkpt lat="43.20308" lon="5.80292">
        <ele>157.60000610352</ele>
        <time>2018-04-02T14:50:56.000Z</time>
      </trkpt>
      <trkpt lat="43.20304" lon="5.80298">
        <ele>157.19999694824</ele>
        <time>2018-04-02T14:50:57.000Z</time>
      </trkpt>
      <trkpt lat="43.20299" lon="5.80321">
        <ele>156.60000610352</ele>
        <time>2018-04-02T14:51:00.000Z</time>
      </trkpt>
      <trkpt lat="43.20297" lon="5.80337">
        <ele>156.60000610352</ele>
        <time>2018-04-02T14:51:02.000Z</time>
      </trkpt>
      <trkpt lat="43.20292" lon="5.80378">
        <ele>156</ele>
        <time>2018-04-02T14:51:07.000Z</time>
      </trkpt>
      <trkpt lat="43.20288" lon="5.80399">
        <ele>155.80000305176</ele>
        <time>2018-04-02T14:51:10.000Z</time>
      </trkpt>
      <trkpt lat="43.20288" lon="5.80407">
        <ele>155.80000305176</ele>
        <time>2018-04-02T14:51:11.000Z</time>
      </trkpt>
      <trkpt lat="43.20288" lon="5.80414">
        <ele>156</ele>
        <time>2018-04-02T14:51:12.000Z</time>
      </trkpt>
      <trkpt lat="43.20291" lon="5.80426">
        <ele>157.19999694824</ele>
        <time>2018-04-02T14:51:14.000Z</time>
      </trkpt>
      <trkpt lat="43.20296" lon="5.80439">
        <ele>158.39999389648</ele>
        <time>2018-04-02T14:51:16.000Z</time>
      </trkpt>
      <trkpt lat="43.20298" lon="5.80445">
        <ele>159.19999694824</ele>
        <time>2018-04-02T14:51:17.000Z</time>
      </trkpt>
      <trkpt lat="43.20301" lon="5.80457">
        <ele>160.19999694824</ele>
        <time>2018-04-02T14:51:19.000Z</time>
      </trkpt>
      <trkpt lat="43.20302" lon="5.80469">
        <ele>161.19999694824</ele>
        <time>2018-04-02T14:51:21.000Z</time>
      </trkpt>
      <trkpt lat="43.203" lon="5.80475">
        <ele>161.19999694824</ele>
        <time>2018-04-02T14:51:22.000Z</time>
      </trkpt>
      <trkpt lat="43.20293" lon="5.80492">
        <ele>160.80000305176</ele>
        <time>2018-04-02T14:51:25.000Z</time>
      </trkpt>
      <trkpt lat="43.20284" lon="5.80508">
        <ele>160.39999389648</ele>
        <time>2018-04-02T14:51:28.000Z</time>
      </trkpt>
      <trkpt lat="43.20273" lon="5.80529">
        <ele>160.19999694824</ele>
        <time>2018-04-02T14:51:31.000Z</time>
      </trkpt>
      <trkpt lat="43.20258" lon="5.80557">
        <ele>159.80000305176</ele>
        <time>2018-04-02T14:51:35.000Z</time>
      </trkpt>
      <trkpt lat="43.20241" lon="5.80592">
        <ele>160.39999389648</ele>
        <time>2018-04-02T14:51:40.000Z</time>
      </trkpt>
      <trkpt lat="43.20222" lon="5.80632">
        <ele>159.60000610352</ele>
        <time>2018-04-02T14:51:46.000Z</time>
      </trkpt>
      <trkpt lat="43.20219" lon="5.80639">
        <ele>159.39999389648</ele>
        <time>2018-04-02T14:51:47.000Z</time>
      </trkpt>
      <trkpt lat="43.20202" lon="5.80667">
        <ele>157.60000610352</ele>
        <time>2018-04-02T14:51:53.000Z</time>
      </trkpt>
      <trkpt lat="43.20193" lon="5.80679">
        <ele>156.80000305176</ele>
        <time>2018-04-02T14:51:58.000Z</time>
      </trkpt>
      <trkpt lat="43.20188" lon="5.80689">
        <ele>156.39999389648</ele>
        <time>2018-04-02T14:52:00.000Z</time>
      </trkpt>
      <trkpt lat="43.20182" lon="5.80699">
        <ele>156</ele>
        <time>2018-04-02T14:52:02.000Z</time>
      </trkpt>
      <trkpt lat="43.20179" lon="5.80704">
        <ele>155.60000610352</ele>
        <time>2018-04-02T14:52:03.000Z</time>
      </trkpt>
      <trkpt lat="43.20176" lon="5.80709">
        <ele>155.80000305176</ele>
        <time>2018-04-02T14:52:04.000Z</time>
      </trkpt>
      <trkpt lat="43.20166" lon="5.80724">
        <ele>156</ele>
        <time>2018-04-02T14:52:07.000Z</time>
      </trkpt>
      <trkpt lat="43.20162" lon="5.80727">
        <ele>156.19999694824</ele>
        <time>2018-04-02T14:52:08.000Z</time>
      </trkpt>
      <trkpt lat="43.20146" lon="5.8073">
        <ele>156.19999694824</ele>
        <time>2018-04-02T14:52:11.000Z</time>
      </trkpt>
      <trkpt lat="43.20133" lon="5.80727">
        <ele>155.80000305176</ele>
        <time>2018-04-02T14:52:13.000Z</time>
      </trkpt>
      <trkpt lat="43.2012" lon="5.80719">
        <ele>155.19999694824</ele>
        <time>2018-04-02T14:52:15.000Z</time>
      </trkpt>
      <trkpt lat="43.20098" lon="5.80697">
        <ele>154.80000305176</ele>
        <time>2018-04-02T14:52:19.000Z</time>
      </trkpt>
      <trkpt lat="43.2009" lon="5.8068">
        <ele>154.60000610352</ele>
        <time>2018-04-02T14:52:22.000Z</time>
      </trkpt>
      <trkpt lat="43.20086" lon="5.8067">
        <ele>154.80000305176</ele>
        <time>2018-04-02T14:52:24.000Z</time>
      </trkpt>
      <trkpt lat="43.20084" lon="5.80666">
        <ele>154.80000305176</ele>
        <time>2018-04-02T14:52:25.000Z</time>
      </trkpt>
      <trkpt lat="43.20078" lon="5.80651">
        <ele>154.80000305176</ele>
        <time>2018-04-02T14:52:28.000Z</time>
      </trkpt>
      <trkpt lat="43.20073" lon="5.80636">
        <ele>154.80000305176</ele>
        <time>2018-04-02T14:52:31.000Z</time>
      </trkpt>
      <trkpt lat="43.20065" lon="5.80631">
        <ele>155.19999694824</ele>
        <time>2018-04-02T14:52:33.000Z</time>
      </trkpt>
      <trkpt lat="43.20061" lon="5.80629">
        <ele>155.39999389648</ele>
        <time>2018-04-02T14:52:34.000Z</time>
      </trkpt>
      <trkpt lat="43.2005" lon="5.80622">
        <ele>156</ele>
        <time>2018-04-02T14:52:37.000Z</time>
      </trkpt>
      <trkpt lat="43.20046" lon="5.80617">
        <ele>156.19999694824</ele>
        <time>2018-04-02T14:52:38.000Z</time>
      </trkpt>
      <trkpt lat="43.20038" lon="5.80603">
        <ele>156.80000305176</ele>
        <time>2018-04-02T14:52:40.000Z</time>
      </trkpt>
      <trkpt lat="43.20026" lon="5.80583">
        <ele>157.80000305176</ele>
        <time>2018-04-02T14:52:43.000Z</time>
      </trkpt>
      <trkpt lat="43.20009" lon="5.80557">
        <ele>159</ele>
        <time>2018-04-02T14:52:47.000Z</time>
      </trkpt>
      <trkpt lat="43.19992" lon="5.80531">
        <ele>161</ele>
        <time>2018-04-02T14:52:51.000Z</time>
      </trkpt>
      <trkpt lat="43.19987" lon="5.80524">
        <ele>161.60000610352</ele>
        <time>2018-04-02T14:52:52.000Z</time>
      </trkpt>
      <trkpt lat="43.19979" lon="5.80512">
        <ele>162.60000610352</ele>
        <time>2018-04-02T14:52:54.000Z</time>
      </trkpt>
      <trkpt lat="43.1996" lon="5.80492">
        <ele>164.39999389648</ele>
        <time>2018-04-02T14:52:58.000Z</time>
      </trkpt>
      <trkpt lat="43.19955" lon="5.80488">
        <ele>164.80000305176</ele>
        <time>2018-04-02T14:52:59.000Z</time>
      </trkpt>
      <trkpt lat="43.19945" lon="5.80482">
        <ele>165.60000610352</ele>
        <time>2018-04-02T14:53:01.000Z</time>
      </trkpt>
      <trkpt lat="43.19928" lon="5.80479">
        <ele>166.39999389648</ele>
        <time>2018-04-02T14:53:04.000Z</time>
      </trkpt>
      <trkpt lat="43.19923" lon="5.8048">
        <ele>166.39999389648</ele>
        <time>2018-04-02T14:53:05.000Z</time>
      </trkpt>
      <trkpt lat="43.19894" lon="5.80485">
        <ele>166</ele>
        <time>2018-04-02T14:53:10.000Z</time>
      </trkpt>
      <trkpt lat="43.19888" lon="5.80485">
        <ele>166</ele>
        <time>2018-04-02T14:53:11.000Z</time>
      </trkpt>
      <trkpt lat="43.19866" lon="5.80481">
        <ele>166.39999389648</ele>
        <time>2018-04-02T14:53:15.000Z</time>
      </trkpt>
      <trkpt lat="43.19856" lon="5.80477">
        <ele>166.60000610352</ele>
        <time>2018-04-02T14:53:17.000Z</time>
      </trkpt>
      <trkpt lat="43.19851" lon="5.80474">
        <ele>166.80000305176</ele>
        <time>2018-04-02T14:53:18.000Z</time>
      </trkpt>
      <trkpt lat="43.19836" lon="5.80469">
        <ele>167.19999694824</ele>
        <time>2018-04-02T14:53:22.000Z</time>
      </trkpt>
      <trkpt lat="43.19829" lon="5.80485">
        <ele>166.19999694824</ele>
        <time>2018-04-02T14:53:25.000Z</time>
      </trkpt>
      <trkpt lat="43.19826" lon="5.80501">
        <ele>165.19999694824</ele>
        <time>2018-04-02T14:53:27.000Z</time>
      </trkpt>
      <trkpt lat="43.19821" lon="5.80528">
        <ele>163.60000610352</ele>
        <time>2018-04-02T14:53:30.000Z</time>
      </trkpt>
      <trkpt lat="43.19814" lon="5.80556">
        <ele>163</ele>
        <time>2018-04-02T14:53:33.000Z</time>
      </trkpt>
      <trkpt lat="43.19807" lon="5.80589">
        <ele>162.60000610352</ele>
        <time>2018-04-02T14:53:37.000Z</time>
      </trkpt>
      <trkpt lat="43.19802" lon="5.80617">
        <ele>162.39999389648</ele>
        <time>2018-04-02T14:53:41.000Z</time>
      </trkpt>
      <trkpt lat="43.19799" lon="5.80628">
        <ele>162.39999389648</ele>
        <time>2018-04-02T14:53:43.000Z</time>
      </trkpt>
      <trkpt lat="43.19798" lon="5.80632">
        <ele>162.39999389648</ele>
        <time>2018-04-02T14:53:44.000Z</time>
      </trkpt>
      <trkpt lat="43.19797" lon="5.80637">
        <ele>162.39999389648</ele>
        <time>2018-04-02T14:53:47.000Z</time>
      </trkpt>
      <trkpt lat="43.19796" lon="5.80638">
        <ele>162.39999389648</ele>
        <time>2018-04-02T14:53:48.000Z</time>
      </trkpt>
      <trkpt lat="43.19797" lon="5.8064">
        <ele>162.19999694824</ele>
        <time>2018-04-02T14:53:49.000Z</time>
      </trkpt>
      <trkpt lat="43.198" lon="5.80647">
        <ele>162</ele>
        <time>2018-04-02T14:53:51.000Z</time>
      </trkpt>
      <trkpt lat="43.19814" lon="5.80662">
        <ele>161</ele>
        <time>2018-04-02T14:53:55.000Z</time>
      </trkpt>
      <trkpt lat="43.19825" lon="5.80683">
        <ele>159.80000305176</ele>
        <time>2018-04-02T14:53:59.000Z</time>
      </trkpt>
      <trkpt lat="43.19833" lon="5.80692">
        <ele>159.19999694824</ele>
        <time>2018-04-02T14:54:01.000Z</time>
      </trkpt>
      <trkpt lat="43.19838" lon="5.80697">
        <ele>159</ele>
        <time>2018-04-02T14:54:02.000Z</time>
      </trkpt>
      <trkpt lat="43.1985" lon="5.80711">
        <ele>158.39999389648</ele>
        <time>2018-04-02T14:54:05.000Z</time>
      </trkpt>
      <trkpt lat="43.19873" lon="5.80731">
        <ele>158</ele>
        <time>2018-04-02T14:54:10.000Z</time>
      </trkpt>
      <trkpt lat="43.19892" lon="5.80747">
        <ele>157.60000610352</ele>
        <time>2018-04-02T14:54:14.000Z</time>
      </trkpt>
      <trkpt lat="43.19897" lon="5.80751">
        <ele>157.60000610352</ele>
        <time>2018-04-02T14:54:15.000Z</time>
      </trkpt>
      <trkpt lat="43.19906" lon="5.8076">
        <ele>157.39999389648</ele>
        <time>2018-04-02T14:54:17.000Z</time>
      </trkpt>
      <trkpt lat="43.19915" lon="5.80771">
        <ele>157</ele>
        <time>2018-04-02T14:54:19.000Z</time>
      </trkpt>
      <trkpt lat="43.19918" lon="5.80778">
        <ele>156.80000305176</ele>
        <time>2018-04-02T14:54:20.000Z</time>
      </trkpt>
      <trkpt lat="43.19924" lon="5.80793">
        <ele>156.39999389648</ele>
        <time>2018-04-02T14:54:22.000Z</time>
      </trkpt>
      <trkpt lat="43.19931" lon="5.80816">
        <ele>155.80000305176</ele>
        <time>2018-04-02T14:54:25.000Z</time>
      </trkpt>
      <trkpt lat="43.19933" lon="5.80823">
        <ele>155.60000610352</ele>
        <time>2018-04-02T14:54:26.000Z</time>
      </trkpt>
      <trkpt lat="43.19941" lon="5.80841">
        <ele>155.39999389648</ele>
        <time>2018-04-02T14:54:29.000Z</time>
      </trkpt>
      <trkpt lat="43.19945" lon="5.80846">
        <ele>155.19999694824</ele>
        <time>2018-04-02T14:54:30.000Z</time>
      </trkpt>
      <trkpt lat="43.19958" lon="5.80864">
        <ele>155</ele>
        <time>2018-04-02T14:54:34.000Z</time>
      </trkpt>
      <trkpt lat="43.19961" lon="5.80869">
        <ele>154.80000305176</ele>
        <time>2018-04-02T14:54:35.000Z</time>
      </trkpt>
      <trkpt lat="43.19962" lon="5.80874">
        <ele>154.80000305176</ele>
        <time>2018-04-02T14:54:36.000Z</time>
      </trkpt>
      <trkpt lat="43.1996" lon="5.80889">
        <ele>154.39999389648</ele>
        <time>2018-04-02T14:54:39.000Z</time>
      </trkpt>
      <trkpt lat="43.19951" lon="5.80901">
        <ele>154.60000610352</ele>
        <time>2018-04-02T14:54:42.000Z</time>
      </trkpt>
      <trkpt lat="43.19944" lon="5.8091">
        <ele>154.60000610352</ele>
        <time>2018-04-02T14:54:44.000Z</time>
      </trkpt>
      <trkpt lat="43.1994" lon="5.80914">
        <ele>154.39999389648</ele>
        <time>2018-04-02T14:54:45.000Z</time>
      </trkpt>
      <trkpt lat="43.1993" lon="5.80918">
        <ele>154</ele>
        <time>2018-04-02T14:54:47.000Z</time>
      </trkpt>
      <trkpt lat="43.19925" lon="5.80918">
        <ele>154</ele>
        <time>2018-04-02T14:54:48.000Z</time>
      </trkpt>
      <trkpt lat="43.19914" lon="5.80916">
        <ele>154.39999389648</ele>
        <time>2018-04-02T14:54:50.000Z</time>
      </trkpt>
      <trkpt lat="43.19908" lon="5.80916">
        <ele>154.39999389648</ele>
        <time>2018-04-02T14:54:51.000Z</time>
      </trkpt>
      <trkpt lat="43.19899" lon="5.80921">
        <ele>154.80000305176</ele>
        <time>2018-04-02T14:54:53.000Z</time>
      </trkpt>
      <trkpt lat="43.19888" lon="5.80939">
        <ele>155</ele>
        <time>2018-04-02T14:54:56.000Z</time>
      </trkpt>
      <trkpt lat="43.19885" lon="5.80946">
        <ele>155</ele>
        <time>2018-04-02T14:54:57.000Z</time>
      </trkpt>
      <trkpt lat="43.19866" lon="5.80992">
        <ele>156.19999694824</ele>
        <time>2018-04-02T14:55:04.000Z</time>
      </trkpt>
      <trkpt lat="43.19847" lon="5.81019">
        <ele>155.39999389648</ele>
        <time>2018-04-02T14:55:09.000Z</time>
      </trkpt>
      <trkpt lat="43.19822" lon="5.81059">
        <ele>155</ele>
        <time>2018-04-02T14:55:16.000Z</time>
      </trkpt>
      <trkpt lat="43.19801" lon="5.81099">
        <ele>155.60000610352</ele>
        <time>2018-04-02T14:55:23.000Z</time>
      </trkpt>
      <trkpt lat="43.19776" lon="5.8114">
        <ele>156</ele>
        <time>2018-04-02T14:55:31.000Z</time>
      </trkpt>
      <trkpt lat="43.19748" lon="5.81176">
        <ele>156.80000305176</ele>
        <time>2018-04-02T14:55:38.000Z</time>
      </trkpt>
      <trkpt lat="43.19722" lon="5.81205">
        <ele>157.19999694824</ele>
        <time>2018-04-02T14:55:44.000Z</time>
      </trkpt>
      <trkpt lat="43.19712" lon="5.81223">
        <ele>157</ele>
        <time>2018-04-02T14:55:47.000Z</time>
      </trkpt>
      <trkpt lat="43.19697" lon="5.81253">
        <ele>157.19999694824</ele>
        <time>2018-04-02T14:55:52.000Z</time>
      </trkpt>
      <trkpt lat="43.19675" lon="5.81297">
        <ele>157.19999694824</ele>
        <time>2018-04-02T14:56:00.000Z</time>
      </trkpt>
      <trkpt lat="43.19662" lon="5.81301">
        <ele>157.39999389648</ele>
        <time>2018-04-02T14:56:03.000Z</time>
      </trkpt>
      <trkpt lat="43.19657" lon="5.81302">
        <ele>157.60000610352</ele>
        <time>2018-04-02T14:56:04.000Z</time>
      </trkpt>
      <trkpt lat="43.19652" lon="5.81304">
        <ele>157.60000610352</ele>
        <time>2018-04-02T14:56:05.000Z</time>
      </trkpt>
      <trkpt lat="43.19637" lon="5.81313">
        <ele>158</ele>
        <time>2018-04-02T14:56:08.000Z</time>
      </trkpt>
      <trkpt lat="43.19614" lon="5.81333">
        <ele>158.80000305176</ele>
        <time>2018-04-02T14:56:13.000Z</time>
      </trkpt>
      <trkpt lat="43.19605" lon="5.81342">
        <ele>158.80000305176</ele>
        <time>2018-04-02T14:56:15.000Z</time>
      </trkpt>
      <trkpt lat="43.19574" lon="5.81362">
        <ele>159.60000610352</ele>
        <time>2018-04-02T14:56:21.000Z</time>
      </trkpt>
      <trkpt lat="43.19549" lon="5.81383">
        <ele>160.19999694824</ele>
        <time>2018-04-02T14:56:26.000Z</time>
      </trkpt>
      <trkpt lat="43.19527" lon="5.81395">
        <ele>160.60000610352</ele>
        <time>2018-04-02T14:56:31.000Z</time>
      </trkpt>
      <trkpt lat="43.19511" lon="5.81404">
        <ele>160.80000305176</ele>
        <time>2018-04-02T14:56:34.000Z</time>
      </trkpt>
      <trkpt lat="43.19501" lon="5.81414">
        <ele>160.60000610352</ele>
        <time>2018-04-02T14:56:36.000Z</time>
      </trkpt>
      <trkpt lat="43.19497" lon="5.81419">
        <ele>160.60000610352</ele>
        <time>2018-04-02T14:56:37.000Z</time>
      </trkpt>
      <trkpt lat="43.19488" lon="5.81439">
        <ele>160.39999389648</ele>
        <time>2018-04-02T14:56:40.000Z</time>
      </trkpt>
      <trkpt lat="43.19482" lon="5.81469">
        <ele>160.39999389648</ele>
        <time>2018-04-02T14:56:44.000Z</time>
      </trkpt>
      <trkpt lat="43.19481" lon="5.81478">
        <ele>160.39999389648</ele>
        <time>2018-04-02T14:56:45.000Z</time>
      </trkpt>
      <trkpt lat="43.19477" lon="5.81509">
        <ele>160.39999389648</ele>
        <time>2018-04-02T14:56:49.000Z</time>
      </trkpt>
      <trkpt lat="43.19474" lon="5.81554">
        <ele>159.19999694824</ele>
        <time>2018-04-02T14:56:55.000Z</time>
      </trkpt>
      <trkpt lat="43.19472" lon="5.81562">
        <ele>159</ele>
        <time>2018-04-02T14:56:56.000Z</time>
      </trkpt>
      <trkpt lat="43.19463" lon="5.8158">
        <ele>158.80000305176</ele>
        <time>2018-04-02T14:56:59.000Z</time>
      </trkpt>
      <trkpt lat="43.1945" lon="5.81597">
        <ele>158.80000305176</ele>
        <time>2018-04-02T14:57:02.000Z</time>
      </trkpt>
      <trkpt lat="43.19438" lon="5.81613">
        <ele>158.80000305176</ele>
        <time>2018-04-02T14:57:05.000Z</time>
      </trkpt>
      <trkpt lat="43.19433" lon="5.81619">
        <ele>158.80000305176</ele>
        <time>2018-04-02T14:57:06.000Z</time>
      </trkpt>
      <trkpt lat="43.19402" lon="5.81667">
        <ele>160.60000610352</ele>
        <time>2018-04-02T14:57:14.000Z</time>
      </trkpt>
      <trkpt lat="43.19387" lon="5.81692">
        <ele>161.60000610352</ele>
        <time>2018-04-02T14:57:18.000Z</time>
      </trkpt>
      <trkpt lat="43.19378" lon="5.81699">
        <ele>161.80000305176</ele>
        <time>2018-04-02T14:57:20.000Z</time>
      </trkpt>
      <trkpt lat="43.19369" lon="5.81704">
        <ele>161.80000305176</ele>
        <time>2018-04-02T14:57:22.000Z</time>
      </trkpt>
      <trkpt lat="43.1936" lon="5.81711">
        <ele>161.80000305176</ele>
        <time>2018-04-02T14:57:25.000Z</time>
      </trkpt>
      <trkpt lat="43.19355" lon="5.8172">
        <ele>162</ele>
        <time>2018-04-02T14:57:27.000Z</time>
      </trkpt>
      <trkpt lat="43.19352" lon="5.81732">
        <ele>162.19999694824</ele>
        <time>2018-04-02T14:57:29.000Z</time>
      </trkpt>
      <trkpt lat="43.19346" lon="5.81752">
        <ele>161.60000610352</ele>
        <time>2018-04-02T14:57:32.000Z</time>
      </trkpt>
      <trkpt lat="43.19333" lon="5.81792">
        <ele>161.39999389648</ele>
        <time>2018-04-02T14:57:38.000Z</time>
      </trkpt>
      <trkpt lat="43.19317" lon="5.81849">
        <ele>162.80000305176</ele>
        <time>2018-04-02T14:57:46.000Z</time>
      </trkpt>
      <trkpt lat="43.19297" lon="5.81903">
        <ele>164.80000305176</ele>
        <time>2018-04-02T14:57:54.000Z</time>
      </trkpt>
      <trkpt lat="43.19271" lon="5.81952">
        <ele>165</ele>
        <time>2018-04-02T14:58:02.000Z</time>
      </trkpt>
      <trkpt lat="43.19266" lon="5.81957">
        <ele>165</ele>
        <time>2018-04-02T14:58:03.000Z</time>
      </trkpt>
      <trkpt lat="43.19246" lon="5.81978">
        <ele>164.80000305176</ele>
        <time>2018-04-02T14:58:08.000Z</time>
      </trkpt>
      <trkpt lat="43.19241" lon="5.81982">
        <ele>164.60000610352</ele>
        <time>2018-04-02T14:58:09.000Z</time>
      </trkpt>
      <trkpt lat="43.19222" lon="5.81993">
        <ele>164.19999694824</ele>
        <time>2018-04-02T14:58:13.000Z</time>
      </trkpt>
      <trkpt lat="43.19216" lon="5.81996">
        <ele>164.19999694824</ele>
        <time>2018-04-02T14:58:14.000Z</time>
      </trkpt>
      <trkpt lat="43.19184" lon="5.82018">
        <ele>164</ele>
        <time>2018-04-02T14:58:20.000Z</time>
      </trkpt>
      <trkpt lat="43.19164" lon="5.82037">
        <ele>164.39999389648</ele>
        <time>2018-04-02T14:58:24.000Z</time>
      </trkpt>
      <trkpt lat="43.1915" lon="5.82051">
        <ele>164</ele>
        <time>2018-04-02T14:58:27.000Z</time>
      </trkpt>
      <trkpt lat="43.19132" lon="5.82055">
        <ele>164</ele>
        <time>2018-04-02T14:58:30.000Z</time>
      </trkpt>
      <trkpt lat="43.19126" lon="5.82056">
        <ele>164</ele>
        <time>2018-04-02T14:58:31.000Z</time>
      </trkpt>
      <trkpt lat="43.19114" lon="5.82059">
        <ele>164</ele>
        <time>2018-04-02T14:58:33.000Z</time>
      </trkpt>
      <trkpt lat="43.19103" lon="5.82066">
        <ele>164.19999694824</ele>
        <time>2018-04-02T14:58:35.000Z</time>
      </trkpt>
      <trkpt lat="43.19063" lon="5.82091">
        <ele>166.39999389648</ele>
        <time>2018-04-02T14:58:42.000Z</time>
      </trkpt>
      <trkpt lat="43.1905" lon="5.82096">
        <ele>167</ele>
        <time>2018-04-02T14:58:44.000Z</time>
      </trkpt>
      <trkpt lat="43.1902" lon="5.82111">
        <ele>166.60000610352</ele>
        <time>2018-04-02T14:58:49.000Z</time>
      </trkpt>
      <trkpt lat="43.18981" lon="5.82115">
        <ele>166.39999389648</ele>
        <time>2018-04-02T14:58:55.000Z</time>
      </trkpt>
      <trkpt lat="43.18961" lon="5.82115">
        <ele>166.60000610352</ele>
        <time>2018-04-02T14:58:58.000Z</time>
      </trkpt>
      <trkpt lat="43.18942" lon="5.82112">
        <ele>166.80000305176</ele>
        <time>2018-04-02T14:59:01.000Z</time>
      </trkpt>
      <trkpt lat="43.18935" lon="5.82111">
        <ele>167</ele>
        <time>2018-04-02T14:59:02.000Z</time>
      </trkpt>
      <trkpt lat="43.18877" lon="5.82098">
        <ele>166.80000305176</ele>
        <time>2018-04-02T14:59:11.000Z</time>
      </trkpt>
      <trkpt lat="43.18864" lon="5.82094">
        <ele>166.80000305176</ele>
        <time>2018-04-02T14:59:13.000Z</time>
      </trkpt>
      <trkpt lat="43.18858" lon="5.82091">
        <ele>166.80000305176</ele>
        <time>2018-04-02T14:59:14.000Z</time>
      </trkpt>
      <trkpt lat="43.18839" lon="5.82082">
        <ele>166.80000305176</ele>
        <time>2018-04-02T14:59:17.000Z</time>
      </trkpt>
      <trkpt lat="43.18822" lon="5.82069">
        <ele>167.39999389648</ele>
        <time>2018-04-02T14:59:20.000Z</time>
      </trkpt>
      <trkpt lat="43.18812" lon="5.82057">
        <ele>167.80000305176</ele>
        <time>2018-04-02T14:59:22.000Z</time>
      </trkpt>
      <trkpt lat="43.18778" lon="5.82022">
        <ele>169.39999389648</ele>
        <time>2018-04-02T14:59:29.000Z</time>
      </trkpt>
      <trkpt lat="43.18746" lon="5.81985">
        <ele>171.60000610352</ele>
        <time>2018-04-02T14:59:37.000Z</time>
      </trkpt>
      <trkpt lat="43.18743" lon="5.81982">
        <ele>171.80000305176</ele>
        <time>2018-04-02T14:59:38.000Z</time>
      </trkpt>
      <trkpt lat="43.18735" lon="5.81981">
        <ele>172.39999389648</ele>
        <time>2018-04-02T14:59:41.000Z</time>
      </trkpt>
      <trkpt lat="43.18721" lon="5.81997">
        <ele>172.80000305176</ele>
        <time>2018-04-02T14:59:45.000Z</time>
      </trkpt>
      <trkpt lat="43.1869" lon="5.82031">
        <ele>173.19999694824</ele>
        <time>2018-04-02T14:59:52.000Z</time>
      </trkpt>
      <trkpt lat="43.18654" lon="5.8207">
        <ele>173.19999694824</ele>
        <time>2018-04-02T15:00:01.000Z</time>
      </trkpt>
      <trkpt lat="43.18633" lon="5.82082">
        <ele>173.39999389648</ele>
        <time>2018-04-02T15:00:07.000Z</time>
      </trkpt>
      <trkpt lat="43.18628" lon="5.82069">
        <ele>173.80000305176</ele>
        <time>2018-04-02T15:00:10.000Z</time>
      </trkpt>
      <trkpt lat="43.18627" lon="5.82063">
        <ele>174</ele>
        <time>2018-04-02T15:00:11.000Z</time>
      </trkpt>
      <trkpt lat="43.18622" lon="5.82039">
        <ele>175</ele>
        <time>2018-04-02T15:00:15.000Z</time>
      </trkpt>
      <trkpt lat="43.18621" lon="5.82033">
        <ele>175.19999694824</ele>
        <time>2018-04-02T15:00:16.000Z</time>
      </trkpt>
      <trkpt lat="43.18614" lon="5.82003">
        <ele>176.39999389648</ele>
        <time>2018-04-02T15:00:21.000Z</time>
      </trkpt>
      <trkpt lat="43.18609" lon="5.81986">
        <ele>177.19999694824</ele>
        <time>2018-04-02T15:00:24.000Z</time>
      </trkpt>
      <trkpt lat="43.18605" lon="5.81974">
        <ele>177.60000610352</ele>
        <time>2018-04-02T15:00:26.000Z</time>
      </trkpt>
      <trkpt lat="43.18598" lon="5.81952">
        <ele>178.60000610352</ele>
        <time>2018-04-02T15:00:30.000Z</time>
      </trkpt>
      <trkpt lat="43.18593" lon="5.81937">
        <ele>179.39999389648</ele>
        <time>2018-04-02T15:00:33.000Z</time>
      </trkpt>
      <trkpt lat="43.18591" lon="5.81931">
        <ele>179.60000610352</ele>
        <time>2018-04-02T15:00:34.000Z</time>
      </trkpt>
      <trkpt lat="43.18583" lon="5.81909">
        <ele>180.60000610352</ele>
        <time>2018-04-02T15:00:39.000Z</time>
      </trkpt>
      <trkpt lat="43.18582" lon="5.81903">
        <ele>180.80000305176</ele>
        <time>2018-04-02T15:00:41.000Z</time>
      </trkpt>
      <trkpt lat="43.18582" lon="5.81901">
        <ele>180.80000305176</ele>
        <time>2018-04-02T15:00:42.000Z</time>
      </trkpt>
      <trkpt lat="43.18582" lon="5.81898">
        <ele>181</ele>
        <time>2018-04-02T15:00:45.000Z</time>
      </trkpt>
      <trkpt lat="43.18581" lon="5.81895">
        <ele>181.19999694824</ele>
        <time>2018-04-02T15:00:50.000Z</time>
      </trkpt>
      <trkpt lat="43.1858" lon="5.81889">
        <ele>181.39999389648</ele>
        <time>2018-04-02T15:00:52.000Z</time>
      </trkpt>
      <trkpt lat="43.18574" lon="5.81876">
        <ele>182.39999389648</ele>
        <time>2018-04-02T15:00:55.000Z</time>
      </trkpt>
      <trkpt lat="43.18572" lon="5.8187">
        <ele>182.80000305176</ele>
        <time>2018-04-02T15:00:56.000Z</time>
      </trkpt>
      <trkpt lat="43.1857" lon="5.81865">
        <ele>183.39999389648</ele>
        <time>2018-04-02T15:00:57.000Z</time>
      </trkpt>
      <trkpt lat="43.18566" lon="5.81847">
        <ele>184</ele>
        <time>2018-04-02T15:01:00.000Z</time>
      </trkpt>
      <trkpt lat="43.18563" lon="5.81835">
        <ele>184.19999694824</ele>
        <time>2018-04-02T15:01:02.000Z</time>
      </trkpt>
      <trkpt lat="43.1856" lon="5.81816">
        <ele>184.80000305176</ele>
        <time>2018-04-02T15:01:05.000Z</time>
      </trkpt>
      <trkpt lat="43.18558" lon="5.8181">
        <ele>185</ele>
        <time>2018-04-02T15:01:06.000Z</time>
      </trkpt>
      <trkpt lat="43.18552" lon="5.81794">
        <ele>185.60000610352</ele>
        <time>2018-04-02T15:01:09.000Z</time>
      </trkpt>
      <trkpt lat="43.1854" lon="5.81772">
        <ele>186.60000610352</ele>
        <time>2018-04-02T15:01:13.000Z</time>
      </trkpt>
      <trkpt lat="43.18533" lon="5.81763">
        <ele>187.19999694824</ele>
        <time>2018-04-02T15:01:15.000Z</time>
      </trkpt>
      <trkpt lat="43.18529" lon="5.81759">
        <ele>187.60000610352</ele>
        <time>2018-04-02T15:01:16.000Z</time>
      </trkpt>
      <trkpt lat="43.18513" lon="5.81735">
        <ele>188.80000305176</ele>
        <time>2018-04-02T15:01:21.000Z</time>
      </trkpt>
      <trkpt lat="43.1851" lon="5.81729">
        <ele>189</ele>
        <time>2018-04-02T15:01:22.000Z</time>
      </trkpt>
      <trkpt lat="43.18507" lon="5.81717">
        <ele>189.39999389648</ele>
        <time>2018-04-02T15:01:24.000Z</time>
      </trkpt>
      <trkpt lat="43.18504" lon="5.81699">
        <ele>189.80000305176</ele>
        <time>2018-04-02T15:01:27.000Z</time>
      </trkpt>
      <trkpt lat="43.18503" lon="5.81693">
        <ele>189.80000305176</ele>
        <time>2018-04-02T15:01:28.000Z</time>
      </trkpt>
      <trkpt lat="43.18502" lon="5.81686">
        <ele>190</ele>
        <time>2018-04-02T15:01:29.000Z</time>
      </trkpt>
      <trkpt lat="43.1849" lon="5.81663">
        <ele>191</ele>
        <time>2018-04-02T15:01:33.000Z</time>
      </trkpt>
      <trkpt lat="43.18486" lon="5.81658">
        <ele>191.19999694824</ele>
        <time>2018-04-02T15:01:34.000Z</time>
      </trkpt>
      <trkpt lat="43.18471" lon="5.81639">
        <ele>192.39999389648</ele>
        <time>2018-04-02T15:01:38.000Z</time>
      </trkpt>
      <trkpt lat="43.1846" lon="5.81627">
        <ele>193.60000610352</ele>
        <time>2018-04-02T15:01:41.000Z</time>
      </trkpt>
      <trkpt lat="43.18456" lon="5.81624">
        <ele>194</ele>
        <time>2018-04-02T15:01:42.000Z</time>
      </trkpt>
      <trkpt lat="43.18443" lon="5.81617">
        <ele>195.19999694824</ele>
        <time>2018-04-02T15:01:45.000Z</time>
      </trkpt>
      <trkpt lat="43.18439" lon="5.81613">
        <ele>195.60000610352</ele>
        <time>2018-04-02T15:01:46.000Z</time>
      </trkpt>
      <trkpt lat="43.18436" lon="5.81608">
        <ele>196</ele>
        <time>2018-04-02T15:01:47.000Z</time>
      </trkpt>
      <trkpt lat="43.1843" lon="5.81591">
        <ele>197.19999694824</ele>
        <time>2018-04-02T15:01:50.000Z</time>
      </trkpt>
      <trkpt lat="43.18422" lon="5.8157">
        <ele>198.80000305176</ele>
        <time>2018-04-02T15:01:54.000Z</time>
      </trkpt>
      <trkpt lat="43.18418" lon="5.81554">
        <ele>200</ele>
        <time>2018-04-02T15:01:57.000Z</time>
      </trkpt>
      <trkpt lat="43.18415" lon="5.81542">
        <ele>201</ele>
        <time>2018-04-02T15:01:59.000Z</time>
      </trkpt>
      <trkpt lat="43.18413" lon="5.8153">
        <ele>202.39999389648</ele>
        <time>2018-04-02T15:02:01.000Z</time>
      </trkpt>
      <trkpt lat="43.18409" lon="5.81499">
        <ele>205.60000610352</ele>
        <time>2018-04-02T15:02:06.000Z</time>
      </trkpt>
      <trkpt lat="43.18408" lon="5.81493">
        <ele>206.19999694824</ele>
        <time>2018-04-02T15:02:07.000Z</time>
      </trkpt>
      <trkpt lat="43.18407" lon="5.81472">
        <ele>208.19999694824</ele>
        <time>2018-04-02T15:02:11.000Z</time>
      </trkpt>
      <trkpt lat="43.18406" lon="5.81467">
        <ele>208.80000305176</ele>
        <time>2018-04-02T15:02:12.000Z</time>
      </trkpt>
      <trkpt lat="43.18405" lon="5.81453">
        <ele>210.19999694824</ele>
        <time>2018-04-02T15:02:15.000Z</time>
      </trkpt>
      <trkpt lat="43.18402" lon="5.81451">
        <ele>210.60000610352</ele>
        <time>2018-04-02T15:02:16.000Z</time>
      </trkpt>
      <trkpt lat="43.18398" lon="5.81453">
        <ele>210.60000610352</ele>
        <time>2018-04-02T15:02:17.000Z</time>
      </trkpt>
      <trkpt lat="43.18394" lon="5.81456">
        <ele>210.60000610352</ele>
        <time>2018-04-02T15:02:18.000Z</time>
      </trkpt>
      <trkpt lat="43.18388" lon="5.81462">
        <ele>210.39999389648</ele>
        <time>2018-04-02T15:02:20.000Z</time>
      </trkpt>
      <trkpt lat="43.18385" lon="5.81465">
        <ele>210.19999694824</ele>
        <time>2018-04-02T15:02:21.000Z</time>
      </trkpt>
      <trkpt lat="43.18378" lon="5.81472">
        <ele>210</ele>
        <time>2018-04-02T15:02:23.000Z</time>
      </trkpt>
      <trkpt lat="43.18367" lon="5.81482">
        <ele>209.60000610352</ele>
        <time>2018-04-02T15:02:26.000Z</time>
      </trkpt>
      <trkpt lat="43.1836" lon="5.81489">
        <ele>209.60000610352</ele>
        <time>2018-04-02T15:02:28.000Z</time>
      </trkpt>
      <trkpt lat="43.18352" lon="5.81496">
        <ele>209.80000305176</ele>
        <time>2018-04-02T15:02:30.000Z</time>
      </trkpt>
      <trkpt lat="43.18345" lon="5.81503">
        <ele>210.19999694824</ele>
        <time>2018-04-02T15:02:32.000Z</time>
      </trkpt>
      <trkpt lat="43.18337" lon="5.81508">
        <ele>211</ele>
        <time>2018-04-02T15:02:34.000Z</time>
      </trkpt>
      <trkpt lat="43.18332" lon="5.8151">
        <ele>211.39999389648</ele>
        <time>2018-04-02T15:02:35.000Z</time>
      </trkpt>
      <trkpt lat="43.18328" lon="5.81512">
        <ele>211.80000305176</ele>
        <time>2018-04-02T15:02:36.000Z</time>
      </trkpt>
      <trkpt lat="43.18313" lon="5.81518">
        <ele>213.39999389648</ele>
        <time>2018-04-02T15:02:39.000Z</time>
      </trkpt>
      <trkpt lat="43.18294" lon="5.81526">
        <ele>214.39999389648</ele>
        <time>2018-04-02T15:02:43.000Z</time>
      </trkpt>
      <trkpt lat="43.18285" lon="5.81529">
        <ele>215</ele>
        <time>2018-04-02T15:02:45.000Z</time>
      </trkpt>
      <trkpt lat="43.1828" lon="5.8153">
        <ele>215.19999694824</ele>
        <time>2018-04-02T15:02:46.000Z</time>
      </trkpt>
      <trkpt lat="43.1825" lon="5.81533">
        <ele>217.80000305176</ele>
        <time>2018-04-02T15:02:52.000Z</time>
      </trkpt>
      <trkpt lat="43.18235" lon="5.81537">
        <ele>219.19999694824</ele>
        <time>2018-04-02T15:02:55.000Z</time>
      </trkpt>
      <trkpt lat="43.18215" lon="5.81546">
        <ele>220.60000610352</ele>
        <time>2018-04-02T15:02:59.000Z</time>
      </trkpt>
      <trkpt lat="43.18202" lon="5.81552">
        <ele>221.39999389648</ele>
        <time>2018-04-02T15:03:02.000Z</time>
      </trkpt>
      <trkpt lat="43.1819" lon="5.81559">
        <ele>222.19999694824</ele>
        <time>2018-04-02T15:03:05.000Z</time>
      </trkpt>
      <trkpt lat="43.18182" lon="5.81563">
        <ele>222.60000610352</ele>
        <time>2018-04-02T15:03:07.000Z</time>
      </trkpt>
      <trkpt lat="43.18178" lon="5.81566">
        <ele>222.60000610352</ele>
        <time>2018-04-02T15:03:08.000Z</time>
      </trkpt>
      <trkpt lat="43.18164" lon="5.81574">
        <ele>223</ele>
        <time>2018-04-02T15:03:11.000Z</time>
      </trkpt>
      <trkpt lat="43.18155" lon="5.81578">
        <ele>223.60000610352</ele>
        <time>2018-04-02T15:03:13.000Z</time>
      </trkpt>
      <trkpt lat="43.1815" lon="5.81579">
        <ele>223.80000305176</ele>
        <time>2018-04-02T15:03:14.000Z</time>
      </trkpt>
      <trkpt lat="43.18145" lon="5.81579">
        <ele>224.39999389648</ele>
        <time>2018-04-02T15:03:15.000Z</time>
      </trkpt>
      <trkpt lat="43.1814" lon="5.8158">
        <ele>224.80000305176</ele>
        <time>2018-04-02T15:03:16.000Z</time>
      </trkpt>
      <trkpt lat="43.18131" lon="5.8158">
        <ele>225.80000305176</ele>
        <time>2018-04-02T15:03:18.000Z</time>
      </trkpt>
      <trkpt lat="43.18126" lon="5.8158">
        <ele>226.39999389648</ele>
        <time>2018-04-02T15:03:19.000Z</time>
      </trkpt>
      <trkpt lat="43.18121" lon="5.8158">
        <ele>226.80000305176</ele>
        <time>2018-04-02T15:03:20.000Z</time>
      </trkpt>
      <trkpt lat="43.18117" lon="5.8158">
        <ele>227.39999389648</ele>
        <time>2018-04-02T15:03:21.000Z</time>
      </trkpt>
      <trkpt lat="43.18105" lon="5.81579">
        <ele>228.60000610352</ele>
        <time>2018-04-02T15:03:24.000Z</time>
      </trkpt>
      <trkpt lat="43.18097" lon="5.81575">
        <ele>230.19999694824</ele>
        <time>2018-04-02T15:03:27.000Z</time>
      </trkpt>
      <trkpt lat="43.18095" lon="5.8157">
        <ele>231</ele>
        <time>2018-04-02T15:03:28.000Z</time>
      </trkpt>
      <trkpt lat="43.18093" lon="5.81566">
        <ele>231.80000305176</ele>
        <time>2018-04-02T15:03:29.000Z</time>
      </trkpt>
      <trkpt lat="43.1809" lon="5.81557">
        <ele>233</ele>
        <time>2018-04-02T15:03:31.000Z</time>
      </trkpt>
      <trkpt lat="43.18086" lon="5.81551">
        <ele>234.60000610352</ele>
        <time>2018-04-02T15:03:33.000Z</time>
      </trkpt>
      <trkpt lat="43.18083" lon="5.81551">
        <ele>234.80000305176</ele>
        <time>2018-04-02T15:03:34.000Z</time>
      </trkpt>
      <trkpt lat="43.18079" lon="5.81553">
        <ele>234.60000610352</ele>
        <time>2018-04-02T15:03:35.000Z</time>
      </trkpt>
      <trkpt lat="43.18071" lon="5.81556">
        <ele>234.39999389648</ele>
        <time>2018-04-02T15:03:37.000Z</time>
      </trkpt>
      <trkpt lat="43.18067" lon="5.81558">
        <ele>234.39999389648</ele>
        <time>2018-04-02T15:03:38.000Z</time>
      </trkpt>
      <trkpt lat="43.18058" lon="5.81562">
        <ele>234.19999694824</ele>
        <time>2018-04-02T15:03:40.000Z</time>
      </trkpt>
      <trkpt lat="43.1804" lon="5.81572">
        <ele>234</ele>
        <time>2018-04-02T15:03:44.000Z</time>
      </trkpt>
      <trkpt lat="43.18032" lon="5.81576">
        <ele>234</ele>
        <time>2018-04-02T15:03:46.000Z</time>
      </trkpt>
      <trkpt lat="43.18023" lon="5.81573">
        <ele>234.80000305176</ele>
        <time>2018-04-02T15:03:48.000Z</time>
      </trkpt>
      <trkpt lat="43.18014" lon="5.8157">
        <ele>235.60000610352</ele>
        <time>2018-04-02T15:03:50.000Z</time>
      </trkpt>
      <trkpt lat="43.18009" lon="5.81568">
        <ele>236</ele>
        <time>2018-04-02T15:03:51.000Z</time>
      </trkpt>
      <trkpt lat="43.17995" lon="5.81565">
        <ele>236.80000305176</ele>
        <time>2018-04-02T15:03:54.000Z</time>
      </trkpt>
      <trkpt lat="43.1798" lon="5.81561">
        <ele>237.80000305176</ele>
        <time>2018-04-02T15:03:57.000Z</time>
      </trkpt>
      <trkpt lat="43.17975" lon="5.8156">
        <ele>238</ele>
        <time>2018-04-02T15:03:58.000Z</time>
      </trkpt>
      <trkpt lat="43.17965" lon="5.81559">
        <ele>238.60000610352</ele>
        <time>2018-04-02T15:04:00.000Z</time>
      </trkpt>
      <trkpt lat="43.17937" lon="5.81555">
        <ele>239.80000305176</ele>
        <time>2018-04-02T15:04:06.000Z</time>
      </trkpt>
      <trkpt lat="43.17928" lon="5.81554">
        <ele>240.19999694824</ele>
        <time>2018-04-02T15:04:08.000Z</time>
      </trkpt>
      <trkpt lat="43.1792" lon="5.81549">
        <ele>240.19999694824</ele>
        <time>2018-04-02T15:04:10.000Z</time>
      </trkpt>
      <trkpt lat="43.17916" lon="5.81545">
        <ele>240.60000610352</ele>
        <time>2018-04-02T15:04:11.000Z</time>
      </trkpt>
      <trkpt lat="43.17914" lon="5.8154">
        <ele>241.19999694824</ele>
        <time>2018-04-02T15:04:12.000Z</time>
      </trkpt>
      <trkpt lat="43.17912" lon="5.81528">
        <ele>243</ele>
        <time>2018-04-02T15:04:14.000Z</time>
      </trkpt>
      <trkpt lat="43.17911" lon="5.81523">
        <ele>243.80000305176</ele>
        <time>2018-04-02T15:04:15.000Z</time>
      </trkpt>
      <trkpt lat="43.17909" lon="5.81517">
        <ele>244.60000610352</ele>
        <time>2018-04-02T15:04:16.000Z</time>
      </trkpt>
      <trkpt lat="43.17904" lon="5.81508">
        <ele>245.80000305176</ele>
        <time>2018-04-02T15:04:18.000Z</time>
      </trkpt>
      <trkpt lat="43.17901" lon="5.81503">
        <ele>246</ele>
        <time>2018-04-02T15:04:19.000Z</time>
      </trkpt>
      <trkpt lat="43.17897" lon="5.81499">
        <ele>246.39999389648</ele>
        <time>2018-04-02T15:04:20.000Z</time>
      </trkpt>
      <trkpt lat="43.17893" lon="5.81495">
        <ele>246.60000610352</ele>
        <time>2018-04-02T15:04:21.000Z</time>
      </trkpt>
      <trkpt lat="43.17885" lon="5.81487">
        <ele>247.19999694824</ele>
        <time>2018-04-02T15:04:23.000Z</time>
      </trkpt>
      <trkpt lat="43.17876" lon="5.81473">
        <ele>248.39999389648</ele>
        <time>2018-04-02T15:04:26.000Z</time>
      </trkpt>
      <trkpt lat="43.17875" lon="5.81456">
        <ele>251.60000610352</ele>
        <time>2018-04-02T15:04:29.000Z</time>
      </trkpt>
      <trkpt lat="43.17877" lon="5.8145">
        <ele>253</ele>
        <time>2018-04-02T15:04:30.000Z</time>
      </trkpt>
      <trkpt lat="43.17883" lon="5.81436">
        <ele>256</ele>
        <time>2018-04-02T15:04:32.000Z</time>
      </trkpt>
      <trkpt lat="43.17886" lon="5.81429">
        <ele>257.60000610352</ele>
        <time>2018-04-02T15:04:33.000Z</time>
      </trkpt>
      <trkpt lat="43.17893" lon="5.81405">
        <ele>261</ele>
        <time>2018-04-02T15:04:36.000Z</time>
      </trkpt>
      <trkpt lat="43.17894" lon="5.81397">
        <ele>262</ele>
        <time>2018-04-02T15:04:37.000Z</time>
      </trkpt>
      <trkpt lat="43.17893" lon="5.81391">
        <ele>262.60000610352</ele>
        <time>2018-04-02T15:04:38.000Z</time>
      </trkpt>
      <trkpt lat="43.17893" lon="5.81382">
        <ele>264.39999389648</ele>
        <time>2018-04-02T15:04:40.000Z</time>
      </trkpt>
      <trkpt lat="43.17889" lon="5.8137">
        <ele>267.39999389648</ele>
        <time>2018-04-02T15:05:18.000Z</time>
      </trkpt>
      <trkpt lat="43.1789" lon="5.81365">
        <ele>268.60000610352</ele>
        <time>2018-04-02T15:05:20.000Z</time>
      </trkpt>
      <trkpt lat="43.1789" lon="5.8136">
        <ele>270</ele>
        <time>2018-04-02T15:05:22.000Z</time>
      </trkpt>
      <trkpt lat="43.17889" lon="5.81354">
        <ele>271.39999389648</ele>
        <time>2018-04-02T15:05:24.000Z</time>
      </trkpt>
      <trkpt lat="43.17887" lon="5.81353">
        <ele>271.39999389648</ele>
        <time>2018-04-02T15:05:25.000Z</time>
      </trkpt>
      <trkpt lat="43.17885" lon="5.81353">
        <ele>271.39999389648</ele>
        <time>2018-04-02T15:05:26.000Z</time>
      </trkpt>
      <trkpt lat="43.17883" lon="5.81354">
        <ele>271</ele>
        <time>2018-04-02T15:05:27.000Z</time>
      </trkpt>
      <trkpt lat="43.1788" lon="5.81359">
        <ele>269.60000610352</ele>
        <time>2018-04-02T15:05:30.000Z</time>
      </trkpt>
      <trkpt lat="43.17879" lon="5.81364">
        <ele>268.39999389648</ele>
        <time>2018-04-02T15:05:32.000Z</time>
      </trkpt>
      <trkpt lat="43.17878" lon="5.81368">
        <ele>267.20001220703</ele>
        <time>2018-04-02T15:05:33.000Z</time>
      </trkpt>
      <trkpt lat="43.17871" lon="5.81376">
        <ele>264.79998779297</ele>
        <time>2018-04-02T15:05:35.000Z</time>
      </trkpt>
      <trkpt lat="43.17866" lon="5.81377">
        <ele>264.20001220703</ele>
        <time>2018-04-02T15:05:37.000Z</time>
      </trkpt>
      <trkpt lat="43.17864" lon="5.81375">
        <ele>264.60000610352</ele>
        <time>2018-04-02T15:05:38.000Z</time>
      </trkpt>
      <trkpt lat="43.17864" lon="5.81372">
        <ele>265.39999389648</ele>
        <time>2018-04-02T15:05:39.000Z</time>
      </trkpt>
      <trkpt lat="43.17865" lon="5.81366">
        <ele>267</ele>
        <time>2018-04-02T15:05:41.000Z</time>
      </trkpt>
      <trkpt lat="43.17867" lon="5.81361">
        <ele>268.20001220703</ele>
        <time>2018-04-02T15:05:42.000Z</time>
      </trkpt>
      <trkpt lat="43.17869" lon="5.81341">
        <ele>273.39999389648</ele>
        <time>2018-04-02T15:05:46.000Z</time>
      </trkpt>
      <trkpt lat="43.1787" lon="5.81336">
        <ele>274.79998779297</ele>
        <time>2018-04-02T15:05:47.000Z</time>
      </trkpt>
      <trkpt lat="43.17872" lon="5.81321">
        <ele>277</ele>
        <time>2018-04-02T15:05:50.000Z</time>
      </trkpt>
      <trkpt lat="43.17873" lon="5.81309">
        <ele>278.20001220703</ele>
        <time>2018-04-02T15:05:53.000Z</time>
      </trkpt>
      <trkpt lat="43.17874" lon="5.81301">
        <ele>279.39999389648</ele>
        <time>2018-04-02T15:05:55.000Z</time>
      </trkpt>
      <trkpt lat="43.17874" lon="5.81289">
        <ele>281.60000610352</ele>
        <time>2018-04-02T15:05:58.000Z</time>
      </trkpt>
      <trkpt lat="43.17874" lon="5.81285">
        <ele>282.39999389648</ele>
        <time>2018-04-02T15:05:59.000Z</time>
      </trkpt>
      <trkpt lat="43.17874" lon="5.81282">
        <ele>283.20001220703</ele>
        <time>2018-04-02T15:06:00.000Z</time>
      </trkpt>
      <trkpt lat="43.17874" lon="5.81275">
        <ele>284.39999389648</ele>
        <time>2018-04-02T15:06:02.000Z</time>
      </trkpt>
      <trkpt lat="43.17873" lon="5.8127">
        <ele>285.20001220703</ele>
        <time>2018-04-02T15:06:04.000Z</time>
      </trkpt>
      <trkpt lat="43.17873" lon="5.81267">
        <ele>286</ele>
        <time>2018-04-02T15:06:06.000Z</time>
      </trkpt>
      <trkpt lat="43.17872" lon="5.81262">
        <ele>287</ele>
        <time>2018-04-02T15:06:08.000Z</time>
      </trkpt>
      <trkpt lat="43.17872" lon="5.8126">
        <ele>287.39999389648</ele>
        <time>2018-04-02T15:06:09.000Z</time>
      </trkpt>
      <trkpt lat="43.17872" lon="5.81258">
        <ele>287.79998779297</ele>
        <time>2018-04-02T15:06:10.000Z</time>
      </trkpt>
      <trkpt lat="43.17872" lon="5.81256">
        <ele>288.20001220703</ele>
        <time>2018-04-02T15:06:11.000Z</time>
      </trkpt>
      <trkpt lat="43.17871" lon="5.81252">
        <ele>289</ele>
        <time>2018-04-02T15:06:12.000Z</time>
      </trkpt>
      <trkpt lat="43.1787" lon="5.81249">
        <ele>289.60000610352</ele>
        <time>2018-04-02T15:06:13.000Z</time>
      </trkpt>
      <trkpt lat="43.1787" lon="5.81243">
        <ele>290.79998779297</ele>
        <time>2018-04-02T15:06:15.000Z</time>
      </trkpt>
      <trkpt lat="43.1787" lon="5.81238">
        <ele>291.60000610352</ele>
        <time>2018-04-02T15:06:17.000Z</time>
      </trkpt>
      <trkpt lat="43.17872" lon="5.81231">
        <ele>292.39999389648</ele>
        <time>2018-04-02T15:06:19.000Z</time>
      </trkpt>
      <trkpt lat="43.17874" lon="5.81223">
        <ele>293.60000610352</ele>
        <time>2018-04-02T15:06:21.000Z</time>
      </trkpt>
      <trkpt lat="43.17875" lon="5.81219">
        <ele>294.20001220703</ele>
        <time>2018-04-02T15:06:22.000Z</time>
      </trkpt>
      <trkpt lat="43.17876" lon="5.81215">
        <ele>294.79998779297</ele>
        <time>2018-04-02T15:06:23.000Z</time>
      </trkpt>
      <trkpt lat="43.17877" lon="5.8121">
        <ele>295.79998779297</ele>
        <time>2018-04-02T15:06:24.000Z</time>
      </trkpt>
      <trkpt lat="43.17879" lon="5.81199">
        <ele>297.60000610352</ele>
        <time>2018-04-02T15:06:26.000Z</time>
      </trkpt>
      <trkpt lat="43.1788" lon="5.81185">
        <ele>300.20001220703</ele>
        <time>2018-04-02T15:06:28.000Z</time>
      </trkpt>
      <trkpt lat="43.17881" lon="5.81178">
        <ele>301.60000610352</ele>
        <time>2018-04-02T15:06:29.000Z</time>
      </trkpt>
      <trkpt lat="43.17881" lon="5.81171">
        <ele>302.60000610352</ele>
        <time>2018-04-02T15:06:30.000Z</time>
      </trkpt>
      <trkpt lat="43.17881" lon="5.81164">
        <ele>303.60000610352</ele>
        <time>2018-04-02T15:06:31.000Z</time>
      </trkpt>
      <trkpt lat="43.17882" lon="5.8115">
        <ele>305.60000610352</ele>
        <time>2018-04-02T15:06:33.000Z</time>
      </trkpt>
      <trkpt lat="43.17882" lon="5.81143">
        <ele>306.39999389648</ele>
        <time>2018-04-02T15:06:34.000Z</time>
      </trkpt>
      <trkpt lat="43.17884" lon="5.8113">
        <ele>307.20001220703</ele>
        <time>2018-04-02T15:06:36.000Z</time>
      </trkpt>
      <trkpt lat="43.17898" lon="5.81082">
        <ele>306.79998779297</ele>
        <time>2018-04-02T15:06:42.000Z</time>
      </trkpt>
      <trkpt lat="43.17902" lon="5.81063">
        <ele>306.60000610352</ele>
        <time>2018-04-02T15:06:45.000Z</time>
      </trkpt>
      <trkpt lat="43.17902" lon="5.81056">
        <ele>306.60000610352</ele>
        <time>2018-04-02T15:06:46.000Z</time>
      </trkpt>
      <trkpt lat="43.179" lon="5.81041">
        <ele>305</ele>
        <time>2018-04-02T15:06:49.000Z</time>
      </trkpt>
      <trkpt lat="43.17899" lon="5.81035">
        <ele>304.60000610352</ele>
        <time>2018-04-02T15:06:50.000Z</time>
      </trkpt>
      <trkpt lat="43.17892" lon="5.81022">
        <ele>304</ele>
        <time>2018-04-02T15:06:53.000Z</time>
      </trkpt>
      <trkpt lat="43.17888" lon="5.81017">
        <ele>304.20001220703</ele>
        <time>2018-04-02T15:06:54.000Z</time>
      </trkpt>
      <trkpt lat="43.17869" lon="5.81">
        <ele>305.39999389648</ele>
        <time>2018-04-02T15:06:58.000Z</time>
      </trkpt>
      <trkpt lat="43.17853" lon="5.80987">
        <ele>306.60000610352</ele>
        <time>2018-04-02T15:07:01.000Z</time>
      </trkpt>
      <trkpt lat="43.17837" lon="5.80971">
        <ele>307.20001220703</ele>
        <time>2018-04-02T15:07:05.000Z</time>
      </trkpt>
      <trkpt lat="43.17833" lon="5.80961">
        <ele>307.60000610352</ele>
        <time>2018-04-02T15:07:07.000Z</time>
      </trkpt>
      <trkpt lat="43.17835" lon="5.8095">
        <ele>307.20001220703</ele>
        <time>2018-04-02T15:07:09.000Z</time>
      </trkpt>
      <trkpt lat="43.17837" lon="5.80945">
        <ele>307</ele>
        <time>2018-04-02T15:07:10.000Z</time>
      </trkpt>
      <trkpt lat="43.17839" lon="5.8094">
        <ele>306.60000610352</ele>
        <time>2018-04-02T15:07:11.000Z</time>
      </trkpt>
      <trkpt lat="43.1785" lon="5.80919">
        <ele>305.60000610352</ele>
        <time>2018-04-02T15:07:15.000Z</time>
      </trkpt>
      <trkpt lat="43.17855" lon="5.80905">
        <ele>305.20001220703</ele>
        <time>2018-04-02T15:07:18.000Z</time>
      </trkpt>
      <trkpt lat="43.17854" lon="5.809">
        <ele>305.20001220703</ele>
        <time>2018-04-02T15:07:19.000Z</time>
      </trkpt>
      <trkpt lat="43.17852" lon="5.80895">
        <ele>305.39999389648</ele>
        <time>2018-04-02T15:07:20.000Z</time>
      </trkpt>
      <trkpt lat="43.17849" lon="5.80892">
        <ele>305.79998779297</ele>
        <time>2018-04-02T15:07:21.000Z</time>
      </trkpt>
      <trkpt lat="43.17841" lon="5.80888">
        <ele>306.60000610352</ele>
        <time>2018-04-02T15:07:23.000Z</time>
      </trkpt>
      <trkpt lat="43.17832" lon="5.80883">
        <ele>307.39999389648</ele>
        <time>2018-04-02T15:07:25.000Z</time>
      </trkpt>
      <trkpt lat="43.17826" lon="5.80874">
        <ele>308</ele>
        <time>2018-04-02T15:07:27.000Z</time>
      </trkpt>
      <trkpt lat="43.17822" lon="5.80863">
        <ele>308.60000610352</ele>
        <time>2018-04-02T15:07:29.000Z</time>
      </trkpt>
      <trkpt lat="43.1782" lon="5.80857">
        <ele>309.20001220703</ele>
        <time>2018-04-02T15:07:30.000Z</time>
      </trkpt>
      <trkpt lat="43.17818" lon="5.80851">
        <ele>310</ele>
        <time>2018-04-02T15:07:31.000Z</time>
      </trkpt>
      <trkpt lat="43.17815" lon="5.8084">
        <ele>311.39999389648</ele>
        <time>2018-04-02T15:07:33.000Z</time>
      </trkpt>
      <trkpt lat="43.17813" lon="5.80835">
        <ele>311.79998779297</ele>
        <time>2018-04-02T15:07:34.000Z</time>
      </trkpt>
      <trkpt lat="43.17811" lon="5.80831">
        <ele>312.39999389648</ele>
        <time>2018-04-02T15:07:35.000Z</time>
      </trkpt>
      <trkpt lat="43.17808" lon="5.80826">
        <ele>313</ele>
        <time>2018-04-02T15:07:36.000Z</time>
      </trkpt>
      <trkpt lat="43.17801" lon="5.80818">
        <ele>313.79998779297</ele>
        <time>2018-04-02T15:07:38.000Z</time>
      </trkpt>
      <trkpt lat="43.17797" lon="5.80814">
        <ele>314.20001220703</ele>
        <time>2018-04-02T15:07:39.000Z</time>
      </trkpt>
      <trkpt lat="43.17791" lon="5.80806">
        <ele>315</ele>
        <time>2018-04-02T15:07:41.000Z</time>
      </trkpt>
      <trkpt lat="43.17783" lon="5.80791">
        <ele>316.79998779297</ele>
        <time>2018-04-02T15:07:44.000Z</time>
      </trkpt>
      <trkpt lat="43.17778" lon="5.80781">
        <ele>318.20001220703</ele>
        <time>2018-04-02T15:07:46.000Z</time>
      </trkpt>
      <trkpt lat="43.17773" lon="5.80771">
        <ele>319.39999389648</ele>
        <time>2018-04-02T15:07:48.000Z</time>
      </trkpt>
      <trkpt lat="43.17761" lon="5.80747">
        <ele>322.39999389648</ele>
        <time>2018-04-02T15:07:53.000Z</time>
      </trkpt>
      <trkpt lat="43.17758" lon="5.80743">
        <ele>322.79998779297</ele>
        <time>2018-04-02T15:07:54.000Z</time>
      </trkpt>
      <trkpt lat="43.17756" lon="5.80738">
        <ele>323.20001220703</ele>
        <time>2018-04-02T15:07:55.000Z</time>
      </trkpt>
      <trkpt lat="43.1775" lon="5.8073">
        <ele>324.20001220703</ele>
        <time>2018-04-02T15:07:58.000Z</time>
      </trkpt>
      <trkpt lat="43.17749" lon="5.80729">
        <ele>324.20001220703</ele>
        <time>2018-04-02T15:07:59.000Z</time>
      </trkpt>
      <trkpt lat="43.17744" lon="5.80727">
        <ele>324.20001220703</ele>
        <time>2018-04-02T15:08:02.000Z</time>
      </trkpt>
      <trkpt lat="43.17741" lon="5.80728">
        <ele>323.79998779297</ele>
        <time>2018-04-02T15:08:04.000Z</time>
      </trkpt>
      <trkpt lat="43.17724" lon="5.80739">
        <ele>321.20001220703</ele>
        <time>2018-04-02T15:08:10.000Z</time>
      </trkpt>
      <trkpt lat="43.17703" lon="5.80759">
        <ele>319.20001220703</ele>
        <time>2018-04-02T15:08:16.000Z</time>
      </trkpt>
      <trkpt lat="43.17684" lon="5.80782">
        <ele>321.79998779297</ele>
        <time>2018-04-02T15:08:22.000Z</time>
      </trkpt>
      <trkpt lat="43.17682" lon="5.8079">
        <ele>322.20001220703</ele>
        <time>2018-04-02T15:08:24.000Z</time>
      </trkpt>
      <trkpt lat="43.1768" lon="5.808">
        <ele>322.60000610352</ele>
        <time>2018-04-02T15:08:26.000Z</time>
      </trkpt>
      <trkpt lat="43.17677" lon="5.80811">
        <ele>323.39999389648</ele>
        <time>2018-04-02T15:08:28.000Z</time>
      </trkpt>
      <trkpt lat="43.17667" lon="5.80837">
        <ele>324.39999389648</ele>
        <time>2018-04-02T15:08:33.000Z</time>
      </trkpt>
      <trkpt lat="43.17653" lon="5.80847">
        <ele>323.20001220703</ele>
        <time>2018-04-02T15:08:37.000Z</time>
      </trkpt>
      <trkpt lat="43.17649" lon="5.80848">
        <ele>322.79998779297</ele>
        <time>2018-04-02T15:08:38.000Z</time>
      </trkpt>
      <trkpt lat="43.17632" lon="5.80851">
        <ele>321.60000610352</ele>
        <time>2018-04-02T15:08:42.000Z</time>
      </trkpt>
      <trkpt lat="43.17627" lon="5.80853">
        <ele>321.60000610352</ele>
        <time>2018-04-02T15:08:43.000Z</time>
      </trkpt>
      <trkpt lat="43.17612" lon="5.80858">
        <ele>321.79998779297</ele>
        <time>2018-04-02T15:08:46.000Z</time>
      </trkpt>
      <trkpt lat="43.176" lon="5.8086">
        <ele>321.39999389648</ele>
        <time>2018-04-02T15:08:48.000Z</time>
      </trkpt>
      <trkpt lat="43.1758" lon="5.80873">
        <ele>321.79998779297</ele>
        <time>2018-04-02T15:08:51.000Z</time>
      </trkpt>
      <trkpt lat="43.17551" lon="5.80892">
        <ele>321.20001220703</ele>
        <time>2018-04-02T15:08:56.000Z</time>
      </trkpt>
      <trkpt lat="43.17532" lon="5.80907">
        <ele>318.60000610352</ele>
        <time>2018-04-02T15:09:00.000Z</time>
      </trkpt>
      <trkpt lat="43.17524" lon="5.80916">
        <ele>318.20001220703</ele>
        <time>2018-04-02T15:09:02.000Z</time>
      </trkpt>
      <trkpt lat="43.175" lon="5.80941">
        <ele>317.20001220703</ele>
        <time>2018-04-02T15:09:08.000Z</time>
      </trkpt>
      <trkpt lat="43.17494" lon="5.80945">
        <ele>317</ele>
        <time>2018-04-02T15:09:09.000Z</time>
      </trkpt>
      <trkpt lat="43.17479" lon="5.80955">
        <ele>315.20001220703</ele>
        <time>2018-04-02T15:09:12.000Z</time>
      </trkpt>
      <trkpt lat="43.17461" lon="5.80963">
        <ele>312.60000610352</ele>
        <time>2018-04-02T15:09:15.000Z</time>
      </trkpt>
      <trkpt lat="43.17444" lon="5.80973">
        <ele>310</ele>
        <time>2018-04-02T15:09:18.000Z</time>
      </trkpt>
      <trkpt lat="43.17439" lon="5.80979">
        <ele>308.79998779297</ele>
        <time>2018-04-02T15:09:19.000Z</time>
      </trkpt>
      <trkpt lat="43.17434" lon="5.80985">
        <ele>308.20001220703</ele>
        <time>2018-04-02T15:09:20.000Z</time>
      </trkpt>
      <trkpt lat="43.17428" lon="5.80992">
        <ele>308</ele>
        <time>2018-04-02T15:09:21.000Z</time>
      </trkpt>
      <trkpt lat="43.1742" lon="5.81004">
        <ele>306.20001220703</ele>
        <time>2018-04-02T15:09:23.000Z</time>
      </trkpt>
      <trkpt lat="43.17413" lon="5.81009">
        <ele>304.60000610352</ele>
        <time>2018-04-02T15:09:25.000Z</time>
      </trkpt>
      <trkpt lat="43.17408" lon="5.81009">
        <ele>303.60000610352</ele>
        <time>2018-04-02T15:09:26.000Z</time>
      </trkpt>
      <trkpt lat="43.17402" lon="5.81006">
        <ele>302.39999389648</ele>
        <time>2018-04-02T15:09:27.000Z</time>
      </trkpt>
      <trkpt lat="43.17396" lon="5.81">
        <ele>301</ele>
        <time>2018-04-02T15:09:28.000Z</time>
      </trkpt>
      <trkpt lat="43.17389" lon="5.80995">
        <ele>299.60000610352</ele>
        <time>2018-04-02T15:09:29.000Z</time>
      </trkpt>
      <trkpt lat="43.17375" lon="5.80984">
        <ele>296.60000610352</ele>
        <time>2018-04-02T15:09:31.000Z</time>
      </trkpt>
      <trkpt lat="43.17369" lon="5.80979">
        <ele>295.20001220703</ele>
        <time>2018-04-02T15:09:32.000Z</time>
      </trkpt>
      <trkpt lat="43.17363" lon="5.80974">
        <ele>294</ele>
        <time>2018-04-02T15:09:33.000Z</time>
      </trkpt>
      <trkpt lat="43.17358" lon="5.80969">
        <ele>292.79998779297</ele>
        <time>2018-04-02T15:09:34.000Z</time>
      </trkpt>
      <trkpt lat="43.17353" lon="5.80963">
        <ele>291.60000610352</ele>
        <time>2018-04-02T15:09:35.000Z</time>
      </trkpt>
      <trkpt lat="43.17348" lon="5.80958">
        <ele>290.60000610352</ele>
        <time>2018-04-02T15:09:36.000Z</time>
      </trkpt>
      <trkpt lat="43.17344" lon="5.80951">
        <ele>289.79998779297</ele>
        <time>2018-04-02T15:09:37.000Z</time>
      </trkpt>
      <trkpt lat="43.1734" lon="5.80942">
        <ele>289.79998779297</ele>
        <time>2018-04-02T15:09:38.000Z</time>
      </trkpt>
      <trkpt lat="43.17336" lon="5.80932">
        <ele>290</ele>
        <time>2018-04-02T15:09:39.000Z</time>
      </trkpt>
      <trkpt lat="43.17332" lon="5.80921">
        <ele>290</ele>
        <time>2018-04-02T15:09:40.000Z</time>
      </trkpt>
      <trkpt lat="43.17328" lon="5.80909">
        <ele>290</ele>
        <time>2018-04-02T15:09:41.000Z</time>
      </trkpt>
      <trkpt lat="43.17323" lon="5.80898">
        <ele>290.20001220703</ele>
        <time>2018-04-02T15:09:42.000Z</time>
      </trkpt>
      <trkpt lat="43.17318" lon="5.80887">
        <ele>290</ele>
        <time>2018-04-02T15:09:43.000Z</time>
      </trkpt>
      <trkpt lat="43.17314" lon="5.80877">
        <ele>288.79998779297</ele>
        <time>2018-04-02T15:09:44.000Z</time>
      </trkpt>
      <trkpt lat="43.17309" lon="5.80867">
        <ele>287.39999389648</ele>
        <time>2018-04-02T15:09:45.000Z</time>
      </trkpt>
      <trkpt lat="43.17305" lon="5.80857">
        <ele>286</ele>
        <time>2018-04-02T15:09:46.000Z</time>
      </trkpt>
      <trkpt lat="43.173" lon="5.80847">
        <ele>284.60000610352</ele>
        <time>2018-04-02T15:09:47.000Z</time>
      </trkpt>
      <trkpt lat="43.17295" lon="5.80839">
        <ele>283.79998779297</ele>
        <time>2018-04-02T15:09:48.000Z</time>
      </trkpt>
      <trkpt lat="43.1729" lon="5.80831">
        <ele>283.39999389648</ele>
        <time>2018-04-02T15:09:49.000Z</time>
      </trkpt>
      <trkpt lat="43.17285" lon="5.80823">
        <ele>283</ele>
        <time>2018-04-02T15:09:50.000Z</time>
      </trkpt>
      <trkpt lat="43.1728" lon="5.80816">
        <ele>282.60000610352</ele>
        <time>2018-04-02T15:09:51.000Z</time>
      </trkpt>
      <trkpt lat="43.17273" lon="5.80811">
        <ele>281.60000610352</ele>
        <time>2018-04-02T15:09:52.000Z</time>
      </trkpt>
      <trkpt lat="43.17266" lon="5.80805">
        <ele>280.79998779297</ele>
        <time>2018-04-02T15:09:53.000Z</time>
      </trkpt>
      <trkpt lat="43.1726" lon="5.80799">
        <ele>279.39999389648</ele>
        <time>2018-04-02T15:09:54.000Z</time>
      </trkpt>
      <trkpt lat="43.17253" lon="5.80793">
        <ele>278</ele>
        <time>2018-04-02T15:09:55.000Z</time>
      </trkpt>
      <trkpt lat="43.17247" lon="5.80787">
        <ele>276.60000610352</ele>
        <time>2018-04-02T15:09:56.000Z</time>
      </trkpt>
      <trkpt lat="43.17241" lon="5.8078">
        <ele>275</ele>
        <time>2018-04-02T15:09:57.000Z</time>
      </trkpt>
      <trkpt lat="43.17234" lon="5.80773">
        <ele>273.60000610352</ele>
        <time>2018-04-02T15:09:58.000Z</time>
      </trkpt>
      <trkpt lat="43.17227" lon="5.80765">
        <ele>271.79998779297</ele>
        <time>2018-04-02T15:09:59.000Z</time>
      </trkpt>
      <trkpt lat="43.1722" lon="5.80758">
        <ele>270.39999389648</ele>
        <time>2018-04-02T15:10:00.000Z</time>
      </trkpt>
      <trkpt lat="43.17214" lon="5.80751">
        <ele>268.79998779297</ele>
        <time>2018-04-02T15:10:01.000Z</time>
      </trkpt>
      <trkpt lat="43.17207" lon="5.80745">
        <ele>267.39999389648</ele>
        <time>2018-04-02T15:10:02.000Z</time>
      </trkpt>
      <trkpt lat="43.17202" lon="5.8074">
        <ele>266.20001220703</ele>
        <time>2018-04-02T15:10:03.000Z</time>
      </trkpt>
      <trkpt lat="43.17196" lon="5.80735">
        <ele>265</ele>
        <time>2018-04-02T15:10:04.000Z</time>
      </trkpt>
      <trkpt lat="43.17191" lon="5.8073">
        <ele>263.60000610352</ele>
        <time>2018-04-02T15:10:05.000Z</time>
      </trkpt>
      <trkpt lat="43.17185" lon="5.80727">
        <ele>262.60000610352</ele>
        <time>2018-04-02T15:10:06.000Z</time>
      </trkpt>
      <trkpt lat="43.1718" lon="5.80725">
        <ele>261.79998779297</ele>
        <time>2018-04-02T15:10:07.000Z</time>
      </trkpt>
      <trkpt lat="43.17175" lon="5.80724">
        <ele>260.79998779297</ele>
        <time>2018-04-02T15:10:08.000Z</time>
      </trkpt>
      <trkpt lat="43.1717" lon="5.80723">
        <ele>259.79998779297</ele>
        <time>2018-04-02T15:10:09.000Z</time>
      </trkpt>
      <trkpt lat="43.17163" lon="5.80718">
        <ele>258</ele>
        <time>2018-04-02T15:10:11.000Z</time>
      </trkpt>
      <trkpt lat="43.17155" lon="5.80709">
        <ele>256.20001220703</ele>
        <time>2018-04-02T15:10:13.000Z</time>
      </trkpt>
      <trkpt lat="43.17152" lon="5.80705">
        <ele>255.39999389648</ele>
        <time>2018-04-02T15:10:14.000Z</time>
      </trkpt>
      <trkpt lat="43.17149" lon="5.80701">
        <ele>254.60000610352</ele>
        <time>2018-04-02T15:10:15.000Z</time>
      </trkpt>
      <trkpt lat="43.17144" lon="5.80693">
        <ele>253.60000610352</ele>
        <time>2018-04-02T15:10:17.000Z</time>
      </trkpt>
      <trkpt lat="43.17143" lon="5.8069">
        <ele>253.19999694824</ele>
        <time>2018-04-02T15:10:18.000Z</time>
      </trkpt>
      <trkpt lat="43.17142" lon="5.80687">
        <ele>252.80000305176</ele>
        <time>2018-04-02T15:10:19.000Z</time>
      </trkpt>
      <trkpt lat="43.17137" lon="5.80679">
        <ele>251.80000305176</ele>
        <time>2018-04-02T15:10:21.000Z</time>
      </trkpt>
      <trkpt lat="43.17134" lon="5.80674">
        <ele>250.80000305176</ele>
        <time>2018-04-02T15:10:22.000Z</time>
      </trkpt>
      <trkpt lat="43.1713" lon="5.8067">
        <ele>250</ele>
        <time>2018-04-02T15:10:23.000Z</time>
      </trkpt>
      <trkpt lat="43.17118" lon="5.8066">
        <ele>247.39999389648</ele>
        <time>2018-04-02T15:10:25.000Z</time>
      </trkpt>
      <trkpt lat="43.17112" lon="5.80656">
        <ele>246</ele>
        <time>2018-04-02T15:10:26.000Z</time>
      </trkpt>
      <trkpt lat="43.17106" lon="5.80652">
        <ele>244.80000305176</ele>
        <time>2018-04-02T15:10:27.000Z</time>
      </trkpt>
      <trkpt lat="43.17094" lon="5.80644">
        <ele>242.19999694824</ele>
        <time>2018-04-02T15:10:29.000Z</time>
      </trkpt>
      <trkpt lat="43.17077" lon="5.80633">
        <ele>238.39999389648</ele>
        <time>2018-04-02T15:10:32.000Z</time>
      </trkpt>
      <trkpt lat="43.17072" lon="5.80629">
        <ele>237.60000610352</ele>
        <time>2018-04-02T15:10:33.000Z</time>
      </trkpt>
      <trkpt lat="43.17067" lon="5.80625">
        <ele>236.80000305176</ele>
        <time>2018-04-02T15:10:34.000Z</time>
      </trkpt>
      <trkpt lat="43.17058" lon="5.80616">
        <ele>235.19999694824</ele>
        <time>2018-04-02T15:10:36.000Z</time>
      </trkpt>
      <trkpt lat="43.17049" lon="5.8061">
        <ele>233.80000305176</ele>
        <time>2018-04-02T15:10:38.000Z</time>
      </trkpt>
      <trkpt lat="43.17045" lon="5.80608">
        <ele>233</ele>
        <time>2018-04-02T15:10:39.000Z</time>
      </trkpt>
      <trkpt lat="43.17042" lon="5.80605">
        <ele>232.39999389648</ele>
        <time>2018-04-02T15:10:40.000Z</time>
      </trkpt>
      <trkpt lat="43.17034" lon="5.80599">
        <ele>231</ele>
        <time>2018-04-02T15:10:42.000Z</time>
      </trkpt>
      <trkpt lat="43.17027" lon="5.80593">
        <ele>229.80000305176</ele>
        <time>2018-04-02T15:10:44.000Z</time>
      </trkpt>
      <trkpt lat="43.1702" lon="5.80587">
        <ele>228.60000610352</ele>
        <time>2018-04-02T15:10:46.000Z</time>
      </trkpt>
      <trkpt lat="43.17013" lon="5.80581">
        <ele>227.60000610352</ele>
        <time>2018-04-02T15:10:48.000Z</time>
      </trkpt>
      <trkpt lat="43.17006" lon="5.80575">
        <ele>225.80000305176</ele>
        <time>2018-04-02T15:10:50.000Z</time>
      </trkpt>
      <trkpt lat="43.17003" lon="5.80571">
        <ele>225</ele>
        <time>2018-04-02T15:10:51.000Z</time>
      </trkpt>
      <trkpt lat="43.16999" lon="5.80568">
        <ele>224.19999694824</ele>
        <time>2018-04-02T15:10:52.000Z</time>
      </trkpt>
      <trkpt lat="43.16992" lon="5.80561">
        <ele>222.19999694824</ele>
        <time>2018-04-02T15:10:54.000Z</time>
      </trkpt>
      <trkpt lat="43.16984" lon="5.80552">
        <ele>220</ele>
        <time>2018-04-02T15:10:56.000Z</time>
      </trkpt>
      <trkpt lat="43.1698" lon="5.80547">
        <ele>218.80000305176</ele>
        <time>2018-04-02T15:10:57.000Z</time>
      </trkpt>
      <trkpt lat="43.16976" lon="5.80542">
        <ele>217.60000610352</ele>
        <time>2018-04-02T15:10:58.000Z</time>
      </trkpt>
      <trkpt lat="43.16968" lon="5.80531">
        <ele>215.19999694824</ele>
        <time>2018-04-02T15:11:00.000Z</time>
      </trkpt>
      <trkpt lat="43.1696" lon="5.8052">
        <ele>212.80000305176</ele>
        <time>2018-04-02T15:11:02.000Z</time>
      </trkpt>
      <trkpt lat="43.16953" lon="5.80511">
        <ele>211</ele>
        <time>2018-04-02T15:11:04.000Z</time>
      </trkpt>
      <trkpt lat="43.16947" lon="5.80499">
        <ele>209.19999694824</ele>
        <time>2018-04-02T15:11:06.000Z</time>
      </trkpt>
      <trkpt lat="43.16943" lon="5.80483">
        <ele>208.80000305176</ele>
        <time>2018-04-02T15:11:08.000Z</time>
      </trkpt>
      <trkpt lat="43.16943" lon="5.80463">
        <ele>209.80000305176</ele>
        <time>2018-04-02T15:11:10.000Z</time>
      </trkpt>
      <trkpt lat="43.16943" lon="5.80452">
        <ele>210.19999694824</ele>
        <time>2018-04-02T15:11:11.000Z</time>
      </trkpt>
      <trkpt lat="43.16943" lon="5.80442">
        <ele>210.60000610352</ele>
        <time>2018-04-02T15:11:12.000Z</time>
      </trkpt>
      <trkpt lat="43.16942" lon="5.80424">
        <ele>210.80000305176</ele>
        <time>2018-04-02T15:11:14.000Z</time>
      </trkpt>
      <trkpt lat="43.16939" lon="5.80407">
        <ele>210.60000610352</ele>
        <time>2018-04-02T15:11:16.000Z</time>
      </trkpt>
      <trkpt lat="43.16935" lon="5.8039">
        <ele>209.60000610352</ele>
        <time>2018-04-02T15:11:18.000Z</time>
      </trkpt>
      <trkpt lat="43.1693" lon="5.80377">
        <ele>207.60000610352</ele>
        <time>2018-04-02T15:11:20.000Z</time>
      </trkpt>
      <trkpt lat="43.16928" lon="5.80371">
        <ele>206.80000305176</ele>
        <time>2018-04-02T15:11:21.000Z</time>
      </trkpt>
      <trkpt lat="43.16925" lon="5.80365">
        <ele>206.19999694824</ele>
        <time>2018-04-02T15:11:22.000Z</time>
      </trkpt>
      <trkpt lat="43.16922" lon="5.80361">
        <ele>205.80000305176</ele>
        <time>2018-04-02T15:11:23.000Z</time>
      </trkpt>
      <trkpt lat="43.1692" lon="5.80357">
        <ele>205.19999694824</ele>
        <time>2018-04-02T15:11:24.000Z</time>
      </trkpt>
      <trkpt lat="43.16915" lon="5.80351">
        <ele>204.39999389648</ele>
        <time>2018-04-02T15:11:26.000Z</time>
      </trkpt>
      <trkpt lat="43.16908" lon="5.80353">
        <ele>203.19999694824</ele>
        <time>2018-04-02T15:11:28.000Z</time>
      </trkpt>
      <trkpt lat="43.16905" lon="5.80354">
        <ele>202.80000305176</ele>
        <time>2018-04-02T15:11:29.000Z</time>
      </trkpt>
      <trkpt lat="43.16902" lon="5.80354">
        <ele>202.19999694824</ele>
        <time>2018-04-02T15:11:30.000Z</time>
      </trkpt>
      <trkpt lat="43.16898" lon="5.80353">
        <ele>201.60000610352</ele>
        <time>2018-04-02T15:11:31.000Z</time>
      </trkpt>
      <trkpt lat="43.16894" lon="5.80346">
        <ele>200.80000305176</ele>
        <time>2018-04-02T15:11:33.000Z</time>
      </trkpt>
      <trkpt lat="43.16894" lon="5.80342">
        <ele>200.80000305176</ele>
        <time>2018-04-02T15:11:34.000Z</time>
      </trkpt>
      <trkpt lat="43.16896" lon="5.80333">
        <ele>201</ele>
        <time>2018-04-02T15:11:36.000Z</time>
      </trkpt>
      <trkpt lat="43.16897" lon="5.80328">
        <ele>201</ele>
        <time>2018-04-02T15:11:37.000Z</time>
      </trkpt>
      <trkpt lat="43.169" lon="5.80318">
        <ele>201.39999389648</ele>
        <time>2018-04-02T15:11:39.000Z</time>
      </trkpt>
      <trkpt lat="43.16906" lon="5.80306">
        <ele>202.39999389648</ele>
        <time>2018-04-02T15:11:41.000Z</time>
      </trkpt>
      <trkpt lat="43.16914" lon="5.80292">
        <ele>202.60000610352</ele>
        <time>2018-04-02T15:11:43.000Z</time>
      </trkpt>
      <trkpt lat="43.16917" lon="5.80284">
        <ele>202</ele>
        <time>2018-04-02T15:11:44.000Z</time>
      </trkpt>
      <trkpt lat="43.16919" lon="5.80276">
        <ele>201.19999694824</ele>
        <time>2018-04-02T15:11:45.000Z</time>
      </trkpt>
      <trkpt lat="43.16922" lon="5.80268">
        <ele>200.39999389648</ele>
        <time>2018-04-02T15:11:46.000Z</time>
      </trkpt>
      <trkpt lat="43.16927" lon="5.8025">
        <ele>198.60000610352</ele>
        <time>2018-04-02T15:11:48.000Z</time>
      </trkpt>
      <trkpt lat="43.16936" lon="5.80225">
        <ele>198</ele>
        <time>2018-04-02T15:11:51.000Z</time>
      </trkpt>
      <trkpt lat="43.16938" lon="5.80217">
        <ele>197.80000305176</ele>
        <time>2018-04-02T15:11:52.000Z</time>
      </trkpt>
      <trkpt lat="43.16943" lon="5.80201">
        <ele>196.80000305176</ele>
        <time>2018-04-02T15:11:54.000Z</time>
      </trkpt>
      <trkpt lat="43.16949" lon="5.80175">
        <ele>195</ele>
        <time>2018-04-02T15:11:57.000Z</time>
      </trkpt>
      <trkpt lat="43.1695" lon="5.80165">
        <ele>193.80000305176</ele>
        <time>2018-04-02T15:11:58.000Z</time>
      </trkpt>
      <trkpt lat="43.16949" lon="5.80147">
        <ele>190.19999694824</ele>
        <time>2018-04-02T15:12:00.000Z</time>
      </trkpt>
      <trkpt lat="43.16948" lon="5.80131">
        <ele>188</ele>
        <time>2018-04-02T15:12:02.000Z</time>
      </trkpt>
      <trkpt lat="43.1695" lon="5.80125">
        <ele>188</ele>
        <time>2018-04-02T15:12:03.000Z</time>
      </trkpt>
      <trkpt lat="43.16957" lon="5.80111">
        <ele>189</ele>
        <time>2018-04-02T15:12:05.000Z</time>
      </trkpt>
      <trkpt lat="43.16966" lon="5.80098">
        <ele>191</ele>
        <time>2018-04-02T15:12:07.000Z</time>
      </trkpt>
      <trkpt lat="43.16971" lon="5.80092">
        <ele>191.39999389648</ele>
        <time>2018-04-02T15:12:08.000Z</time>
      </trkpt>
      <trkpt lat="43.16977" lon="5.80086">
        <ele>191</ele>
        <time>2018-04-02T15:12:09.000Z</time>
      </trkpt>
      <trkpt lat="43.16986" lon="5.80073">
        <ele>190.19999694824</ele>
        <time>2018-04-02T15:12:11.000Z</time>
      </trkpt>
      <trkpt lat="43.17001" lon="5.80059">
        <ele>189.80000305176</ele>
        <time>2018-04-02T15:12:14.000Z</time>
      </trkpt>
      <trkpt lat="43.17011" lon="5.80051">
        <ele>191</ele>
        <time>2018-04-02T15:12:16.000Z</time>
      </trkpt>
      <trkpt lat="43.17023" lon="5.80045">
        <ele>194.19999694824</ele>
        <time>2018-04-02T15:12:18.000Z</time>
      </trkpt>
      <trkpt lat="43.17027" lon="5.80042">
        <ele>195.39999389648</ele>
        <time>2018-04-02T15:12:19.000Z</time>
      </trkpt>
      <trkpt lat="43.17029" lon="5.80036">
        <ele>195.60000610352</ele>
        <time>2018-04-02T15:12:20.000Z</time>
      </trkpt>
      <trkpt lat="43.17029" lon="5.80028">
        <ele>195.19999694824</ele>
        <time>2018-04-02T15:12:21.000Z</time>
      </trkpt>
      <trkpt lat="43.17023" lon="5.80006">
        <ele>192.39999389648</ele>
        <time>2018-04-02T15:12:24.000Z</time>
      </trkpt>
      <trkpt lat="43.17016" lon="5.80003">
        <ele>189.80000305176</ele>
        <time>2018-04-02T15:12:25.000Z</time>
      </trkpt>
      <trkpt lat="43.17009" lon="5.79999">
        <ele>187.80000305176</ele>
        <time>2018-04-02T15:12:26.000Z</time>
      </trkpt>
      <trkpt lat="43.17002" lon="5.79995">
        <ele>186</ele>
        <time>2018-04-02T15:12:27.000Z</time>
      </trkpt>
      <trkpt lat="43.16989" lon="5.79986">
        <ele>182.80000305176</ele>
        <time>2018-04-02T15:12:29.000Z</time>
      </trkpt>
      <trkpt lat="43.16971" lon="5.79974">
        <ele>177.80000305176</ele>
        <time>2018-04-02T15:12:32.000Z</time>
      </trkpt>
      <trkpt lat="43.16964" lon="5.79971">
        <ele>176.19999694824</ele>
        <time>2018-04-02T15:12:33.000Z</time>
      </trkpt>
      <trkpt lat="43.16958" lon="5.79967">
        <ele>175.19999694824</ele>
        <time>2018-04-02T15:12:34.000Z</time>
      </trkpt>
      <trkpt lat="43.16944" lon="5.79946">
        <ele>173.19999694824</ele>
        <time>2018-04-02T15:12:37.000Z</time>
      </trkpt>
      <trkpt lat="43.16938" lon="5.79931">
        <ele>172.80000305176</ele>
        <time>2018-04-02T15:12:39.000Z</time>
      </trkpt>
      <trkpt lat="43.16936" lon="5.79913">
        <ele>173.39999389648</ele>
        <time>2018-04-02T15:12:41.000Z</time>
      </trkpt>
      <trkpt lat="43.16938" lon="5.79883">
        <ele>176.19999694824</ele>
        <time>2018-04-02T15:12:44.000Z</time>
      </trkpt>
      <trkpt lat="43.16938" lon="5.79873">
        <ele>176.39999389648</ele>
        <time>2018-04-02T15:12:45.000Z</time>
      </trkpt>
      <trkpt lat="43.16937" lon="5.79863">
        <ele>176.39999389648</ele>
        <time>2018-04-02T15:12:46.000Z</time>
      </trkpt>
      <trkpt lat="43.16933" lon="5.79843">
        <ele>175.60000610352</ele>
        <time>2018-04-02T15:12:48.000Z</time>
      </trkpt>
      <trkpt lat="43.16923" lon="5.79802">
        <ele>173.80000305176</ele>
        <time>2018-04-02T15:12:52.000Z</time>
      </trkpt>
      <trkpt lat="43.16918" lon="5.79782">
        <ele>173.19999694824</ele>
        <time>2018-04-02T15:12:54.000Z</time>
      </trkpt>
      <trkpt lat="43.16913" lon="5.79746">
        <ele>172.80000305176</ele>
        <time>2018-04-02T15:12:58.000Z</time>
      </trkpt>
      <trkpt lat="43.16911" lon="5.79738">
        <ele>172.60000610352</ele>
        <time>2018-04-02T15:12:59.000Z</time>
      </trkpt>
      <trkpt lat="43.16907" lon="5.79695">
        <ele>171.60000610352</ele>
        <time>2018-04-02T15:13:04.000Z</time>
      </trkpt>
      <trkpt lat="43.1691" lon="5.79655">
        <ele>168.80000305176</ele>
        <time>2018-04-02T15:13:09.000Z</time>
      </trkpt>
      <trkpt lat="43.16913" lon="5.79647">
        <ele>168.60000610352</ele>
        <time>2018-04-02T15:13:10.000Z</time>
      </trkpt>
      <trkpt lat="43.16921" lon="5.79631">
        <ele>168.39999389648</ele>
        <time>2018-04-02T15:13:12.000Z</time>
      </trkpt>
      <trkpt lat="43.16928" lon="5.79614">
        <ele>167.60000610352</ele>
        <time>2018-04-02T15:13:14.000Z</time>
      </trkpt>
      <trkpt lat="43.16934" lon="5.79597">
        <ele>167.60000610352</ele>
        <time>2018-04-02T15:13:16.000Z</time>
      </trkpt>
      <trkpt lat="43.16936" lon="5.79588">
        <ele>167.39999389648</ele>
        <time>2018-04-02T15:13:17.000Z</time>
      </trkpt>
      <trkpt lat="43.16944" lon="5.79566">
        <ele>167.60000610352</ele>
        <time>2018-04-02T15:13:20.000Z</time>
      </trkpt>
      <trkpt lat="43.16947" lon="5.79558">
        <ele>166.80000305176</ele>
        <time>2018-04-02T15:13:21.000Z</time>
      </trkpt>
      <trkpt lat="43.16951" lon="5.7954">
        <ele>166.19999694824</ele>
        <time>2018-04-02T15:13:23.000Z</time>
      </trkpt>
      <trkpt lat="43.16952" lon="5.7953">
        <ele>165.80000305176</ele>
        <time>2018-04-02T15:13:24.000Z</time>
      </trkpt>
      <trkpt lat="43.16953" lon="5.7952">
        <ele>165.39999389648</ele>
        <time>2018-04-02T15:13:25.000Z</time>
      </trkpt>
      <trkpt lat="43.16958" lon="5.79496">
        <ele>164.60000610352</ele>
        <time>2018-04-02T15:13:28.000Z</time>
      </trkpt>
      <trkpt lat="43.1696" lon="5.79488">
        <ele>163.80000305176</ele>
        <time>2018-04-02T15:13:29.000Z</time>
      </trkpt>
      <trkpt lat="43.16965" lon="5.79465">
        <ele>162.39999389648</ele>
        <time>2018-04-02T15:13:32.000Z</time>
      </trkpt>
      <trkpt lat="43.16969" lon="5.79445">
        <ele>162</ele>
        <time>2018-04-02T15:13:35.000Z</time>
      </trkpt>
      <trkpt lat="43.16972" lon="5.79438">
        <ele>162</ele>
        <time>2018-04-02T15:13:36.000Z</time>
      </trkpt>
      <trkpt lat="43.16974" lon="5.79431">
        <ele>162</ele>
        <time>2018-04-02T15:13:37.000Z</time>
      </trkpt>
      <trkpt lat="43.16983" lon="5.79407">
        <ele>160.80000305176</ele>
        <time>2018-04-02T15:13:40.000Z</time>
      </trkpt>
      <trkpt lat="43.16995" lon="5.79371">
        <ele>160</ele>
        <time>2018-04-02T15:13:44.000Z</time>
      </trkpt>
      <trkpt lat="43.16999" lon="5.79359">
        <ele>160.39999389648</ele>
        <time>2018-04-02T15:13:46.000Z</time>
      </trkpt>
      <trkpt lat="43.17" lon="5.79354">
        <ele>160.39999389648</ele>
        <time>2018-04-02T15:13:47.000Z</time>
      </trkpt>
      <trkpt lat="43.17001" lon="5.79348">
        <ele>160.19999694824</ele>
        <time>2018-04-02T15:13:49.000Z</time>
      </trkpt>
      <trkpt lat="43.17" lon="5.79343">
        <ele>160</ele>
        <time>2018-04-02T15:13:50.000Z</time>
      </trkpt>
      <trkpt lat="43.16999" lon="5.79324">
        <ele>159</ele>
        <time>2018-04-02T15:13:54.000Z</time>
      </trkpt>
      <trkpt lat="43.16991" lon="5.79308">
        <ele>156.80000305176</ele>
        <time>2018-04-02T15:13:57.000Z</time>
      </trkpt>
      <trkpt lat="43.16989" lon="5.79302">
        <ele>156</ele>
        <time>2018-04-02T15:13:58.000Z</time>
      </trkpt>
      <trkpt lat="43.16983" lon="5.79283">
        <ele>153.60000610352</ele>
        <time>2018-04-02T15:14:01.000Z</time>
      </trkpt>
      <trkpt lat="43.16982" lon="5.79276">
        <ele>153</ele>
        <time>2018-04-02T15:14:02.000Z</time>
      </trkpt>
      <trkpt lat="43.16981" lon="5.79269">
        <ele>152.60000610352</ele>
        <time>2018-04-02T15:14:03.000Z</time>
      </trkpt>
      <trkpt lat="43.16981" lon="5.79261">
        <ele>152.39999389648</ele>
        <time>2018-04-02T15:14:04.000Z</time>
      </trkpt>
      <trkpt lat="43.16982" lon="5.79252">
        <ele>152.19999694824</ele>
        <time>2018-04-02T15:14:05.000Z</time>
      </trkpt>
      <trkpt lat="43.16985" lon="5.79234">
        <ele>152.60000610352</ele>
        <time>2018-04-02T15:14:07.000Z</time>
      </trkpt>
      <trkpt lat="43.16988" lon="5.79201">
        <ele>154.19999694824</ele>
        <time>2018-04-02T15:14:11.000Z</time>
      </trkpt>
      <trkpt lat="43.16988" lon="5.79185">
        <ele>154.39999389648</ele>
        <time>2018-04-02T15:14:13.000Z</time>
      </trkpt>
      <trkpt lat="43.16987" lon="5.79157">
        <ele>154.19999694824</ele>
        <time>2018-04-02T15:14:17.000Z</time>
      </trkpt>
      <trkpt lat="43.16988" lon="5.79141">
        <ele>154.39999389648</ele>
        <time>2018-04-02T15:14:20.000Z</time>
      </trkpt>
      <trkpt lat="43.16994" lon="5.79111">
        <ele>155.39999389648</ele>
        <time>2018-04-02T15:14:25.000Z</time>
      </trkpt>
      <trkpt lat="43.16996" lon="5.79105">
        <ele>155.60000610352</ele>
        <time>2018-04-02T15:14:26.000Z</time>
      </trkpt>
      <trkpt lat="43.16998" lon="5.79098">
        <ele>155.80000305176</ele>
        <time>2018-04-02T15:14:27.000Z</time>
      </trkpt>
      <trkpt lat="43.17002" lon="5.79078">
        <ele>156</ele>
        <time>2018-04-02T15:14:31.000Z</time>
      </trkpt>
      <trkpt lat="43.17003" lon="5.79069">
        <ele>155.80000305176</ele>
        <time>2018-04-02T15:14:33.000Z</time>
      </trkpt>
      <trkpt lat="43.17" lon="5.79064">
        <ele>155.39999389648</ele>
        <time>2018-04-02T15:14:34.000Z</time>
      </trkpt>
      <trkpt lat="43.16995" lon="5.7906">
        <ele>154.39999389648</ele>
        <time>2018-04-02T15:14:35.000Z</time>
      </trkpt>
      <trkpt lat="43.16975" lon="5.79047">
        <ele>150.39999389648</ele>
        <time>2018-04-02T15:14:38.000Z</time>
      </trkpt>
      <trkpt lat="43.16967" lon="5.79043">
        <ele>148.80000305176</ele>
        <time>2018-04-02T15:14:39.000Z</time>
      </trkpt>
      <trkpt lat="43.16932" lon="5.79024">
        <ele>141.80000305176</ele>
        <time>2018-04-02T15:14:44.000Z</time>
      </trkpt>
      <trkpt lat="43.16919" lon="5.79016">
        <ele>139.19999694824</ele>
        <time>2018-04-02T15:14:46.000Z</time>
      </trkpt>
      <trkpt lat="43.16909" lon="5.79006">
        <ele>137.19999694824</ele>
        <time>2018-04-02T15:14:48.000Z</time>
      </trkpt>
      <trkpt lat="43.16903" lon="5.78993">
        <ele>135.60000610352</ele>
        <time>2018-04-02T15:14:50.000Z</time>
      </trkpt>
      <trkpt lat="43.16903" lon="5.78986">
        <ele>135</ele>
        <time>2018-04-02T15:14:51.000Z</time>
      </trkpt>
      <trkpt lat="43.16903" lon="5.78971">
        <ele>134.19999694824</ele>
        <time>2018-04-02T15:14:53.000Z</time>
      </trkpt>
      <trkpt lat="43.16908" lon="5.7895">
        <ele>133.60000610352</ele>
        <time>2018-04-02T15:14:56.000Z</time>
      </trkpt>
      <trkpt lat="43.16911" lon="5.78945">
        <ele>133.60000610352</ele>
        <time>2018-04-02T15:14:57.000Z</time>
      </trkpt>
      <trkpt lat="43.16916" lon="5.78943">
        <ele>134</ele>
        <time>2018-04-02T15:14:58.000Z</time>
      </trkpt>
      <trkpt lat="43.16927" lon="5.78947">
        <ele>135.80000305176</ele>
        <time>2018-04-02T15:15:00.000Z</time>
      </trkpt>
      <trkpt lat="43.16944" lon="5.78934">
        <ele>136.19999694824</ele>
        <time>2018-04-02T15:15:03.000Z</time>
      </trkpt>
      <trkpt lat="43.16952" lon="5.78915">
        <ele>135.19999694824</ele>
        <time>2018-04-02T15:15:05.000Z</time>
      </trkpt>
      <trkpt lat="43.16955" lon="5.78904">
        <ele>134.60000610352</ele>
        <time>2018-04-02T15:15:06.000Z</time>
      </trkpt>
      <trkpt lat="43.16967" lon="5.78875">
        <ele>133</ele>
        <time>2018-04-02T15:15:09.000Z</time>
      </trkpt>
      <trkpt lat="43.16977" lon="5.78848">
        <ele>131.39999389648</ele>
        <time>2018-04-02T15:15:12.000Z</time>
      </trkpt>
      <trkpt lat="43.1698" lon="5.78838">
        <ele>130.80000305176</ele>
        <time>2018-04-02T15:15:13.000Z</time>
      </trkpt>
      <trkpt lat="43.16979" lon="5.78815">
        <ele>128.80000305176</ele>
        <time>2018-04-02T15:15:15.000Z</time>
      </trkpt>
      <trkpt lat="43.16977" lon="5.78805">
        <ele>127.80000305176</ele>
        <time>2018-04-02T15:15:16.000Z</time>
      </trkpt>
      <trkpt lat="43.16973" lon="5.78784">
        <ele>125.59999847412</ele>
        <time>2018-04-02T15:15:18.000Z</time>
      </trkpt>
      <trkpt lat="43.16968" lon="5.78752">
        <ele>122.19999694824</ele>
        <time>2018-04-02T15:15:21.000Z</time>
      </trkpt>
      <trkpt lat="43.16965" lon="5.78741">
        <ele>121</ele>
        <time>2018-04-02T15:15:22.000Z</time>
      </trkpt>
      <trkpt lat="43.16961" lon="5.78717">
        <ele>118.80000305176</ele>
        <time>2018-04-02T15:15:24.000Z</time>
      </trkpt>
      <trkpt lat="43.16954" lon="5.7868">
        <ele>118.19999694824</ele>
        <time>2018-04-02T15:15:27.000Z</time>
      </trkpt>
      <trkpt lat="43.16952" lon="5.78669">
        <ele>118</ele>
        <time>2018-04-02T15:15:28.000Z</time>
      </trkpt>
      <trkpt lat="43.16947" lon="5.78647">
        <ele>116.59999847412</ele>
        <time>2018-04-02T15:15:30.000Z</time>
      </trkpt>
      <trkpt lat="43.16942" lon="5.78617">
        <ele>115.80000305176</ele>
        <time>2018-04-02T15:15:33.000Z</time>
      </trkpt>
      <trkpt lat="43.1694" lon="5.78608">
        <ele>115.80000305176</ele>
        <time>2018-04-02T15:15:34.000Z</time>
      </trkpt>
      <trkpt lat="43.16936" lon="5.78591">
        <ele>116</ele>
        <time>2018-04-02T15:15:36.000Z</time>
      </trkpt>
      <trkpt lat="43.16932" lon="5.78583">
        <ele>116</ele>
        <time>2018-04-02T15:15:37.000Z</time>
      </trkpt>
      <trkpt lat="43.16923" lon="5.78574">
        <ele>115.19999694824</ele>
        <time>2018-04-02T15:15:39.000Z</time>
      </trkpt>
      <trkpt lat="43.16916" lon="5.78571">
        <ele>114.19999694824</ele>
        <time>2018-04-02T15:15:40.000Z</time>
      </trkpt>
      <trkpt lat="43.1691" lon="5.78569">
        <ele>113.19999694824</ele>
        <time>2018-04-02T15:15:41.000Z</time>
      </trkpt>
      <trkpt lat="43.16904" lon="5.78567">
        <ele>112.19999694824</ele>
        <time>2018-04-02T15:15:42.000Z</time>
      </trkpt>
      <trkpt lat="43.16898" lon="5.78562">
        <ele>111.40000152588</ele>
        <time>2018-04-02T15:15:43.000Z</time>
      </trkpt>
      <trkpt lat="43.16892" lon="5.78548">
        <ele>110.19999694824</ele>
        <time>2018-04-02T15:15:45.000Z</time>
      </trkpt>
      <trkpt lat="43.16888" lon="5.78523">
        <ele>108.59999847412</ele>
        <time>2018-04-02T15:15:48.000Z</time>
      </trkpt>
      <trkpt lat="43.16887" lon="5.78513">
        <ele>108.19999694824</ele>
        <time>2018-04-02T15:15:49.000Z</time>
      </trkpt>
      <trkpt lat="43.16881" lon="5.78464">
        <ele>105</ele>
        <time>2018-04-02T15:15:54.000Z</time>
      </trkpt>
      <trkpt lat="43.1688" lon="5.78443">
        <ele>104.40000152588</ele>
        <time>2018-04-02T15:15:56.000Z</time>
      </trkpt>
      <trkpt lat="43.1688" lon="5.78433">
        <ele>104.19999694824</ele>
        <time>2018-04-02T15:15:57.000Z</time>
      </trkpt>
      <trkpt lat="43.16881" lon="5.78412">
        <ele>103.40000152588</ele>
        <time>2018-04-02T15:15:59.000Z</time>
      </trkpt>
      <trkpt lat="43.16882" lon="5.784">
        <ele>102.80000305176</ele>
        <time>2018-04-02T15:16:00.000Z</time>
      </trkpt>
      <trkpt lat="43.16883" lon="5.78388">
        <ele>102.19999694824</ele>
        <time>2018-04-02T15:16:01.000Z</time>
      </trkpt>
      <trkpt lat="43.16886" lon="5.78364">
        <ele>101.40000152588</ele>
        <time>2018-04-02T15:16:03.000Z</time>
      </trkpt>
      <trkpt lat="43.16887" lon="5.78341">
        <ele>100.40000152588</ele>
        <time>2018-04-02T15:16:05.000Z</time>
      </trkpt>
      <trkpt lat="43.16887" lon="5.78329">
        <ele>99.400001525879</ele>
        <time>2018-04-02T15:16:06.000Z</time>
      </trkpt>
      <trkpt lat="43.16885" lon="5.78316">
        <ele>98.599998474121</ele>
        <time>2018-04-02T15:16:07.000Z</time>
      </trkpt>
      <trkpt lat="43.1688" lon="5.78289">
        <ele>96.800003051758</ele>
        <time>2018-04-02T15:16:09.000Z</time>
      </trkpt>
      <trkpt lat="43.16875" lon="5.78263">
        <ele>95.400001525879</ele>
        <time>2018-04-02T15:16:11.000Z</time>
      </trkpt>
      <trkpt lat="43.16869" lon="5.78237">
        <ele>93.599998474121</ele>
        <time>2018-04-02T15:16:13.000Z</time>
      </trkpt>
      <trkpt lat="43.16863" lon="5.78211">
        <ele>92.199996948242</ele>
        <time>2018-04-02T15:16:15.000Z</time>
      </trkpt>
      <trkpt lat="43.16858" lon="5.78186">
        <ele>91.599998474121</ele>
        <time>2018-04-02T15:16:17.000Z</time>
      </trkpt>
      <trkpt lat="43.16853" lon="5.78161">
        <ele>90.800003051758</ele>
        <time>2018-04-02T15:16:19.000Z</time>
      </trkpt>
      <trkpt lat="43.1685" lon="5.78138">
        <ele>90.199996948242</ele>
        <time>2018-04-02T15:16:21.000Z</time>
      </trkpt>
      <trkpt lat="43.16849" lon="5.78127">
        <ele>89.800003051758</ele>
        <time>2018-04-02T15:16:22.000Z</time>
      </trkpt>
      <trkpt lat="43.16847" lon="5.78094">
        <ele>88.599998474121</ele>
        <time>2018-04-02T15:16:25.000Z</time>
      </trkpt>
      <trkpt lat="43.16847" lon="5.78083">
        <ele>88.199996948242</ele>
        <time>2018-04-02T15:16:26.000Z</time>
      </trkpt>
      <trkpt lat="43.16849" lon="5.78062">
        <ele>87.400001525879</ele>
        <time>2018-04-02T15:16:28.000Z</time>
      </trkpt>
      <trkpt lat="43.16854" lon="5.78042">
        <ele>86.400001525879</ele>
        <time>2018-04-02T15:16:30.000Z</time>
      </trkpt>
      <trkpt lat="43.16856" lon="5.78032">
        <ele>86</ele>
        <time>2018-04-02T15:16:31.000Z</time>
      </trkpt>
      <trkpt lat="43.16858" lon="5.78014">
        <ele>84.800003051758</ele>
        <time>2018-04-02T15:16:33.000Z</time>
      </trkpt>
      <trkpt lat="43.16858" lon="5.77997">
        <ele>83.800003051758</ele>
        <time>2018-04-02T15:16:35.000Z</time>
      </trkpt>
      <trkpt lat="43.16858" lon="5.77989">
        <ele>83.400001525879</ele>
        <time>2018-04-02T15:16:36.000Z</time>
      </trkpt>
      <trkpt lat="43.1686" lon="5.77977">
        <ele>82.599998474121</ele>
        <time>2018-04-02T15:16:38.000Z</time>
      </trkpt>
      <trkpt lat="43.16864" lon="5.77973">
        <ele>82.400001525879</ele>
        <time>2018-04-02T15:16:39.000Z</time>
      </trkpt>
      <trkpt lat="43.16868" lon="5.7797">
        <ele>82.199996948242</ele>
        <time>2018-04-02T15:16:40.000Z</time>
      </trkpt>
      <trkpt lat="43.16878" lon="5.77964">
        <ele>82</ele>
        <time>2018-04-02T15:16:42.000Z</time>
      </trkpt>
      <trkpt lat="43.1688" lon="5.7796">
        <ele>81.800003051758</ele>
        <time>2018-04-02T15:16:43.000Z</time>
      </trkpt>
      <trkpt lat="43.16884" lon="5.77947">
        <ele>81.400001525879</ele>
        <time>2018-04-02T15:16:45.000Z</time>
      </trkpt>
      <trkpt lat="43.16885" lon="5.7794">
        <ele>81</ele>
        <time>2018-04-02T15:16:46.000Z</time>
      </trkpt>
      <trkpt lat="43.16884" lon="5.77922">
        <ele>80.199996948242</ele>
        <time>2018-04-02T15:16:48.000Z</time>
      </trkpt>
      <trkpt lat="43.16882" lon="5.77903">
        <ele>79.400001525879</ele>
        <time>2018-04-02T15:16:50.000Z</time>
      </trkpt>
      <trkpt lat="43.16879" lon="5.77884">
        <ele>78.599998474121</ele>
        <time>2018-04-02T15:16:52.000Z</time>
      </trkpt>
      <trkpt lat="43.16877" lon="5.77868">
        <ele>77.400001525879</ele>
        <time>2018-04-02T15:16:54.000Z</time>
      </trkpt>
      <trkpt lat="43.16875" lon="5.77852">
        <ele>76.199996948242</ele>
        <time>2018-04-02T15:16:56.000Z</time>
      </trkpt>
      <trkpt lat="43.16873" lon="5.77833">
        <ele>74.800003051758</ele>
        <time>2018-04-02T15:16:58.000Z</time>
      </trkpt>
      <trkpt lat="43.16871" lon="5.77812">
        <ele>72.400001525879</ele>
        <time>2018-04-02T15:17:00.000Z</time>
      </trkpt>
      <trkpt lat="43.1687" lon="5.77801">
        <ele>71.599998474121</ele>
        <time>2018-04-02T15:17:01.000Z</time>
      </trkpt>
      <trkpt lat="43.16869" lon="5.7779">
        <ele>71.199996948242</ele>
        <time>2018-04-02T15:17:02.000Z</time>
      </trkpt>
      <trkpt lat="43.16865" lon="5.77769">
        <ele>70.400001525879</ele>
        <time>2018-04-02T15:17:04.000Z</time>
      </trkpt>
      <trkpt lat="43.16862" lon="5.7775">
        <ele>69.800003051758</ele>
        <time>2018-04-02T15:17:06.000Z</time>
      </trkpt>
      <trkpt lat="43.16861" lon="5.7774">
        <ele>69.400001525879</ele>
        <time>2018-04-02T15:17:07.000Z</time>
      </trkpt>
      <trkpt lat="43.1686" lon="5.77731">
        <ele>69</ele>
        <time>2018-04-02T15:17:08.000Z</time>
      </trkpt>
      <trkpt lat="43.16859" lon="5.77713">
        <ele>68.199996948242</ele>
        <time>2018-04-02T15:17:10.000Z</time>
      </trkpt>
      <trkpt lat="43.16858" lon="5.77698">
        <ele>67.599998474121</ele>
        <time>2018-04-02T15:17:12.000Z</time>
      </trkpt>
      <trkpt lat="43.16859" lon="5.77693">
        <ele>67.400001525879</ele>
        <time>2018-04-02T15:17:13.000Z</time>
      </trkpt>
      <trkpt lat="43.16859" lon="5.77688">
        <ele>67.199996948242</ele>
        <time>2018-04-02T15:17:14.000Z</time>
      </trkpt>
      <trkpt lat="43.1686" lon="5.77675">
        <ele>66.800003051758</ele>
        <time>2018-04-02T15:17:16.000Z</time>
      </trkpt>
      <trkpt lat="43.16861" lon="5.77656">
        <ele>66</ele>
        <time>2018-04-02T15:17:18.000Z</time>
      </trkpt>
      <trkpt lat="43.16863" lon="5.77634">
        <ele>64.199996948242</ele>
        <time>2018-04-02T15:17:20.000Z</time>
      </trkpt>
      <trkpt lat="43.16866" lon="5.77615">
        <ele>62.799999237061</ele>
        <time>2018-04-02T15:17:22.000Z</time>
      </trkpt>
      <trkpt lat="43.1687" lon="5.77609">
        <ele>62</ele>
        <time>2018-04-02T15:17:23.000Z</time>
      </trkpt>
      <trkpt lat="43.16876" lon="5.77604">
        <ele>61.400001525879</ele>
        <time>2018-04-02T15:17:24.000Z</time>
      </trkpt>
      <trkpt lat="43.16881" lon="5.77602">
        <ele>60.799999237061</ele>
        <time>2018-04-02T15:17:25.000Z</time>
      </trkpt>
      <trkpt lat="43.16889" lon="5.77605">
        <ele>60.200000762939</ele>
        <time>2018-04-02T15:17:26.000Z</time>
      </trkpt>
      <trkpt lat="43.16895" lon="5.77608">
        <ele>60</ele>
        <time>2018-04-02T15:17:27.000Z</time>
      </trkpt>
      <trkpt lat="43.169" lon="5.77606">
        <ele>59.400001525879</ele>
        <time>2018-04-02T15:17:28.000Z</time>
      </trkpt>
      <trkpt lat="43.16901" lon="5.776">
        <ele>59</ele>
        <time>2018-04-02T15:17:29.000Z</time>
      </trkpt>
      <trkpt lat="43.16901" lon="5.77593">
        <ele>58.799999237061</ele>
        <time>2018-04-02T15:17:30.000Z</time>
      </trkpt>
      <trkpt lat="43.16902" lon="5.77587">
        <ele>58.400001525879</ele>
        <time>2018-04-02T15:17:31.000Z</time>
      </trkpt>
      <trkpt lat="43.16903" lon="5.7758">
        <ele>58</ele>
        <time>2018-04-02T15:17:32.000Z</time>
      </trkpt>
      <trkpt lat="43.16904" lon="5.77572">
        <ele>57.599998474121</ele>
        <time>2018-04-02T15:17:33.000Z</time>
      </trkpt>
      <trkpt lat="43.16902" lon="5.7755">
        <ele>56.400001525879</ele>
        <time>2018-04-02T15:17:35.000Z</time>
      </trkpt>
      <trkpt lat="43.16901" lon="5.77537">
        <ele>54.799999237061</ele>
        <time>2018-04-02T15:17:36.000Z</time>
      </trkpt>
      <trkpt lat="43.16899" lon="5.77522">
        <ele>53.400001525879</ele>
        <time>2018-04-02T15:17:37.000Z</time>
      </trkpt>
      <trkpt lat="43.16897" lon="5.77496">
        <ele>51.799999237061</ele>
        <time>2018-04-02T15:17:39.000Z</time>
      </trkpt>
      <trkpt lat="43.16898" lon="5.77484">
        <ele>51.200000762939</ele>
        <time>2018-04-02T15:17:40.000Z</time>
      </trkpt>
      <trkpt lat="43.16901" lon="5.77472">
        <ele>50.400001525879</ele>
        <time>2018-04-02T15:17:41.000Z</time>
      </trkpt>
      <trkpt lat="43.16908" lon="5.7745">
        <ele>48</ele>
        <time>2018-04-02T15:17:43.000Z</time>
      </trkpt>
      <trkpt lat="43.16917" lon="5.77432">
        <ele>47</ele>
        <time>2018-04-02T15:17:45.000Z</time>
      </trkpt>
      <trkpt lat="43.16929" lon="5.7742">
        <ele>46.400001525879</ele>
        <time>2018-04-02T15:17:47.000Z</time>
      </trkpt>
      <trkpt lat="43.16934" lon="5.77415">
        <ele>46.400001525879</ele>
        <time>2018-04-02T15:17:48.000Z</time>
      </trkpt>
      <trkpt lat="43.16949" lon="5.774">
        <ele>45.799999237061</ele>
        <time>2018-04-02T15:17:51.000Z</time>
      </trkpt>
      <trkpt lat="43.16958" lon="5.77385">
        <ele>45</ele>
        <time>2018-04-02T15:17:53.000Z</time>
      </trkpt>
      <trkpt lat="43.16968" lon="5.77371">
        <ele>45</ele>
        <time>2018-04-02T15:17:55.000Z</time>
      </trkpt>
      <trkpt lat="43.16982" lon="5.77352">
        <ele>44.799999237061</ele>
        <time>2018-04-02T15:17:58.000Z</time>
      </trkpt>
      <trkpt lat="43.16987" lon="5.77347">
        <ele>44.599998474121</ele>
        <time>2018-04-02T15:17:59.000Z</time>
      </trkpt>
      <trkpt lat="43.16993" lon="5.77344">
        <ele>44.400001525879</ele>
        <time>2018-04-02T15:18:00.000Z</time>
      </trkpt>
      <trkpt lat="43.17018" lon="5.77343">
        <ele>44.400001525879</ele>
        <time>2018-04-02T15:18:04.000Z</time>
      </trkpt>
      <trkpt lat="43.17024" lon="5.77343">
        <ele>44.400001525879</ele>
        <time>2018-04-02T15:18:05.000Z</time>
      </trkpt>
      <trkpt lat="43.17056" lon="5.7735">
        <ele>45.200000762939</ele>
        <time>2018-04-02T15:18:11.000Z</time>
      </trkpt>
      <trkpt lat="43.17088" lon="5.77355">
        <ele>46.200000762939</ele>
        <time>2018-04-02T15:18:17.000Z</time>
      </trkpt>
      <trkpt lat="43.17098" lon="5.77354">
        <ele>46.599998474121</ele>
        <time>2018-04-02T15:18:19.000Z</time>
      </trkpt>
      <trkpt lat="43.17139" lon="5.77342">
        <ele>49</ele>
        <time>2018-04-02T15:18:27.000Z</time>
      </trkpt>
      <trkpt lat="43.17179" lon="5.77327">
        <ele>47.799999237061</ele>
        <time>2018-04-02T15:18:35.000Z</time>
      </trkpt>
      <trkpt lat="43.17216" lon="5.77311">
        <ele>48</ele>
        <time>2018-04-02T15:18:42.000Z</time>
      </trkpt>
      <trkpt lat="43.17222" lon="5.77308">
        <ele>48</ele>
        <time>2018-04-02T15:18:43.000Z</time>
      </trkpt>
      <trkpt lat="43.17253" lon="5.77286">
        <ele>49</ele>
        <time>2018-04-02T15:18:49.000Z</time>
      </trkpt>
      <trkpt lat="43.17257" lon="5.77282">
        <ele>48.799999237061</ele>
        <time>2018-04-02T15:18:50.000Z</time>
      </trkpt>
      <trkpt lat="43.17302" lon="5.77243">
        <ele>46.799999237061</ele>
        <time>2018-04-02T15:18:59.000Z</time>
      </trkpt>
      <trkpt lat="43.17341" lon="5.77213">
        <ele>45.200000762939</ele>
        <time>2018-04-02T15:19:07.000Z</time>
      </trkpt>
      <trkpt lat="43.17375" lon="5.77187">
        <ele>46.599998474121</ele>
        <time>2018-04-02T15:19:14.000Z</time>
      </trkpt>
      <trkpt lat="43.1738" lon="5.77184">
        <ele>46.799999237061</ele>
        <time>2018-04-02T15:19:15.000Z</time>
      </trkpt>
      <trkpt lat="43.17414" lon="5.77164">
        <ele>47.599998474121</ele>
        <time>2018-04-02T15:19:22.000Z</time>
      </trkpt>
      <trkpt lat="43.17423" lon="5.77159">
        <ele>47.599998474121</ele>
        <time>2018-04-02T15:19:24.000Z</time>
      </trkpt>
      <trkpt lat="43.17453" lon="5.77146">
        <ele>48.799999237061</ele>
        <time>2018-04-02T15:19:31.000Z</time>
      </trkpt>
      <trkpt lat="43.17471" lon="5.77149">
        <ele>49.400001525879</ele>
        <time>2018-04-02T15:19:36.000Z</time>
      </trkpt>
      <trkpt lat="43.17475" lon="5.77152">
        <ele>49.400001525879</ele>
        <time>2018-04-02T15:19:37.000Z</time>
      </trkpt>
      <trkpt lat="43.17478" lon="5.77154">
        <ele>49.599998474121</ele>
        <time>2018-04-02T15:19:38.000Z</time>
      </trkpt>
      <trkpt lat="43.17487" lon="5.77159">
        <ele>50</ele>
        <time>2018-04-02T15:19:42.000Z</time>
      </trkpt>
      <trkpt lat="43.17488" lon="5.77158">
        <ele>50</ele>
        <time>2018-04-02T15:19:43.000Z</time>
      </trkpt>
      <trkpt lat="43.17489" lon="5.77153">
        <ele>49.799999237061</ele>
        <time>2018-04-02T15:20:08.000Z</time>
      </trkpt>
      <trkpt lat="43.17485" lon="5.7714">
        <ele>49.400001525879</ele>
        <time>2018-04-02T15:20:11.000Z</time>
      </trkpt>
      <trkpt lat="43.17479" lon="5.77131">
        <ele>49.400001525879</ele>
        <time>2018-04-02T15:20:13.000Z</time>
      </trkpt>
      <trkpt lat="43.17476" lon="5.77126">
        <ele>49.200000762939</ele>
        <time>2018-04-02T15:20:14.000Z</time>
      </trkpt>
      <trkpt lat="43.1747" lon="5.77116">
        <ele>49.200000762939</ele>
        <time>2018-04-02T15:20:16.000Z</time>
      </trkpt>
      <trkpt lat="43.17467" lon="5.77112">
        <ele>49.200000762939</ele>
        <time>2018-04-02T15:20:17.000Z</time>
      </trkpt>
      <trkpt lat="43.17465" lon="5.77107">
        <ele>49.200000762939</ele>
        <time>2018-04-02T15:20:18.000Z</time>
      </trkpt>
      <trkpt lat="43.17458" lon="5.77095">
        <ele>49.200000762939</ele>
        <time>2018-04-02T15:20:21.000Z</time>
      </trkpt>
      <trkpt lat="43.17457" lon="5.77086">
        <ele>49.400001525879</ele>
        <time>2018-04-02T15:20:23.000Z</time>
      </trkpt>
      <trkpt lat="43.17459" lon="5.77083">
        <ele>49.400001525879</ele>
        <time>2018-04-02T15:20:24.000Z</time>
      </trkpt>
      <trkpt lat="43.17465" lon="5.77078">
        <ele>49.400001525879</ele>
        <time>2018-04-02T15:20:26.000Z</time>
      </trkpt>
      <trkpt lat="43.17482" lon="5.77066">
        <ele>49.599998474121</ele>
        <time>2018-04-02T15:20:30.000Z</time>
      </trkpt>
      <trkpt lat="43.17485" lon="5.77062">
        <ele>49.599998474121</ele>
        <time>2018-04-02T15:20:31.000Z</time>
      </trkpt>
      <trkpt lat="43.17495" lon="5.7704">
        <ele>50.400001525879</ele>
        <time>2018-04-02T15:20:35.000Z</time>
      </trkpt>
      <trkpt lat="43.17499" lon="5.77008">
        <ele>51.200000762939</ele>
        <time>2018-04-02T15:20:40.000Z</time>
      </trkpt>
      <trkpt lat="43.17499" lon="5.77001">
        <ele>51.200000762939</ele>
        <time>2018-04-02T15:20:41.000Z</time>
      </trkpt>
      <trkpt lat="43.17497" lon="5.76975">
        <ele>52</ele>
        <time>2018-04-02T15:20:45.000Z</time>
      </trkpt>
      <trkpt lat="43.17495" lon="5.76954">
        <ele>53.200000762939</ele>
        <time>2018-04-02T15:20:48.000Z</time>
      </trkpt>
      <trkpt lat="43.17495" lon="5.76947">
        <ele>53.799999237061</ele>
        <time>2018-04-02T15:20:49.000Z</time>
      </trkpt>
      <trkpt lat="43.17495" lon="5.76929">
        <ele>55.400001525879</ele>
        <time>2018-04-02T15:20:52.000Z</time>
      </trkpt>
      <trkpt lat="43.17495" lon="5.76923">
        <ele>55.799999237061</ele>
        <time>2018-04-02T15:20:53.000Z</time>
      </trkpt>
      <trkpt lat="43.17494" lon="5.76917">
        <ele>56.400001525879</ele>
        <time>2018-04-02T15:20:54.000Z</time>
      </trkpt>
      <trkpt lat="43.17491" lon="5.76905">
        <ele>57.200000762939</ele>
        <time>2018-04-02T15:20:56.000Z</time>
      </trkpt>
      <trkpt lat="43.17489" lon="5.769">
        <ele>57.799999237061</ele>
        <time>2018-04-02T15:20:57.000Z</time>
      </trkpt>
      <trkpt lat="43.17482" lon="5.76889">
        <ele>58.599998474121</ele>
        <time>2018-04-02T15:20:59.000Z</time>
      </trkpt>
      <trkpt lat="43.17473" lon="5.76872">
        <ele>60.400001525879</ele>
        <time>2018-04-02T15:21:02.000Z</time>
      </trkpt>
      <trkpt lat="43.17471" lon="5.76867">
        <ele>61</ele>
        <time>2018-04-02T15:21:03.000Z</time>
      </trkpt>
      <trkpt lat="43.17469" lon="5.76854">
        <ele>62.599998474121</ele>
        <time>2018-04-02T15:21:05.000Z</time>
      </trkpt>
      <trkpt lat="43.17468" lon="5.76849">
        <ele>63.200000762939</ele>
        <time>2018-04-02T15:21:06.000Z</time>
      </trkpt>
      <trkpt lat="43.17476" lon="5.76832">
        <ele>64.599998474121</ele>
        <time>2018-04-02T15:21:09.000Z</time>
      </trkpt>
      <trkpt lat="43.17488" lon="5.76818">
        <ele>65.400001525879</ele>
        <time>2018-04-02T15:21:12.000Z</time>
      </trkpt>
      <trkpt lat="43.17492" lon="5.76814">
        <ele>65.599998474121</ele>
        <time>2018-04-02T15:21:13.000Z</time>
      </trkpt>
      <trkpt lat="43.17496" lon="5.7681">
        <ele>65.800003051758</ele>
        <time>2018-04-02T15:21:14.000Z</time>
      </trkpt>
      <trkpt lat="43.17513" lon="5.76793">
        <ele>66.599998474121</ele>
        <time>2018-04-02T15:21:18.000Z</time>
      </trkpt>
      <trkpt lat="43.17526" lon="5.7678">
        <ele>67</ele>
        <time>2018-04-02T15:21:21.000Z</time>
      </trkpt>
      <trkpt lat="43.17538" lon="5.76766">
        <ele>67.400001525879</ele>
        <time>2018-04-02T15:21:24.000Z</time>
      </trkpt>
      <trkpt lat="43.1755" lon="5.76753">
        <ele>67.800003051758</ele>
        <time>2018-04-02T15:21:27.000Z</time>
      </trkpt>
      <trkpt lat="43.17558" lon="5.76745">
        <ele>68.199996948242</ele>
        <time>2018-04-02T15:21:29.000Z</time>
      </trkpt>
      <trkpt lat="43.17562" lon="5.76741">
        <ele>68.400001525879</ele>
        <time>2018-04-02T15:21:30.000Z</time>
      </trkpt>
      <trkpt lat="43.17572" lon="5.76734">
        <ele>68.599998474121</ele>
        <time>2018-04-02T15:21:32.000Z</time>
      </trkpt>
      <trkpt lat="43.17577" lon="5.76731">
        <ele>68.800003051758</ele>
        <time>2018-04-02T15:21:33.000Z</time>
      </trkpt>
      <trkpt lat="43.17586" lon="5.76725">
        <ele>69</ele>
        <time>2018-04-02T15:21:35.000Z</time>
      </trkpt>
      <trkpt lat="43.17591" lon="5.76723">
        <ele>69</ele>
        <time>2018-04-02T15:21:36.000Z</time>
      </trkpt>
      <trkpt lat="43.1761" lon="5.76712">
        <ele>69</ele>
        <time>2018-04-02T15:21:40.000Z</time>
      </trkpt>
      <trkpt lat="43.1762" lon="5.76704">
        <ele>69.199996948242</ele>
        <time>2018-04-02T15:21:42.000Z</time>
      </trkpt>
      <trkpt lat="43.17629" lon="5.76696">
        <ele>69.599998474121</ele>
        <time>2018-04-02T15:21:44.000Z</time>
      </trkpt>
      <trkpt lat="43.17649" lon="5.76679">
        <ele>70.599998474121</ele>
        <time>2018-04-02T15:21:48.000Z</time>
      </trkpt>
      <trkpt lat="43.17655" lon="5.76675">
        <ele>71</ele>
        <time>2018-04-02T15:21:49.000Z</time>
      </trkpt>
      <trkpt lat="43.17681" lon="5.76661">
        <ele>73</ele>
        <time>2018-04-02T15:21:54.000Z</time>
      </trkpt>
      <trkpt lat="43.17691" lon="5.76656">
        <ele>73.800003051758</ele>
        <time>2018-04-02T15:21:56.000Z</time>
      </trkpt>
      <trkpt lat="43.17696" lon="5.76653">
        <ele>74.199996948242</ele>
        <time>2018-04-02T15:21:57.000Z</time>
      </trkpt>
      <trkpt lat="43.17709" lon="5.76644">
        <ele>74.800003051758</ele>
        <time>2018-04-02T15:22:00.000Z</time>
      </trkpt>
      <trkpt lat="43.17721" lon="5.76633">
        <ele>75.599998474121</ele>
        <time>2018-04-02T15:22:03.000Z</time>
      </trkpt>
      <trkpt lat="43.17733" lon="5.76622">
        <ele>76.599998474121</ele>
        <time>2018-04-02T15:22:06.000Z</time>
      </trkpt>
      <trkpt lat="43.17738" lon="5.7662">
        <ele>76.800003051758</ele>
        <time>2018-04-02T15:22:07.000Z</time>
      </trkpt>
      <trkpt lat="43.17754" lon="5.76613">
        <ele>76.800003051758</ele>
        <time>2018-04-02T15:22:10.000Z</time>
      </trkpt>
      <trkpt lat="43.17795" lon="5.76598">
        <ele>76.599998474121</ele>
        <time>2018-04-02T15:22:18.000Z</time>
      </trkpt>
      <trkpt lat="43.17806" lon="5.76592">
        <ele>76.599998474121</ele>
        <time>2018-04-02T15:22:20.000Z</time>
      </trkpt>
      <trkpt lat="43.1782" lon="5.76578">
        <ele>76.800003051758</ele>
        <time>2018-04-02T15:22:23.000Z</time>
      </trkpt>
      <trkpt lat="43.17834" lon="5.76549">
        <ele>78</ele>
        <time>2018-04-02T15:22:27.000Z</time>
      </trkpt>
      <trkpt lat="43.17857" lon="5.76507">
        <ele>78</ele>
        <time>2018-04-02T15:22:33.000Z</time>
      </trkpt>
      <trkpt lat="43.17868" lon="5.765">
        <ele>77.599998474121</ele>
        <time>2018-04-02T15:22:35.000Z</time>
      </trkpt>
      <trkpt lat="43.17893" lon="5.76495">
        <ele>77.599998474121</ele>
        <time>2018-04-02T15:22:39.000Z</time>
      </trkpt>
      <trkpt lat="43.17924" lon="5.76491">
        <ele>78</ele>
        <time>2018-04-02T15:22:44.000Z</time>
      </trkpt>
      <trkpt lat="43.17947" lon="5.76487">
        <ele>79.599998474121</ele>
        <time>2018-04-02T15:22:48.000Z</time>
      </trkpt>
      <trkpt lat="43.17958" lon="5.76482">
        <ele>80.800003051758</ele>
        <time>2018-04-02T15:22:50.000Z</time>
      </trkpt>
      <trkpt lat="43.17963" lon="5.76479">
        <ele>81.400001525879</ele>
        <time>2018-04-02T15:22:51.000Z</time>
      </trkpt>
      <trkpt lat="43.17974" lon="5.76472">
        <ele>82.800003051758</ele>
        <time>2018-04-02T15:22:53.000Z</time>
      </trkpt>
      <trkpt lat="43.17984" lon="5.76463">
        <ele>84</ele>
        <time>2018-04-02T15:22:55.000Z</time>
      </trkpt>
      <trkpt lat="43.18" lon="5.7645">
        <ele>86.199996948242</ele>
        <time>2018-04-02T15:22:58.000Z</time>
      </trkpt>
      <trkpt lat="43.18017" lon="5.76439">
        <ele>88.199996948242</ele>
        <time>2018-04-02T15:23:01.000Z</time>
      </trkpt>
      <trkpt lat="43.18028" lon="5.76434">
        <ele>89</ele>
        <time>2018-04-02T15:23:03.000Z</time>
      </trkpt>
      <trkpt lat="43.18034" lon="5.76432">
        <ele>89.400001525879</ele>
        <time>2018-04-02T15:23:04.000Z</time>
      </trkpt>
      <trkpt lat="43.18046" lon="5.76427">
        <ele>90</ele>
        <time>2018-04-02T15:23:06.000Z</time>
      </trkpt>
      <trkpt lat="43.18052" lon="5.76424">
        <ele>90.400001525879</ele>
        <time>2018-04-02T15:23:07.000Z</time>
      </trkpt>
      <trkpt lat="43.18063" lon="5.76419">
        <ele>91</ele>
        <time>2018-04-02T15:23:09.000Z</time>
      </trkpt>
      <trkpt lat="43.18068" lon="5.76415">
        <ele>91.400001525879</ele>
        <time>2018-04-02T15:23:10.000Z</time>
      </trkpt>
      <trkpt lat="43.18073" lon="5.7641">
        <ele>91.800003051758</ele>
        <time>2018-04-02T15:23:11.000Z</time>
      </trkpt>
      <trkpt lat="43.18078" lon="5.76405">
        <ele>92.400001525879</ele>
        <time>2018-04-02T15:23:12.000Z</time>
      </trkpt>
      <trkpt lat="43.18086" lon="5.76392">
        <ele>93.599998474121</ele>
        <time>2018-04-02T15:23:14.000Z</time>
      </trkpt>
      <trkpt lat="43.18091" lon="5.76377">
        <ele>94.599998474121</ele>
        <time>2018-04-02T15:23:16.000Z</time>
      </trkpt>
      <trkpt lat="43.18093" lon="5.76369">
        <ele>95.199996948242</ele>
        <time>2018-04-02T15:23:17.000Z</time>
      </trkpt>
      <trkpt lat="43.18095" lon="5.7636">
        <ele>96</ele>
        <time>2018-04-02T15:23:18.000Z</time>
      </trkpt>
      <trkpt lat="43.18098" lon="5.76344">
        <ele>97</ele>
        <time>2018-04-02T15:23:20.000Z</time>
      </trkpt>
      <trkpt lat="43.18103" lon="5.7632">
        <ele>98.400001525879</ele>
        <time>2018-04-02T15:23:23.000Z</time>
      </trkpt>
      <trkpt lat="43.18106" lon="5.76304">
        <ele>98.599998474121</ele>
        <time>2018-04-02T15:23:25.000Z</time>
      </trkpt>
      <trkpt lat="43.18107" lon="5.76296">
        <ele>98.800003051758</ele>
        <time>2018-04-02T15:23:26.000Z</time>
      </trkpt>
      <trkpt lat="43.18109" lon="5.76266">
        <ele>99.199996948242</ele>
        <time>2018-04-02T15:23:30.000Z</time>
      </trkpt>
      <trkpt lat="43.18112" lon="5.76238">
        <ele>99.400001525879</ele>
        <time>2018-04-02T15:23:34.000Z</time>
      </trkpt>
      <trkpt lat="43.18123" lon="5.76226">
        <ele>100</ele>
        <time>2018-04-02T15:23:37.000Z</time>
      </trkpt>
      <trkpt lat="43.18134" lon="5.76223">
        <ele>99.400001525879</ele>
        <time>2018-04-02T15:23:39.000Z</time>
      </trkpt>
      <trkpt lat="43.1814" lon="5.76221">
        <ele>99.199996948242</ele>
        <time>2018-04-02T15:23:40.000Z</time>
      </trkpt>
      <trkpt lat="43.18164" lon="5.76216">
        <ele>98.199996948242</ele>
        <time>2018-04-02T15:23:44.000Z</time>
      </trkpt>
      <trkpt lat="43.18171" lon="5.76216">
        <ele>97.800003051758</ele>
        <time>2018-04-02T15:23:45.000Z</time>
      </trkpt>
      <trkpt lat="43.18209" lon="5.76219">
        <ele>95.800003051758</ele>
        <time>2018-04-02T15:23:50.000Z</time>
      </trkpt>
      <trkpt lat="43.18218" lon="5.7622">
        <ele>95.199996948242</ele>
        <time>2018-04-02T15:23:51.000Z</time>
      </trkpt>
      <trkpt lat="43.18261" lon="5.76223">
        <ele>92.800003051758</ele>
        <time>2018-04-02T15:23:56.000Z</time>
      </trkpt>
      <trkpt lat="43.18269" lon="5.76223">
        <ele>92.199996948242</ele>
        <time>2018-04-02T15:23:57.000Z</time>
      </trkpt>
      <trkpt lat="43.18326" lon="5.76215">
        <ele>89</ele>
        <time>2018-04-02T15:24:04.000Z</time>
      </trkpt>
      <trkpt lat="43.18335" lon="5.76215">
        <ele>88.599998474121</ele>
        <time>2018-04-02T15:24:05.000Z</time>
      </trkpt>
      <trkpt lat="43.1836" lon="5.76214">
        <ele>87.199996948242</ele>
        <time>2018-04-02T15:24:08.000Z</time>
      </trkpt>
      <trkpt lat="43.18377" lon="5.76215">
        <ele>86.199996948242</ele>
        <time>2018-04-02T15:24:10.000Z</time>
      </trkpt>
      <trkpt lat="43.18385" lon="5.76216">
        <ele>85.599998474121</ele>
        <time>2018-04-02T15:24:11.000Z</time>
      </trkpt>
      <trkpt lat="43.18394" lon="5.76215">
        <ele>85.400001525879</ele>
        <time>2018-04-02T15:24:12.000Z</time>
      </trkpt>
      <trkpt lat="43.18412" lon="5.76211">
        <ele>85</ele>
        <time>2018-04-02T15:24:14.000Z</time>
      </trkpt>
      <trkpt lat="43.18422" lon="5.76206">
        <ele>84.599998474121</ele>
        <time>2018-04-02T15:24:15.000Z</time>
      </trkpt>
      <trkpt lat="43.18432" lon="5.762">
        <ele>84.199996948242</ele>
        <time>2018-04-02T15:24:16.000Z</time>
      </trkpt>
      <trkpt lat="43.18441" lon="5.76194">
        <ele>83.599998474121</ele>
        <time>2018-04-02T15:24:17.000Z</time>
      </trkpt>
      <trkpt lat="43.18461" lon="5.76182">
        <ele>82.599998474121</ele>
        <time>2018-04-02T15:24:19.000Z</time>
      </trkpt>
      <trkpt lat="43.18471" lon="5.76176">
        <ele>82.199996948242</ele>
        <time>2018-04-02T15:24:20.000Z</time>
      </trkpt>
      <trkpt lat="43.18481" lon="5.7617">
        <ele>81.800003051758</ele>
        <time>2018-04-02T15:24:21.000Z</time>
      </trkpt>
      <trkpt lat="43.18507" lon="5.76155">
        <ele>81</ele>
        <time>2018-04-02T15:24:24.000Z</time>
      </trkpt>
      <trkpt lat="43.18515" lon="5.7615">
        <ele>81</ele>
        <time>2018-04-02T15:24:25.000Z</time>
      </trkpt>
      <trkpt lat="43.18539" lon="5.76134">
        <ele>81.599998474121</ele>
        <time>2018-04-02T15:24:29.000Z</time>
      </trkpt>
      <trkpt lat="43.18552" lon="5.76112">
        <ele>82.800003051758</ele>
        <time>2018-04-02T15:24:33.000Z</time>
      </trkpt>
      <trkpt lat="43.18555" lon="5.76105">
        <ele>83.400001525879</ele>
        <time>2018-04-02T15:24:34.000Z</time>
      </trkpt>
      <trkpt lat="43.18573" lon="5.76065">
        <ele>85.800003051758</ele>
        <time>2018-04-02T15:24:40.000Z</time>
      </trkpt>
      <trkpt lat="43.18576" lon="5.76058">
        <ele>86.199996948242</ele>
        <time>2018-04-02T15:24:41.000Z</time>
      </trkpt>
      <trkpt lat="43.18584" lon="5.76045">
        <ele>87</ele>
        <time>2018-04-02T15:24:43.000Z</time>
      </trkpt>
      <trkpt lat="43.18605" lon="5.76013">
        <ele>88.599998474121</ele>
        <time>2018-04-02T15:24:48.000Z</time>
      </trkpt>
      <trkpt lat="43.1863" lon="5.75985">
        <ele>89.199996948242</ele>
        <time>2018-04-02T15:24:53.000Z</time>
      </trkpt>
      <trkpt lat="43.18636" lon="5.75981">
        <ele>89</ele>
        <time>2018-04-02T15:24:54.000Z</time>
      </trkpt>
      <trkpt lat="43.18671" lon="5.75961">
        <ele>88.199996948242</ele>
        <time>2018-04-02T15:24:59.000Z</time>
      </trkpt>
      <trkpt lat="43.18678" lon="5.75957">
        <ele>87.400001525879</ele>
        <time>2018-04-02T15:25:00.000Z</time>
      </trkpt>
      <trkpt lat="43.187" lon="5.75946">
        <ele>86.599998474121</ele>
        <time>2018-04-02T15:25:03.000Z</time>
      </trkpt>
      <trkpt lat="43.18721" lon="5.75938">
        <ele>85.599998474121</ele>
        <time>2018-04-02T15:25:06.000Z</time>
      </trkpt>
      <trkpt lat="43.18729" lon="5.75937">
        <ele>85.199996948242</ele>
        <time>2018-04-02T15:25:07.000Z</time>
      </trkpt>
      <trkpt lat="43.18743" lon="5.75934">
        <ele>83.599998474121</ele>
        <time>2018-04-02T15:25:09.000Z</time>
      </trkpt>
      <trkpt lat="43.18756" lon="5.75931">
        <ele>82.199996948242</ele>
        <time>2018-04-02T15:25:11.000Z</time>
      </trkpt>
      <trkpt lat="43.18775" lon="5.75924">
        <ele>80.400001525879</ele>
        <time>2018-04-02T15:25:14.000Z</time>
      </trkpt>
      <trkpt lat="43.18796" lon="5.75918">
        <ele>79</ele>
        <time>2018-04-02T15:25:17.000Z</time>
      </trkpt>
      <trkpt lat="43.18818" lon="5.75914">
        <ele>78</ele>
        <time>2018-04-02T15:25:20.000Z</time>
      </trkpt>
      <trkpt lat="43.18839" lon="5.75912">
        <ele>77</ele>
        <time>2018-04-02T15:25:23.000Z</time>
      </trkpt>
      <trkpt lat="43.18854" lon="5.7591">
        <ele>76.599998474121</ele>
        <time>2018-04-02T15:25:25.000Z</time>
      </trkpt>
      <trkpt lat="43.18877" lon="5.75908">
        <ele>76.599998474121</ele>
        <time>2018-04-02T15:25:28.000Z</time>
      </trkpt>
      <trkpt lat="43.18898" lon="5.75905">
        <ele>77</ele>
        <time>2018-04-02T15:25:31.000Z</time>
      </trkpt>
      <trkpt lat="43.18904" lon="5.75901">
        <ele>77.199996948242</ele>
        <time>2018-04-02T15:25:32.000Z</time>
      </trkpt>
      <trkpt lat="43.18919" lon="5.75881">
        <ele>78</ele>
        <time>2018-04-02T15:25:35.000Z</time>
      </trkpt>
      <trkpt lat="43.18939" lon="5.75858">
        <ele>77.599998474121</ele>
        <time>2018-04-02T15:25:39.000Z</time>
      </trkpt>
      <trkpt lat="43.18957" lon="5.7585">
        <ele>77.800003051758</ele>
        <time>2018-04-02T15:25:42.000Z</time>
      </trkpt>
      <trkpt lat="43.1897" lon="5.75847">
        <ele>78</ele>
        <time>2018-04-02T15:25:44.000Z</time>
      </trkpt>
      <trkpt lat="43.19018" lon="5.75831">
        <ele>79.800003051758</ele>
        <time>2018-04-02T15:25:52.000Z</time>
      </trkpt>
      <trkpt lat="43.19024" lon="5.75829">
        <ele>80.199996948242</ele>
        <time>2018-04-02T15:25:53.000Z</time>
      </trkpt>
      <trkpt lat="43.1904" lon="5.7582">
        <ele>81.599998474121</ele>
        <time>2018-04-02T15:25:56.000Z</time>
      </trkpt>
      <trkpt lat="43.19051" lon="5.75815">
        <ele>82.800003051758</ele>
        <time>2018-04-02T15:25:58.000Z</time>
      </trkpt>
      <trkpt lat="43.19057" lon="5.75812">
        <ele>83.199996948242</ele>
        <time>2018-04-02T15:25:59.000Z</time>
      </trkpt>
      <trkpt lat="43.19062" lon="5.7581">
        <ele>83.800003051758</ele>
        <time>2018-04-02T15:26:00.000Z</time>
      </trkpt>
      <trkpt lat="43.19074" lon="5.75807">
        <ele>85</ele>
        <time>2018-04-02T15:26:02.000Z</time>
      </trkpt>
      <trkpt lat="43.19089" lon="5.75798">
        <ele>86.599998474121</ele>
        <time>2018-04-02T15:26:05.000Z</time>
      </trkpt>
      <trkpt lat="43.19094" lon="5.75794">
        <ele>87</ele>
        <time>2018-04-02T15:26:06.000Z</time>
      </trkpt>
      <trkpt lat="43.19104" lon="5.75786">
        <ele>87.599998474121</ele>
        <time>2018-04-02T15:26:08.000Z</time>
      </trkpt>
      <trkpt lat="43.19118" lon="5.75772">
        <ele>88.599998474121</ele>
        <time>2018-04-02T15:26:11.000Z</time>
      </trkpt>
      <trkpt lat="43.19127" lon="5.75762">
        <ele>89</ele>
        <time>2018-04-02T15:26:13.000Z</time>
      </trkpt>
      <trkpt lat="43.19131" lon="5.75757">
        <ele>89.199996948242</ele>
        <time>2018-04-02T15:26:14.000Z</time>
      </trkpt>
      <trkpt lat="43.19143" lon="5.75742">
        <ele>90.800003051758</ele>
        <time>2018-04-02T15:26:17.000Z</time>
      </trkpt>
      <trkpt lat="43.19152" lon="5.75732">
        <ele>91.599998474121</ele>
        <time>2018-04-02T15:26:19.000Z</time>
      </trkpt>
      <trkpt lat="43.19156" lon="5.75727">
        <ele>92.199996948242</ele>
        <time>2018-04-02T15:26:20.000Z</time>
      </trkpt>
      <trkpt lat="43.1916" lon="5.75723">
        <ele>92.599998474121</ele>
        <time>2018-04-02T15:26:21.000Z</time>
      </trkpt>
      <trkpt lat="43.1917" lon="5.75711">
        <ele>93.599998474121</ele>
        <time>2018-04-02T15:26:24.000Z</time>
      </trkpt>
      <trkpt lat="43.19179" lon="5.75698">
        <ele>94</ele>
        <time>2018-04-02T15:26:27.000Z</time>
      </trkpt>
      <trkpt lat="43.19183" lon="5.75693">
        <ele>94</ele>
        <time>2018-04-02T15:26:28.000Z</time>
      </trkpt>
      <trkpt lat="43.19192" lon="5.75679">
        <ele>94</ele>
        <time>2018-04-02T15:26:31.000Z</time>
      </trkpt>
      <trkpt lat="43.19205" lon="5.75655">
        <ele>94</ele>
        <time>2018-04-02T15:26:36.000Z</time>
      </trkpt>
      <trkpt lat="43.19213" lon="5.75639">
        <ele>94</ele>
        <time>2018-04-02T15:26:39.000Z</time>
      </trkpt>
      <trkpt lat="43.19217" lon="5.75622">
        <ele>93.599998474121</ele>
        <time>2018-04-02T15:26:42.000Z</time>
      </trkpt>
      <trkpt lat="43.19218" lon="5.7561">
        <ele>93.400001525879</ele>
        <time>2018-04-02T15:26:44.000Z</time>
      </trkpt>
      <trkpt lat="43.19224" lon="5.75597">
        <ele>93.199996948242</ele>
        <time>2018-04-02T15:26:47.000Z</time>
      </trkpt>
      <trkpt lat="43.19238" lon="5.7559">
        <ele>94.199996948242</ele>
        <time>2018-04-02T15:26:51.000Z</time>
      </trkpt>
      <trkpt lat="43.19247" lon="5.75593">
        <ele>94.800003051758</ele>
        <time>2018-04-02T15:27:12.000Z</time>
      </trkpt>
      <trkpt lat="43.19249" lon="5.75592">
        <ele>95</ele>
        <time>2018-04-02T15:27:13.000Z</time>
      </trkpt>
      <trkpt lat="43.19252" lon="5.7559">
        <ele>95.199996948242</ele>
        <time>2018-04-02T15:27:14.000Z</time>
      </trkpt>
      <trkpt lat="43.19267" lon="5.75577">
        <ele>96.400001525879</ele>
        <time>2018-04-02T15:27:17.000Z</time>
      </trkpt>
      <trkpt lat="43.1928" lon="5.75577">
        <ele>97</ele>
        <time>2018-04-02T15:27:19.000Z</time>
      </trkpt>
      <trkpt lat="43.19287" lon="5.7558">
        <ele>97.199996948242</ele>
        <time>2018-04-02T15:27:20.000Z</time>
      </trkpt>
      <trkpt lat="43.19303" lon="5.75596">
        <ele>97.400001525879</ele>
        <time>2018-04-02T15:27:23.000Z</time>
      </trkpt>
      <trkpt lat="43.19307" lon="5.75603">
        <ele>97.400001525879</ele>
        <time>2018-04-02T15:27:24.000Z</time>
      </trkpt>
      <trkpt lat="43.1933" lon="5.75636">
        <ele>97.400001525879</ele>
        <time>2018-04-02T15:27:29.000Z</time>
      </trkpt>
      <trkpt lat="43.19339" lon="5.75648">
        <ele>97.400001525879</ele>
        <time>2018-04-02T15:27:31.000Z</time>
      </trkpt>
      <trkpt lat="43.19352" lon="5.75667">
        <ele>98.400001525879</ele>
        <time>2018-04-02T15:27:34.000Z</time>
      </trkpt>
      <trkpt lat="43.1936" lon="5.75682">
        <ele>99.599998474121</ele>
        <time>2018-04-02T15:27:36.000Z</time>
      </trkpt>
      <trkpt lat="43.19364" lon="5.75689">
        <ele>100</ele>
        <time>2018-04-02T15:27:37.000Z</time>
      </trkpt>
      <trkpt lat="43.1937" lon="5.75704">
        <ele>100.59999847412</ele>
        <time>2018-04-02T15:27:39.000Z</time>
      </trkpt>
      <trkpt lat="43.19379" lon="5.75726">
        <ele>102</ele>
        <time>2018-04-02T15:27:42.000Z</time>
      </trkpt>
      <trkpt lat="43.19383" lon="5.75733">
        <ele>102.59999847412</ele>
        <time>2018-04-02T15:27:43.000Z</time>
      </trkpt>
      <trkpt lat="43.19387" lon="5.75739">
        <ele>103.40000152588</ele>
        <time>2018-04-02T15:27:44.000Z</time>
      </trkpt>
      <trkpt lat="43.19391" lon="5.75744">
        <ele>104.19999694824</ele>
        <time>2018-04-02T15:27:45.000Z</time>
      </trkpt>
      <trkpt lat="43.19407" lon="5.75754">
        <ele>107.19999694824</ele>
        <time>2018-04-02T15:27:48.000Z</time>
      </trkpt>
      <trkpt lat="43.19421" lon="5.7577">
        <ele>109.80000305176</ele>
        <time>2018-04-02T15:27:51.000Z</time>
      </trkpt>
      <trkpt lat="43.19423" lon="5.75778">
        <ele>110.40000152588</ele>
        <time>2018-04-02T15:27:52.000Z</time>
      </trkpt>
      <trkpt lat="43.19425" lon="5.75794">
        <ele>110.40000152588</ele>
        <time>2018-04-02T15:27:54.000Z</time>
      </trkpt>
      <trkpt lat="43.19425" lon="5.75802">
        <ele>110.40000152588</ele>
        <time>2018-04-02T15:27:55.000Z</time>
      </trkpt>
      <trkpt lat="43.19425" lon="5.7581">
        <ele>109.80000305176</ele>
        <time>2018-04-02T15:27:56.000Z</time>
      </trkpt>
      <trkpt lat="43.19425" lon="5.75817">
        <ele>109.19999694824</ele>
        <time>2018-04-02T15:27:57.000Z</time>
      </trkpt>
      <trkpt lat="43.19426" lon="5.75839">
        <ele>107.40000152588</ele>
        <time>2018-04-02T15:28:00.000Z</time>
      </trkpt>
      <trkpt lat="43.19427" lon="5.75854">
        <ele>106.59999847412</ele>
        <time>2018-04-02T15:28:02.000Z</time>
      </trkpt>
      <trkpt lat="43.19429" lon="5.75861">
        <ele>106.40000152588</ele>
        <time>2018-04-02T15:28:03.000Z</time>
      </trkpt>
      <trkpt lat="43.19436" lon="5.75872">
        <ele>106.80000305176</ele>
        <time>2018-04-02T15:28:05.000Z</time>
      </trkpt>
      <trkpt lat="43.19445" lon="5.75882">
        <ele>107.40000152588</ele>
        <time>2018-04-02T15:28:07.000Z</time>
      </trkpt>
      <trkpt lat="43.19457" lon="5.75895">
        <ele>109</ele>
        <time>2018-04-02T15:28:10.000Z</time>
      </trkpt>
      <trkpt lat="43.19461" lon="5.759">
        <ele>109.59999847412</ele>
        <time>2018-04-02T15:28:11.000Z</time>
      </trkpt>
      <trkpt lat="43.19469" lon="5.75909">
        <ele>111.19999694824</ele>
        <time>2018-04-02T15:28:13.000Z</time>
      </trkpt>
      <trkpt lat="43.19474" lon="5.75911">
        <ele>112</ele>
        <time>2018-04-02T15:28:14.000Z</time>
      </trkpt>
      <trkpt lat="43.1948" lon="5.75912">
        <ele>113</ele>
        <time>2018-04-02T15:28:15.000Z</time>
      </trkpt>
      <trkpt lat="43.19489" lon="5.75907">
        <ele>114.59999847412</ele>
        <time>2018-04-02T15:28:17.000Z</time>
      </trkpt>
      <trkpt lat="43.19492" lon="5.75902">
        <ele>115.40000152588</ele>
        <time>2018-04-02T15:28:18.000Z</time>
      </trkpt>
      <trkpt lat="43.19498" lon="5.75892">
        <ele>116.40000152588</ele>
        <time>2018-04-02T15:28:20.000Z</time>
      </trkpt>
      <trkpt lat="43.195" lon="5.75886">
        <ele>117.19999694824</ele>
        <time>2018-04-02T15:28:21.000Z</time>
      </trkpt>
      <trkpt lat="43.19503" lon="5.7588">
        <ele>118.19999694824</ele>
        <time>2018-04-02T15:28:22.000Z</time>
      </trkpt>
      <trkpt lat="43.19506" lon="5.75875">
        <ele>119</ele>
        <time>2018-04-02T15:28:23.000Z</time>
      </trkpt>
      <trkpt lat="43.19509" lon="5.7587">
        <ele>119.59999847412</ele>
        <time>2018-04-02T15:28:24.000Z</time>
      </trkpt>
      <trkpt lat="43.19515" lon="5.7586">
        <ele>121</ele>
        <time>2018-04-02T15:28:26.000Z</time>
      </trkpt>
      <trkpt lat="43.19521" lon="5.75851">
        <ele>122.19999694824</ele>
        <time>2018-04-02T15:28:28.000Z</time>
      </trkpt>
      <trkpt lat="43.19524" lon="5.75847">
        <ele>122.80000305176</ele>
        <time>2018-04-02T15:28:29.000Z</time>
      </trkpt>
      <trkpt lat="43.19527" lon="5.75844">
        <ele>123.19999694824</ele>
        <time>2018-04-02T15:28:30.000Z</time>
      </trkpt>
      <trkpt lat="43.1953" lon="5.75841">
        <ele>123.80000305176</ele>
        <time>2018-04-02T15:28:31.000Z</time>
      </trkpt>
      <trkpt lat="43.19533" lon="5.75839">
        <ele>124.19999694824</ele>
        <time>2018-04-02T15:28:32.000Z</time>
      </trkpt>
      <trkpt lat="43.19535" lon="5.75838">
        <ele>124.59999847412</ele>
        <time>2018-04-02T15:28:33.000Z</time>
      </trkpt>
      <trkpt lat="43.19537" lon="5.75835">
        <ele>125</ele>
        <time>2018-04-02T15:28:34.000Z</time>
      </trkpt>
      <trkpt lat="43.19539" lon="5.75831">
        <ele>125.40000152588</ele>
        <time>2018-04-02T15:28:35.000Z</time>
      </trkpt>
      <trkpt lat="43.19539" lon="5.7582">
        <ele>126</ele>
        <time>2018-04-02T15:28:37.000Z</time>
      </trkpt>
      <trkpt lat="43.19538" lon="5.75814">
        <ele>126.19999694824</ele>
        <time>2018-04-02T15:28:38.000Z</time>
      </trkpt>
      <trkpt lat="43.19537" lon="5.75802">
        <ele>126.80000305176</ele>
        <time>2018-04-02T15:28:40.000Z</time>
      </trkpt>
      <trkpt lat="43.19537" lon="5.75791">
        <ele>127</ele>
        <time>2018-04-02T15:28:42.000Z</time>
      </trkpt>
      <trkpt lat="43.19539" lon="5.75787">
        <ele>127.19999694824</ele>
        <time>2018-04-02T15:28:43.000Z</time>
      </trkpt>
      <trkpt lat="43.19545" lon="5.75779">
        <ele>127.80000305176</ele>
        <time>2018-04-02T15:28:45.000Z</time>
      </trkpt>
      <trkpt lat="43.19551" lon="5.75773">
        <ele>128.60000610352</ele>
        <time>2018-04-02T15:28:47.000Z</time>
      </trkpt>
      <trkpt lat="43.19554" lon="5.75769">
        <ele>129</ele>
        <time>2018-04-02T15:28:48.000Z</time>
      </trkpt>
      <trkpt lat="43.19559" lon="5.75762">
        <ele>130.19999694824</ele>
        <time>2018-04-02T15:28:50.000Z</time>
      </trkpt>
      <trkpt lat="43.1957" lon="5.75751">
        <ele>133.39999389648</ele>
        <time>2018-04-02T15:28:54.000Z</time>
      </trkpt>
      <trkpt lat="43.19578" lon="5.75744">
        <ele>135.60000610352</ele>
        <time>2018-04-02T15:28:58.000Z</time>
      </trkpt>
      <trkpt lat="43.19579" lon="5.75743">
        <ele>135.80000305176</ele>
        <time>2018-04-02T15:28:59.000Z</time>
      </trkpt>
    </trkseg>
  </trk>
</gpx>